[[{"header":{"parameterUnit":"m.s-1","parameterCategory":1,"la1":30.6,"la2":28.766,"lo1":-90.7593,"lo2":-88.6598,"dy":0.0162,"dx":0.0183,"nx":116,"ny":114,"refTime":"2023-09-27T18:00:00:Z","depth":0,"parameterNumber":2,"parameterNumberName":"U-component_of_WINDS"},"data":[0.0,0.0,0.0,0.0,0.0,0.0,0.0,0.0,0.0,0.0,0.0,0.0,0.0,0.0,0.0,0.0,0.0,0.0,0.0,0.0,0.0,0.0,0.0,0.0,0.0,0.0,0.0,0.0,0.0,0.0,0.0,0.0,0.0,0.0,0.0,0.0,0.0,0.0,0.0,0.0,0.0,0.0,0.0,0.0,0.0,0.0,0.0,0.0,0.0,0.0,0.0,0.0,0.0,0.0,0.0,0.0,0.0,0.0,0.0,0.0,0.0,0.0,0.0,0.0,0.0,0.0,0.0,0.0,0.0,0.0,0.0,0.0,0.0,0.0,0.0,0.0,0.0,0.0,0.0,0.0,0.0,0.0,0.0,0.0,0.0,0.0,0.0,0.0,0.0,0.0,0.0,0.0,0.0,0.0,0.0,0.0,0.0,0.0,0.0,0.0,0.0,0.0,0.0,0.0,0.0,0.0,0.0,0.0,0.0,0.0,0.0,0.0,0.0,0.0,0.0,0.0,0.0,0.0,0.0,0.0,0.0,0.0,0.0,0.0,0.0,0.0,0.0,0.0,0.0,0.0,0.0,0.0,0.0,0.0,0.0,0.0,0.0,0.0,0.0,0.0,0.0,0.0,0.0,0.0,0.0,0.0,0.0,0.0,0.0,0.0,0.0,0.0,0.0,0.0,0.0,0.0,0.0,0.0,0.0,0.0,0.0,0.0,0.0,0.0,0.0,0.0,0.0,0.0,0.0,0.0,0.0,0.0,0.0,0.0,0.0,0.0,0.0,0.0,0.0,0.0,0.0,0.0,0.0,0.0,0.0,0.0,0.0,0.0,0.0,0.0,0.0,0.0,0.0,0.0,0.0,0.0,0.0,0.0,0.0,0.0,0.0,0.0,0.0,0.0,0.0,0.0,0.0,0.0,0.0,0.0,0.0,0.0,0.0,0.0,0.0,0.0,0.0,0.0,0.0,0.0,0.0,0.0,0.0,0.0,0.0,0.0,0.0,0.0,0.0,0.0,0.0,0.0,0.0,0.0,0.0,0.0,0.0,0.0,0.0,0.0,0.0,0.0,0.0,0.0,0.0,0.0,0.0,0.0,0.0,0.0,0.0,0.0,0.0,0.0,0.0,0.0,0.0,0.0,0.0,0.0,0.0,0.0,0.0,0.0,0.0,0.0,0.0,0.0,0.0,0.0,0.0,0.0,0.0,0.0,0.0,0.0,0.0,0.0,0.0,0.0,0.0,0.0,0.0,0.0,0.0,0.0,0.0,0.0,0.0,0.0,0.0,0.0,0.0,0.0,0.0,0.0,0.0,0.0,0.0,0.0,0.0,0.0,0.0,0.0,0.0,0.0,0.0,0.0,0.0,0.0,0.0,0.0,0.0,0.0,0.0,0.0,0.0,0.0,0.0,0.0,0.0,0.0,0.0,0.0,0.0,0.0,0.0,0.0,0.0,0.0,0.0,0.0,0.0,0.0,0.0,0.0,0.0,0.0,0.0,0.0,0.0,0.0,0.0,0.0,0.0,0.0,0.0,0.0,0.0,0.0,0.0,0.0,0.0,0.0,0.0,0.0,0.0,0.0,0.0,0.0,0.0,0.0,0.0,0.0,0.0,0.0,0.0,0.0,0.0,0.0,0.0,0.0,0.0,0.0,0.0,0.0,0.0,0.0,0.0,0.0,0.0,0.0,0.0,0.0,0.0,0.0,0.0,0.0,0.0,0.0,0.0,0.0,0.0,0.0,0.0,0.0,0.0,0.0,0.0,0.0,0.0,0.0,0.0,0.0,0.0,0.0,0.0,0.0,0.0,0.0,0.0,0.0,0.0,0.0,0.0,0.0,0.0,0.0,0.0,0.0,0.0,0.0,0.0,0.0,0.0,0.0,0.0,0.0,0.0,0.0,0.0,0.0,0.0,0.0,0.0,0.0,0.0,0.0,0.0,0.0,0.0,0.0,0.0,0.0,0.0,0.0,0.0,0.0,0.0,0.0,0.0,0.0,0.0,0.0,0.0,0.0,0.0,0.0,0.0,0.0,0.0,0.0,0.0,0.0,0.0,0.0,0.0,0.0,0.0,0.0,0.0,0.0,0.0,0.0,0.0,0.0,0.0,0.0,0.0,0.0,0.0,0.0,0.0,0.0,0.0,0.0,0.0,0.0,0.0,0.0,0.0,0.0,0.0,0.0,0.0,0.0,0.0,0.0,0.0,0.0,0.0,0.0,0.0,0.0,0.0,0.0,0.0,0.0,0.0,0.0,0.0,0.0,0.0,0.0,0.0,0.0,0.0,0.0,0.0,0.0,0.0,0.0,0.0,0.0,0.0,0.0,0.0,0.0,0.0,0.0,0.0,0.0,0.0,0.0,0.0,0.0,0.0,0.0,0.0,0.0,0.0,0.0,0.0,0.0,0.0,0.0,0.0,0.0,0.0,0.0,0.0,0.0,0.0,0.0,0.0,0.0,0.0,0.0,0.0,0.0,0.0,0.0,0.0,0.0,0.0,0.0,0.0,0.0,0.0,0.0,0.0,0.0,0.0,0.0,0.0,0.0,0.0,0.0,0.0,0.0,0.0,0.0,0.0,0.0,0.0,0.0,0.0,0.0,0.0,0.0,0.0,0.0,0.0,0.0,0.0,0.0,0.0,0.0,0.0,0.0,0.0,0.0,0.0,0.0,0.0,0.0,0.0,0.0,0.0,0.0,0.0,0.0,0.0,0.0,0.0,0.0,0.0,0.0,0.0,0.0,0.0,0.0,0.0,0.0,0.0,0.0,0.0,0.0,0.0,0.0,0.0,0.0,0.0,0.0,0.0,0.0,0.0,0.0,0.0,0.0,0.0,0.0,0.0,0.0,0.0,0.0,0.0,0.0,0.0,0.0,0.0,0.0,0.0,0.0,0.0,0.0,0.0,0.0,0.0,0.0,0.0,0.0,0.0,0.0,0.0,0.0,0.0,0.0,0.0,0.0,0.0,0.0,0.0,0.0,0.0,0.0,0.0,0.0,0.0,0.0,0.0,0.0,0.0,0.0,0.0,0.0,0.0,0.0,0.0,0.0,0.0,0.0,0.0,0.0,0.0,0.0,0.0,0.0,0.0,0.0,0.0,0.0,0.0,0.0,0.0,0.0,0.0,0.0,0.0,0.0,0.0,0.0,0.0,0.0,0.0,0.0,0.0,0.0,0.0,0.0,0.0,0.0,0.0,0.0,0.0,0.0,0.0,0.0,0.0,0.0,0.0,0.0,0.0,0.0,0.0,0.0,0.0,0.0,0.0,0.0,0.0,0.0,0.0,0.0,0.0,0.0,0.0,0.0,0.0,0.0,0.0,0.0,0.0,0.0,0.0,0.0,0.0,0.0,0.0,0.0,0.0,0.0,0.0,0.0,0.0,0.0,0.0,0.0,0.0,0.0,0.0,0.0,0.0,0.0,0.0,0.0,0.0,0.0,0.0,0.0,0.0,0.0,0.0,0.0,0.0,0.0,0.0,0.0,0.0,0.0,0.0,0.0,0.0,0.0,0.0,0.0,0.0,0.0,0.0,0.0,0.0,0.0,0.0,0.0,0.0,0.0,0.0,0.0,0.0,0.0,0.0,0.0,0.0,0.0,0.0,0.0,0.0,0.0,0.0,0.0,0.0,0.0,0.0,0.0,0.0,0.0,0.0,0.0,0.0,0.0,0.0,0.0,0.0,0.0,0.0,0.0,0.0,0.0,0.0,0.0,0.0,0.0,0.0,0.0,0.0,0.0,0.0,0.0,0.0,0.0,0.0,0.0,0.0,0.0,0.0,0.0,0.0,0.0,0.0,0.0,0.0,0.0,0.0,0.0,0.0,0.0,0.0,0.0,0.0,0.0,0.0,0.0,0.0,0.0,0.0,0.0,0.0,0.0,0.0,0.0,0.0,0.0,0.0,0.0,0.0,0.0,0.0,0.0,0.0,0.0,0.0,0.0,0.0,0.0,0.0,0.0,0.0,0.0,0.0,0.0,0.0,0.0,0.0,0.0,0.0,0.0,0.0,0.0,0.0,0.0,0.0,0.0,0.0,0.0,0.0,0.0,0.0,0.0,0.0,0.0,0.0,0.0,0.0,0.0,0.0,0.0,0.0,0.0,0.0,0.0,0.0,0.0,0.0,0.0,0.0,0.0,0.0,0.0,0.0,0.0,0.0,0.0,0.0,0.0,0.0,0.0,0.0,0.0,0.0,0.0,0.0,0.0,0.0,0.0,0.0,0.0,0.0,0.0,0.0,0.0,0.0,0.0,0.0,0.0,0.0,0.0,0.0,0.0,0.0,0.0,0.0,0.0,0.0,0.0,0.0,0.0,0.0,0.0,0.0,0.0,0.0,0.0,0.0,0.0,0.0,0.0,0.0,0.0,0.0,0.0,0.0,0.0,0.0,0.0,0.0,0.0,0.0,0.0,0.0,0.0,0.0,0.0,0.0,0.0,0.0,0.0,0.0,0.0,0.0,0.0,0.0,0.0,0.0,0.0,0.0,0.0,0.0,0.0,0.0,0.0,0.0,0.0,0.0,0.0,0.0,0.0,0.0,0.0,0.0,0.0,0.0,0.0,0.0,0.0,0.0,0.0,0.0,0.0,0.0,0.0,0.0,0.0,0.0,0.0,0.0,0.0,0.0,0.0,0.0,0.0,0.0,0.0,0.0,0.0,0.0,0.0,0.0,0.0,0.0,0.0,0.0,0.0,0.0,0.0,0.0,0.0,0.0,0.0,0.0,0.0,0.0,0.0,0.0,0.0,0.0,0.0,0.0,0.0,0.0,0.0,0.0,0.0,0.0,0.0,0.0,0.0,0.0,0.0,0.0,0.0,0.0,0.0,0.0,0.0,0.0,0.0,0.0,0.0,0.0,0.0,0.0,0.0,0.0,0.0,0.0,0.0,0.0,0.0,0.0,0.0,0.0,0.0,0.0,0.0,0.0,0.0,0.0,0.0,0.0,0.0,0.0,0.0,0.0,0.0,0.0,0.0,0.0,0.0,0.0,0.0,0.0,0.0,0.0,0.0,0.0,0.0,0.0,0.0,0.0,0.0,0.0,0.0,0.0,0.0,0.0,0.0,0.0,0.0,0.0,0.0,0.0,0.0,0.0,0.0,0.0,0.0,0.0,0.0,0.0,0.0,0.0,0.0,0.0,0.0,0.0,0.0,0.0,0.0,0.0,0.0,0.0,0.0,0.0,0.0,0.0,0.0,0.0,0.0,0.0,0.0,0.0,0.0,0.0,0.0,0.0,0.0,0.0,0.0,0.0,0.0,0.0,0.0,0.0,0.0,0.0,0.0,0.0,0.0,0.0,0.0,0.0,0.0,0.0,0.0,0.0,0.0,0.0,0.0,0.0,0.0,0.0,0.0,0.0,0.0,0.0,0.0,0.0,0.0,0.0,0.0,0.0,0.0,0.0,0.0,0.0,0.0,0.0,0.0,0.0,0.0,0.0,0.0,0.0,0.0,0.0,0.0,0.0,0.0,0.0,0.0,0.0,0.0,0.0,0.0,0.0,0.0,0.0,0.0,0.0,0.0,0.0,0.0,0.0,0.0,0.0,0.0,0.0,0.0,0.0,0.0,0.0,0.0,0.0,0.0,0.0,0.0,0.0,0.0,0.0,0.0,0.0,0.0,0.0,0.0,0.0,0.0,0.0,0.0,0.0,0.0,0.0,0.0,0.0,0.0,0.0,0.0,0.0,0.0,0.0,0.0,0.0,0.0,0.0,0.0,0.0,0.0,0.0,0.0,0.0,0.0,0.0,0.0,0.0,0.0,0.0,0.0,0.0,0.0,0.0,0.0,0.0,0.0,0.0,0.0,0.0,0.0,0.0,0.0,0.0,0.0,0.0,0.0,0.0,0.0,0.0,0.0,0.0,0.0,0.0,0.0,0.0,0.0,0.0,0.0,0.0,0.0,0.0,0.0,0.0,0.0,0.0,0.0,0.0,0.0,0.0,0.0,0.0,0.0,0.0,0.0,0.0,0.0,0.0,0.0,0.0,0.0,0.0,0.0,0.0,0.0,0.0,0.0,0.0,0.0,0.0,0.0,0.0,0.0,0.0,0.0,0.0,0.0,0.0,0.0,0.0,0.0,0.0,0.0,0.0,0.0,1.6393,1.6005,0.0,0.0,0.0,0.0,0.0,0.0,0.0,0.0,0.0,0.0,0.0,0.0,0.0,0.0,0.0,0.0,0.0,0.0,0.0,0.0,0.0,0.0,0.0,0.0,0.0,0.0,0.0,0.0,0.0,0.0,0.0,0.0,0.0,0.0,0.0,0.0,0.0,0.4152,0.4225,0.5114,0.6772,0.7358,0.8172,0.9143,0.0,0.0,0.0,0.0,0.0,0.0,0.0,0.0,0.0,0.0,0.0,0.0,0.0,0.0,0.0,0.0,0.0,0.0,0.0,0.0,0.0,0.0,0.0,0.0,0.0,0.0,0.0,0.0,0.0,0.0,0.0,0.0,0.0,0.0,0.0,0.0,0.0,0.0,0.0,0.0,0.0,0.0,0.0,0.0,0.0,0.0,0.0,0.0,0.0,0.0,0.0,0.0,0.0,0.0,0.0,0.0,0.0,0.0,0.0,0.0,0.0,0.0,0.0,0.0,0.0,0.0,0.0,0.0,0.0,0.0,1.8116,1.7128,0.0,0.0,0.0,0.0,0.0,0.0,0.0,0.0,0.0,0.0,0.0,0.0,0.0,0.0,0.0,0.0,0.0,0.0,0.0,0.0,0.0,0.0,0.0,0.2119,0.246,0.3114,0.3128,0.3211,0.0,0.0,0.0,0.0,0.0,0.0,0.2194,0.2194,0.2739,0.3841,0.4236,0.5657,0.8119,0.9,0.9437,0.94,1.0067,0.0,0.0,0.0,0.0,0.0,0.0,0.0,0.0,0.0,0.0,0.0,0.0,0.0,0.0,0.0,0.0,0.0,0.0,0.0,0.0,0.0,0.0,0.0,0.0,0.0,0.0,0.0,0.0,0.0,0.0,0.0,0.0,0.0,0.0,0.0,0.0,0.0,0.0,0.0,0.0,0.0,0.0,0.0,0.0,0.0,0.0,0.0,0.0,0.0,0.0,0.0,0.0,0.0,0.0,0.0,0.0,0.0,0.0,0.0,0.0,0.0,0.0,0.0,2.1336,2.1764,2.2111,2.2739,2.2779,2.2311,2.0788,1.9239,1.7836,1.8023,0.0,0.0,0.0,0.0,0.0,0.0,0.0,0.0,0.0,0.0,0.0,0.0,0.0,0.0,0.0,0.0,0.0,0.0,0.0,0.0,0.0,0.181,0.231,0.2571,0.2433,0.2683,0.3516,0.0,0.0,0.0,0.0,0.0,0.2213,0.2213,0.2798,0.3972,0.5914,0.725,0.8054,0.915,0.9653,0.9689,1.0869,1.2118,1.324,0.0,0.0,0.0,0.0,0.0,0.0,0.0,0.0,0.0,0.0,0.0,0.0,0.0,0.0,0.0,0.0,0.0,0.0,0.0,0.0,0.0,0.0,0.0,0.0,0.0,0.0,0.0,0.0,0.0,0.0,0.0,0.0,0.0,0.0,0.0,0.0,0.0,0.0,0.0,0.0,0.0,1.6147,1.6147,0.0,0.0,0.0,0.0,0.0,0.0,0.0,0.0,0.0,0.0,0.0,0.0,0.0,2.0815,2.183,2.2739,2.31,2.2939,2.4516,2.4903,2.4262,2.5104,2.5527,2.5434,2.5206,0.0,2.012,1.8918,0.0,0.0,0.0,0.0,0.0,0.0,0.0,0.0,0.0,0.0,0.0,0.0,0.0,0.0,0.0,0.0,0.0,0.0,0.0,0.0,0.0,0.0152,0.0822,0.2049,0.2677,0.3097,0.3424,0.3156,0.0,0.0,0.0,0.0963,0.0965,0.0968,0.1978,0.4012,0.6478,0.8039,0.8764,0.9307,1.0027,1.0857,1.2152,1.2697,1.2637,1.2622,0.0,0.0,0.0,0.0,0.0,0.0,0.0,0.0,0.0,0.0,0.0,0.0,0.0,0.0,0.0,0.0,0.0,0.0,0.0,0.0,0.0,0.0,0.0,0.0,0.0,0.0,0.0,0.0,0.0,0.0,0.0,0.0,0.0,0.0,0.0,0.0,0.0,0.0,0.0,1.6393,1.6887,1.5899,1.6887,1.7168,0.0,0.0,0.0,0.0,0.0,0.0,0.0,0.0,0.0,2.175,2.2672,2.3394,2.3915,2.4957,2.5585,2.5798,2.6907,2.7415,2.7375,2.7762,2.7936,2.7923,2.7589,2.6373,2.4476,2.2512,2.1189,2.0347,0.0,0.0,0.0,0.0,2.0681,2.0762,0.0,0.0,0.0,0.0,0.0,0.0,0.0,0.0,0.0,0.0,0.0,0.0,-0.1372,-0.1051,-0.0144,0.1584,0.2591,0.3254,0.3471,0.349,0.285,0.1485,0.0729,0.0243,0.0,0.0487,0.1937,0.4485,0.6796,0.8426,0.9374,0.949,1.0097,1.1218,1.2538,1.2964,1.2688,1.351,1.3494,1.2812,0.0,0.0,0.0,0.0,0.0,0.0,0.0,0.0,0.0,0.0,0.0,0.0,0.0,0.0,0.0,0.0,0.0,0.0,0.0,0.0,0.0,0.0,0.0,0.0,0.0,0.0,0.0,0.0,0.0,0.0,0.0,0.0,0.0,0.0,0.0,0.0,0.0,1.7235,1.7675,1.6139,1.7662,1.8129,0.0,0.0,0.0,0.0,0.0,0.0,2.151,2.2619,2.3621,2.4529,2.5558,2.6266,2.6653,2.7509,2.8203,2.8724,2.9179,2.9579,2.9927,2.9927,2.9887,2.9793,2.9352,2.8871,2.8177,2.5598,2.3754,2.2539,2.2298,2.2071,2.2084,2.2739,2.2899,2.2939,0.0,0.0,0.0,0.0,0.0,0.0,0.0,0.0,0.0,0.0,0.0,-0.1376,-0.2065,-0.0907,0.0285,0.1174,0.1658,0.2491,0.3948,0.3475,0.2716,0.1803,0.1426,0.0854,0.0034,0.1744,0.3662,0.5727,0.7045,0.8329,0.961,0.9617,0.963,0.9749,1.1251,1.2907,1.4705,1.537,1.5158,1.4292,1.3467,0.0,0.0,0.0,0.0,0.0,0.0,0.0,0.0,0.0,0.0,0.0,0.0,0.0,0.0,0.0,0.0,0.0,0.0,0.0,0.0,0.0,0.0,0.0,0.0,0.0,0.0,0.0,0.0,0.0,0.0,0.0,0.0,0.0,0.0,0.0,0.0,0.0,0.0,1.7582,1.9533,0.0,0.0,0.0,0.0,2.0869,2.1991,2.3046,2.3981,2.4877,2.6132,2.7926,2.8511,2.9513,3.0902,3.0969,3.1156,3.1463,3.1503,3.1383,3.1142,3.1142,3.0982,3.0728,3.0688,3.0515,2.998,2.676,2.5398,2.5211,2.4088,2.3981,2.4462,2.4429,2.469,2.493,0.0,0.0,0.0,0.0,0.0,0.0,0.0,0.0,-0.2369,-0.2841,-0.2271,-0.1918,-0.2161,-0.1304,-0.0096,0.1436,0.2315,0.3363,0.4845,0.3875,0.278,0.1703,0.0907,0.0518,0.0638,0.263,0.4391,0.6003,0.7413,0.8829,1.0039,1.0039,1.0039,1.0101,1.168,1.2672,1.3221,1.447,1.4826,1.436,1.3736,1.3467,0.0,0.0,0.0,0.0,0.0,0.0,0.0,0.0,0.0,0.0,0.0,0.0,0.0,0.0,0.0,0.0,0.0,0.0,0.0,0.0,0.0,0.0,0.0,0.0,0.0,0.0,0.0,0.0,0.0,0.0,0.0,0.0,0.0,0.0,0.0,0.0,0.0,2.0454,2.2338,0.0,2.1309,2.1804,2.2539,2.3313,2.4636,2.5972,2.7241,2.8323,2.9366,3.0381,3.0621,3.0982,3.1503,3.1704,3.1837,3.1944,3.2144,3.2171,3.2064,3.1877,3.173,3.1623,3.1436,3.1303,3.1116,2.9953,2.8804,2.7722,2.7121,2.6894,2.6934,2.7321,2.7535,2.7655,0.0,0.0,0.0,0.0,0.0,0.0,0.0,0.0,-0.317,-0.3672,-0.2845,-0.2209,-0.2231,-0.1333,-0.0054,0.1704,0.262,0.3749,0.5306,0.4238,0.3178,0.2319,0.1039,0.0633,0.1334,0.2926,0.4641,0.6473,0.7573,0.8827,1.0351,1.0405,1.0426,1.0497,1.163,1.2059,1.2097,1.3422,1.4234,1.4616,1.474,1.4763,1.4539,0.0,0.0,0.0,0.0,0.0,0.0,0.0,0.0,0.0,0.0,0.0,0.0,0.0,0.0,0.0,0.0,0.0,0.0,0.0,0.0,0.0,0.0,0.0,0.0,0.0,0.0,0.0,0.0,0.0,0.0,0.0,0.0,0.0,0.0,2.1483,2.3033,2.3033,2.485,2.5611,2.4329,2.4836,2.5585,2.636,2.7682,2.8925,3.0007,3.0996,3.1704,3.2104,3.2305,3.2372,3.2251,3.2652,3.2799,3.2706,3.2906,3.2946,3.2839,3.2532,3.2345,3.2238,3.2051,3.1971,3.1971,3.1971,3.1276,3.0181,2.9793,2.9513,2.9379,2.978,2.9927,2.994,0.0,0.0,0.0,0.0,0.0,0.0,0.0,-0.4491,-0.4529,-0.459,-0.3201,-0.2218,-0.2294,-0.094,0.0529,0.1783,0.2389,0.3458,0.5356,0.4509,0.3786,0.355,0.188,0.1315,0.203,0.2701,0.4432,0.734,0.7382,0.8481,1.0514,1.0663,1.0738,1.0738,1.082,1.121,1.171,1.2442,1.3597,1.5064,1.6521,1.656,1.5718,0.0,0.0,0.0,0.0,0.0,0.0,0.0,0.0,0.0,0.0,0.0,0.0,0.0,0.0,0.0,0.0,0.0,0.0,0.0,0.0,0.0,0.0,0.0,0.0,0.0,0.0,0.0,0.0,0.0,0.0,0.0,0.0,0.0,2.0948,2.35,2.5184,2.5237,2.7109,2.7923,2.7068,2.8297,2.9392,2.9967,3.1089,3.1864,3.2144,3.2706,3.3026,3.3026,3.3587,3.3748,3.344,3.4028,3.4175,3.3895,3.3895,3.3748,3.3467,3.316,3.2866,3.2696,3.2696,3.2696,3.2683,3.2683,3.2585,3.2616,3.1931,3.169,3.169,3.169,3.1677,3.161,0.0,0.0,0.0,0.0,0.0,0.0,0.0,-0.4491,-0.4529,-0.459,-0.3188,-0.2206,-0.2292,-0.0939,0.0501,0.1817,0.1917,0.2616,0.4371,0.3072,0.2116,0.1779,0.0873,0.1127,0.2835,0.3498,0.5117,0.7612,0.7641,0.8777,1.0982,1.1023,1.1043,1.1043,1.1084,1.1221,1.1446,1.2871,1.3621,1.3806,1.453,1.4665,1.4522,0.0,0.0,0.0,0.0,0.0,0.0,0.0,0.0,0.0,0.0,0.0,0.0,0.0,0.0,0.0,0.0,0.0,0.0,0.0,0.0,0.0,0.0,0.0,0.0,0.0,0.0,0.0,0.0,0.0,0.0,0.0,2.044,2.2559,2.2827,2.5218,2.7455,2.8751,2.9967,3.0688,3.0648,3.1209,3.1744,3.2104,3.2853,3.3307,3.3387,3.3748,3.3948,3.3948,3.4108,3.4162,3.4068,3.4242,3.4282,3.4202,3.4202,3.4162,3.4082,3.3988,3.3908,3.3828,3.3828,3.3708,3.3521,3.3521,3.3387,3.312,3.2532,3.2305,3.2278,3.2064,3.1717,3.133,0.0,0.0,0.0,0.0,0.0,0.0,0.0,-0.4491,-0.4414,-0.4117,-0.2979,-0.2103,-0.1845,-0.054,0.0752,0.1705,0.1698,0.2272,0.3693,0.2746,0.1831,0.1173,0.1297,0.2198,0.3948,0.4637,0.6159,0.8491,0.8491,0.9423,1.1165,1.1294,1.1355,1.1362,1.1484,1.1504,1.1514,1.2559,1.2804,1.2658,1.3204,1.4061,1.5066,1.4712,1.5458,1.6782,1.6773,1.7838,1.9197,1.876,0.0,0.0,0.0,0.0,0.0,0.0,0.0,0.0,0.0,0.0,0.0,0.0,0.0,0.0,0.0,0.0,0.0,0.0,0.0,0.0,0.0,0.0,0.0,0.0,2.3019,2.5437,2.6425,2.8173,2.9927,3.145,3.2211,3.2706,3.3,3.3187,3.336,3.3521,3.3988,3.4202,3.4082,3.4469,3.4576,3.4322,3.4563,3.4563,3.4322,3.4563,3.4629,3.4509,3.4509,3.4509,3.4496,3.4376,3.4322,3.4322,3.4322,3.4229,3.4068,3.4068,3.3961,3.3734,0.0,0.0,0.0,0.0,3.2278,3.1784,0.0,0.0,0.0,0.0,0.0,0.0,0.0,-0.4491,-0.4278,-0.3612,-0.2755,-0.1949,-0.129,0.0,0.1084,0.1554,0.1718,0.2186,0.3146,0.2824,0.2194,0.1356,0.2562,0.3794,0.5063,0.5762,0.729,0.9625,0.9625,1.0195,1.1343,1.1545,1.1681,1.1708,1.1972,1.202,1.1904,1.1925,1.185,1.1794,1.2453,1.4058,1.6029,1.5258,1.6134,1.7733,1.7828,1.8469,1.9271,1.9567,0.0,0.0,0.0,0.0,0.0,0.0,0.0,0.0,0.0,0.0,0.0,0.0,0.0,0.0,0.0,0.0,0.0,0.0,0.0,0.0,0.0,0.0,0.0,0.0,2.5348,2.8282,3.0899,3.1699,3.2385,3.34,3.3761,3.4055,3.4349,3.4376,3.4389,3.4416,3.467,3.4696,3.4429,3.491,0.0,0.0,0.0,3.495,3.4429,3.4937,3.507,3.4817,3.4817,3.4817,3.4803,3.4536,3.4416,3.4416,3.4416,3.4402,3.4376,3.4376,3.4349,3.4269,3.3721,3.3467,3.3414,3.3414,3.3026,3.2505,0.0,0.0,0.0,0.0,0.0,0.0,0.0,-0.4491,-0.4459,-0.4309,-0.3073,-0.2022,-0.1568,-0.0224,0.0924,0.1525,0.1543,0.1676,0.2136,0.1065,0.0855,0.1934,0.2913,0.3952,0.5075,0.5933,0.7522,1.0021,1.0021,1.0663,1.1964,1.1952,1.204,1.2162,1.2216,1.2291,1.2379,1.2501,1.2467,1.2338,1.2615,1.2896,1.3364,1.4898,1.5512,1.5755,1.6692,1.8046,1.9216,1.8096,1.8619,1.964,1.9118,1.8568,0.0,0.0,0.0,0.0,0.0,0.0,0.0,0.0,0.0,0.0,0.0,0.0,0.0,0.0,0.0,0.0,0.0,0.0,0.0,2.5259,2.8975,3.2247,3.3475,3.3917,3.4162,3.4148,3.4202,3.4349,3.4643,3.4683,3.4776,3.5004,3.5084,3.5084,3.503,3.5137,3.5151,3.503,3.5137,3.5137,3.503,3.5137,3.5164,3.511,3.511,0.0,3.511,3.5057,3.503,3.503,3.503,3.4897,3.467,3.467,3.4536,3.4309,3.4189,3.3841,3.3414,3.3414,3.2893,3.2225,0.0,0.0,0.0,0.0,0.0,0.0,0.0,-0.3932,-0.3776,-0.3391,-0.2374,-0.1586,-0.1366,-0.0501,0.0205,0.0498,0.0,0.0,0.0815,0.0503,0.1092,0.2795,0.4261,0.5564,0.6761,0.7801,0.9308,1.1232,1.1232,1.1609,1.2284,1.2284,1.2366,1.2515,1.2589,1.2705,1.2847,1.3003,1.3024,1.2956,1.3037,1.2958,1.3108,1.4602,1.5621,1.6351,1.7026,1.8413,1.9809,1.8667,1.9188,2.012,1.9278,1.9198,1.9309,0.0,0.0,0.0,0.0,0.0,0.0,0.0,0.0,0.0,0.0,0.0,0.0,0.0,0.0,2.1632,2.2683,0.0,2.8413,2.9365,3.1807,3.3908,3.4656,3.4883,3.4923,3.4776,3.4763,3.4817,3.4963,3.4977,3.5044,3.5191,3.5191,3.5191,3.5191,3.5338,3.5351,3.5204,3.5338,3.5351,3.5191,3.5191,3.5191,3.5191,3.5191,3.5191,3.5191,3.5191,3.5191,3.5191,3.5191,3.511,3.4977,3.4977,3.4897,3.4763,3.4763,3.4309,3.3654,3.3654,3.3093,3.2372,0.0,0.0,0.0,0.0,0.0,0.0,0.0,-0.3123,-0.2888,-0.2262,-0.1672,-0.123,-0.1001,-0.0655,-0.0486,-0.064,-0.1607,-0.158,-0.0104,0.0522,0.1656,0.3393,0.5454,0.7052,0.8178,0.9628,1.0963,1.2332,1.2359,1.2447,1.2589,1.2589,1.2684,1.2868,1.3024,1.3186,1.3363,1.3539,1.36,1.3573,1.3573,1.3559,1.3624,1.4578,1.5802,1.7123,1.7703,1.8871,2.0081,1.9785,2.0157,2.0535,1.9693,2.015,2.0715,1.9034,1.9969,0.0,0.0,0.0,0.0,0.0,0.0,0.0,0.0,1.8728,1.9173,2.131,2.2361,2.3641,2.644,2.8574,3.069,3.2786,3.3868,3.4656,3.5124,3.5191,3.5217,3.5271,3.5231,3.5191,3.5191,3.5191,3.5191,3.5191,3.5191,3.5217,3.5271,3.5444,3.5458,3.5284,3.5511,3.5485,3.5204,3.5257,3.5244,3.5191,3.5191,3.5191,3.5191,3.5191,3.5191,3.5191,3.5191,3.5191,3.5191,3.5191,3.5191,3.5191,3.5191,3.4736,3.4055,3.3988,3.344,3.2746,0.0,0.0,0.0,0.0,0.0,0.0,0.0,0.0,-0.2286,-0.22,-0.2143,-0.1682,-0.0593,-0.0466,-0.0598,-0.0833,-0.1955,-0.1722,0.0441,0.0861,0.175,0.3395,0.551,0.6849,0.7377,0.9445,1.1103,1.2481,1.2617,1.2759,1.2908,1.2908,1.3057,1.3329,1.3485,1.3709,1.3987,1.4272,1.4312,1.4197,1.4197,1.4116,1.4119,1.5285,1.5593,1.5665,1.7891,1.853,1.8613,2.0112,2.0643,2.0748,2.1199,2.0859,2.0112,1.9128,1.8373,1.7723,1.7354,1.7723,1.821,1.7894,1.8143,1.8868,0.0,2.0586,2.0935,2.2131,2.3353,2.4894,2.7051,2.9048,3.0998,3.3081,3.4336,3.5124,3.5191,3.5191,3.5297,3.5551,3.5351,3.5191,3.5191,3.5191,3.5191,3.5191,3.5191,3.5311,3.5565,3.5364,3.5351,3.5578,3.5605,3.5485,3.5204,3.5458,3.5458,3.5191,3.5191,3.5191,3.5191,3.5191,3.5191,3.5191,3.5191,3.5191,3.5191,3.5191,3.5191,3.5191,3.5191,3.4977,3.4629,3.4376,3.3868,3.332,0.0,0.0,0.0,0.0,0.0,0.0,0.0,0.0,0.0,-0.1566,-0.1174,-0.0892,-0.0807,-0.0918,-0.1446,-0.261,-0.2744,-0.1954,0.0,0.0615,0.2248,0.5214,0.6849,0.8211,0.9147,1.0874,1.2141,1.2766,1.2915,1.3064,1.3214,1.3125,1.3247,1.3539,1.3688,1.3919,1.4224,1.4523,1.4611,1.4557,1.4557,1.4682,1.5111,1.6465,1.6684,1.6348,1.7402,1.8295,0.0,1.9426,2.0042,2.0775,2.1427,2.0949,2.0094,1.9386,1.9106,1.8974,1.881,1.8775,1.8778,1.8541,1.9472,2.062,2.1556,2.1742,2.2233,2.424,2.5036,2.6037,2.7835,2.996,3.1413,3.1463,3.3587,3.4874,3.3803,3.4413,3.4923,3.487,3.491,3.5151,3.5658,3.5551,3.5444,3.5444,3.5284,3.5324,3.5618,3.5685,3.5765,3.5885,3.5885,3.5738,3.5458,3.5404,3.5311,3.5191,3.5191,3.5191,3.5191,3.5191,3.5191,3.5191,3.5191,3.5191,3.5191,3.5191,3.5191,3.5191,3.5191,3.5124,3.4977,3.4683,3.4095,3.3454,0.0,0.0,0.0,0.0,0.0,0.0,0.0,0.0,0.0,0.0,-0.0515,-0.0495,-0.1057,-0.1234,-0.1837,-0.3201,-0.2756,-0.1792,-0.0419,0.0959,0.3078,0.6144,0.8039,0.9462,1.0497,1.2011,1.2868,1.3097,1.3166,1.3295,1.3397,1.3288,1.3397,1.3695,1.3885,1.4136,1.4441,1.474,1.4841,1.4794,1.4713,1.5184,1.6009,1.6916,1.7377,1.7586,1.7812,1.8324,1.8938,1.8874,1.9309,1.996,2.077,2.0508,1.9907,1.9492,1.9403,1.9362,1.9277,1.9148,1.9128,1.917,2.0619,2.2031,2.2423,2.2576,2.3219,2.5096,2.561,2.6203,2.7846,2.9641,3.087,3.0669,3.2786,3.4201,3.3371,3.4007,3.4442,3.4229,3.4242,3.4616,3.5498,3.5538,3.5511,3.5511,3.5391,3.5444,3.5738,3.5952,3.6112,3.6193,3.6193,3.6046,3.5752,3.5618,3.5511,3.5431,3.5351,3.5311,3.5311,3.5231,3.5191,3.5191,3.5191,3.5191,3.5191,3.5191,3.5191,3.5191,3.5191,3.5191,3.5177,3.4963,3.4376,3.3708,0.0,0.0,0.0,0.0,0.0,0.0,0.0,0.0,0.0,0.0,0.0,0.0,0.0,-0.121,-0.1389,-0.1634,-0.1475,-0.1077,-0.0462,0.2169,0.4198,0.5266,0.8401,1.0243,1.0624,1.2159,1.3024,1.3166,1.3315,1.3397,1.3403,1.3397,1.3553,1.3844,1.415,1.4448,1.4746,1.5045,1.5086,1.4936,1.4638,1.5381,1.6615,1.6179,1.7287,1.9005,1.9752,1.8641,1.7065,1.8795,1.8624,1.7876,1.9122,1.947,1.9444,1.943,1.8286,1.7209,1.7577,1.7976,1.8505,1.9785,2.1211,2.2464,2.2614,2.3096,2.3616,2.3956,2.4355,2.5127,2.6586,2.7238,2.8661,3.1725,3.2437,3.3172,3.4503,3.4282,3.3908,3.3895,3.3387,3.3387,3.4282,3.4883,3.5204,3.5204,3.5458,3.5738,3.6046,3.6072,3.6206,3.6473,3.65,3.6353,3.6059,3.6326,3.6326,3.6046,3.5752,3.5618,3.5605,3.5324,3.5191,3.5191,3.5191,3.5191,3.5191,3.5191,3.5191,3.5191,3.5191,3.5191,3.5191,3.5191,3.4803,3.4255,0.0,0.0,0.0,0.0,0.0,0.0,0.0,0.0,0.0,0.0,0.0,0.0,0.0,0.0,0.0,0.0,-0.082,-0.0379,-0.0281,0.1191,0.2847,0.4589,0.5641,0.672,0.7761,0.9728,1.0741,1.0782,1.2379,1.3159,1.3247,1.3247,1.3458,1.3759,1.3946,1.4217,1.459,1.4597,1.4624,1.4708,1.5329,1.6137,1.7025,1.7822,1.82,1.8304,0.0,1.8086,1.7313,1.7556,1.7462,1.7487,1.8223,1.821,1.7847,1.7229,1.6843,1.6718,1.7548,1.9012,2.0321,2.1006,2.2249,2.3269,2.3681,2.4013,2.4557,2.5536,2.5176,2.5165,2.6372,2.7636,2.8631,2.8987,3.1647,3.359,3.3157,3.385,3.4108,3.312,3.3173,3.3173,3.2879,3.3748,3.4576,3.5151,3.5284,3.5551,3.6046,3.6259,3.65,3.6794,3.6607,3.6473,3.6366,3.6273,3.6166,3.6072,3.5979,3.5819,3.5631,3.5525,3.5378,3.5191,3.5191,3.5191,3.5191,3.5191,3.5191,3.5191,3.5191,3.5191,3.5191,3.5191,3.495,3.4563,0.0,0.0,0.0,0.0,0.0,0.0,0.0,0.0,0.0,0.0,0.0,0.0,0.0,0.0,0.0,0.0,0.0,0.0543,0.0765,0.1658,0.2826,0.4226,0.4642,0.5285,0.6297,0.7757,0.8765,0.9255,1.0473,1.1593,1.2542,1.2331,1.2582,1.3288,1.3342,1.3587,1.3953,1.3858,1.3783,1.3837,1.4804,1.5709,1.6545,1.7467,1.7781,0.0,1.7502,1.7208,1.6901,1.6513,1.6526,1.6754,1.7248,1.7134,1.685,1.671,1.6501,1.6708,1.8621,2.0079,2.1365,2.3179,2.424,2.5101,2.6094,2.6271,2.6362,2.69,2.6009,2.5237,2.5717,2.6422,2.7027,2.7352,2.997,3.2077,3.2456,3.3222,3.3534,3.2786,3.2853,3.2826,3.2452,3.3106,3.3935,3.4817,3.5271,3.5672,3.6046,3.6433,3.6754,3.6941,3.6754,3.6647,3.6647,3.6473,3.6326,3.6233,3.6233,3.6019,3.5631,3.5631,3.5471,3.5191,3.5191,3.5191,3.5191,3.5191,3.5191,3.5191,3.5191,3.5191,3.5191,3.5084,3.4923,3.471,0.0,0.0,0.0,0.0,0.0,0.0,0.0,0.0,0.0,0.0,0.0,0.0,0.0,0.0,0.0,0.0,0.0,0.0,0.2428,0.3402,0.4002,0.4116,0.51,0.578,0.6112,0.6337,0.7145,0.8551,0.8013,0.8968,1.1307,1.0653,1.1007,1.2196,1.2325,1.2556,1.2847,1.2834,1.2667,1.2395,1.3058,1.4137,1.5385,1.5304,1.6272,1.7422,1.658,1.6072,1.5771,1.5811,1.5843,1.5914,1.6232,1.632,1.6493,1.7664,1.7256,1.7197,2.0544,2.1115,2.1835,2.5809,2.7091,2.7835,2.9518,2.9486,2.8882,2.7951,2.6591,2.5302,2.461,2.3785,2.413,2.7133,2.7829,2.9218,3.2656,3.2612,3.2438,3.2946,3.2519,3.2398,3.2933,3.3013,3.3387,3.4282,3.5391,3.6046,3.6086,3.662,3.6941,3.6941,3.6941,3.6941,3.6941,3.6941,3.6794,3.654,3.654,3.6233,3.5672,3.5672,3.5511,3.5217,3.5217,3.5204,3.5191,3.5191,3.5191,3.5191,3.5085,3.5085,3.5164,3.4765,3.4763,3.4723,0.0,0.0,0.0,0.0,0.0,0.0,0.0,0.0,0.0,0.0,0.0,0.0,0.0,0.0,0.0,0.0,0.0,0.0,0.2265,0.2655,0.2887,0.2944,0.3292,0.3531,0.3636,0.5289,0.6331,0.6661,0.8241,0.9348,1.0066,0.9996,1.0234,1.0792,1.0833,1.1009,1.128,1.1056,1.1629,1.2694,1.3696,1.4948,1.626,1.6784,1.6951,1.6874,1.6433,1.5939,1.5605,1.6259,1.6677,1.6967,1.6623,1.6323,1.6335,1.7328,1.8055,1.889,2.063,2.313,2.5573,2.6962,2.8295,2.9287,2.9108,2.8598,2.7912,2.6967,2.5457,2.4244,2.4034,2.5003,2.6441,2.8321,3.0488,3.2597,3.4339,3.4496,3.4135,3.3387,3.3374,3.3307,3.3013,3.3387,3.3935,3.4589,3.5124,3.5712,3.6366,3.6754,3.6941,3.6941,3.6941,3.6941,3.6941,3.6941,3.6901,3.6834,3.6834,3.6647,3.6286,3.6286,3.6006,3.5511,3.5511,3.5391,3.5191,3.5191,3.5191,3.5085,3.3803,3.4015,3.5058,3.3482,3.3706,3.4696,0.0,0.0,0.0,0.0,0.0,0.0,0.0,0.0,0.0,0.0,0.0,0.0,0.0,0.0,0.0,0.0,0.0,0.0,0.0,0.3112,0.2997,0.3064,0.2778,0.2647,0.2698,0.3903,0.4836,0.5415,0.6425,0.7541,0.873,0.8497,0.8799,0.9496,0.9557,0.972,0.993,0.9761,1.0419,0.0,0.0,1.4022,1.5252,1.6266,1.65,1.6299,1.6139,1.6208,1.6386,1.6148,1.6656,1.7421,1.7697,1.7426,1.7505,1.9824,2.0211,2.0649,2.3809,2.5913,2.7579,2.946,3.0277,3.0549,2.9903,2.9031,2.7867,2.5991,2.4478,2.327,2.2735,2.4075,2.5852,2.7589,3.0127,3.2519,3.4362,3.4616,3.4469,3.4055,3.4282,3.4322,3.3988,3.4376,3.4897,3.5485,3.5565,3.5859,3.6473,3.6794,3.6941,3.6941,3.6941,3.6941,3.6941,3.6941,3.6941,3.6941,3.6941,3.6794,3.65,3.65,3.6259,3.5819,3.5819,3.5658,3.5272,3.4634,3.4238,3.3909,3.2197,3.2091,3.2904,3.2418,3.278,3.3447,0.0,0.0,0.0,0.0,0.0,0.0,0.0,0.0,0.0,0.0,0.0,0.0,0.0,0.0,0.0,0.0,0.0,0.0,0.0,0.0,0.381,0.3904,0.3218,0.2897,0.3034,0.3056,0.365,0.4811,0.4268,0.5145,0.74,0.6816,0.7168,0.8255,0.8404,0.856,0.8642,0.8804,0.9444,1.0408,1.1615,1.2684,1.3728,0.0,1.5591,1.5731,1.5771,1.648,1.7291,1.6316,1.6859,1.8031,1.9032,1.9284,1.9891,2.3544,2.3323,2.3003,2.808,2.889,2.8943,3.2048,3.2325,3.168,3.1046,2.9766,2.7816,2.4743,2.3233,2.2111,2.0975,2.2098,2.3955,2.6253,2.8537,3.1009,3.3788,3.4135,3.4309,3.4817,3.5137,3.5311,3.5311,3.5538,3.5912,3.6473,3.6273,3.6259,3.654,3.6794,3.6941,3.6941,3.6941,3.6941,3.6941,3.6941,3.6941,3.6941,3.6941,3.6794,3.658,3.658,3.6393,3.6126,3.6126,3.5965,3.5578,3.3797,3.2895,3.2459,3.0274,2.9619,3.0121,3.1246,3.1622,3.1871,0.0,0.0,0.0,0.0,0.0,0.0,0.0,0.0,0.0,0.0,0.3984,0.4491,0.0,0.0,0.0,0.0,0.0,0.0,0.0,0.0,0.0,0.4528,0.4597,0.4675,0.4685,0.4944,0.523,0.5457,0.5431,0.5733,0.6269,0.6324,0.6604,0.7014,0.717,0.7274,0.7494,0.8459,0.9683,1.1059,1.2411,1.3686,1.4812,1.5471,0.0,0.0,1.5738,1.5882,1.6344,1.896,1.9985,2.014,2.0285,2.1951,2.4072,2.5243,2.6743,2.8217,2.9493,3.0879,3.2036,3.2509,3.2851,3.2458,2.997,2.8083,2.5812,2.2124,2.0815,2.0054,1.9118,2.0935,2.3728,2.735,2.9419,3.1824,3.5217,3.5485,3.5364,3.5471,3.5738,3.5925,3.5925,3.5965,3.6139,3.6473,3.6473,3.654,3.6834,3.6901,3.6941,3.6941,3.6941,3.6941,3.6941,3.6941,3.6941,3.6941,3.6941,3.6901,3.6861,3.6861,3.6714,3.6433,3.6433,3.6273,3.5871,3.3886,3.3115,3.261,2.8155,2.7876,2.9907,2.8879,2.9909,3.1871,0.0,0.0,0.0,0.0,0.0,0.0,0.0,0.2352,0.2165,0.2673,0.3494,0.4314,0.5088,0.5088,0.0,0.0,0.0,0.0,0.0,0.0,0.0,0.0,0.4904,0.5022,0.5096,0.5352,0.5501,0.5501,0.0,0.5691,0.5915,0.5989,0.6485,0.727,0.6957,0.7471,0.8556,0.8801,0.9979,1.1794,1.2671,1.381,1.5062,0.0,0.0,0.0,1.4994,1.554,1.661,1.7702,1.9702,2.198,2.349,2.5302,2.7092,2.8529,2.9308,3.0025,3.2246,3.292,3.3172,3.3761,3.3114,3.1436,2.8177,2.5825,2.3273,1.9658,1.8731,1.8464,1.7956,2.008,2.2766,2.5237,2.7629,3.0314,3.3547,3.4148,3.4589,3.5525,3.6019,3.6299,3.6299,3.6433,3.658,3.6727,3.6727,3.6794,3.6941,3.6941,3.6941,3.6941,3.6941,3.6941,3.6941,3.6941,3.6941,3.6941,3.6941,3.6941,3.6941,3.6941,3.6861,3.6727,3.6727,3.5992,3.4721,3.2798,3.1301,2.9957,2.6572,2.6698,2.8737,2.8927,3.0142,3.1896,0.0,0.0,0.0,0.0,0.0,0.0,0.0,0.2045,0.1686,0.1962,0.2909,0.4094,0.5624,0.5659,0.5561,0.0,0.0,0.0,0.0,0.0,0.0,0.0,0.0,0.0,0.5049,0.0,0.0,0.5392,0.5392,0.0,0.0,0.0,0.0,0.0,0.7225,0.7942,0.9548,0.9341,1.0264,0.0,0.0,1.3837,0.0,0.0,0.0,0.0,0.0,1.5457,1.6887,1.6533,1.8981,2.274,2.5689,2.7522,2.8949,3.0782,3.1012,3.1312,3.4608,3.4604,3.379,3.4715,3.2959,3.01,2.6493,2.3794,2.1082,1.7715,1.7192,1.7326,1.7219,1.9202,2.1376,2.314,2.5464,2.823,3.1623,3.2666,3.3734,3.5511,3.6246,3.6607,3.6607,3.6794,3.6967,3.7008,3.7048,3.7008,3.6941,3.6941,3.6941,3.6941,3.6941,3.6941,3.6941,3.6941,3.6941,3.6941,3.6941,3.6941,3.6941,3.6941,3.6941,3.6941,3.6941,3.6021,3.4231,3.1907,2.992,2.8201,2.5513,2.5742,2.767,2.9071,3.047,3.1908,0.0,0.0,0.0,0.0,0.0,0.0,0.0,0.093,0.0474,0.1263,0.2522,0.3949,0.5545,0.5748,0.5704,0.0,0.0,0.0,0.0,0.0,0.0,0.0,0.0,0.0,0.0,0.0,0.0,0.5392,0.5392,0.0,0.0,0.0,0.0,0.0,0.0,0.8138,0.8624,0.9788,0.0,0.0,0.0,0.0,0.0,0.0,0.0,0.0,0.0,1.5774,1.6279,1.863,2.0086,2.1346,2.3996,2.6812,2.909,2.926,3.1285,3.3739,3.4899,3.5325,3.5152,3.4282,3.2211,2.9446,2.5625,2.2726,1.9987,1.7018,1.6429,1.6603,1.7112,1.7822,1.9546,2.3153,2.4396,2.66,3.1423,3.2853,3.4055,3.5819,3.654,3.6901,3.6901,3.6941,3.7048,3.7315,3.7342,3.7235,3.6941,3.6941,3.6941,3.6941,3.6941,3.6941,3.6941,3.6941,3.6941,3.6941,3.6941,3.6941,3.6941,3.6941,3.6941,3.6941,3.6941,3.6817,3.6281,3.243,3.079,3.0151,2.5233,2.4972,2.7562,2.8177,2.98,3.1908,0.0,0.0,0.0,0.0,0.0,0.0,0.1879,0.109,0.0528,0.0527,0.1867,0.3173,0.4142,0.5583,0.6567,0.6815,0.0,0.0,0.0,0.0,0.0,0.0,0.0,0.0,0.0,0.0,0.5399,0.5392,0.527,0.0,0.0,0.0,0.0,0.0,0.0,0.9706,1.1061,1.1232,0.0,0.0,0.0,0.0,0.0,0.0,0.0,0.0,0.0,0.0,1.6233,1.7114,1.8517,1.992,2.008,2.2392,2.56,2.8525,3.0949,3.312,3.4549,3.5404,3.5578,3.4229,3.1704,2.8657,2.517,2.2044,1.9256,1.6817,1.6321,1.6393,1.6807,1.7368,1.8504,2.0748,2.1603,2.33,2.7081,2.8524,3.0381,3.3574,3.4629,3.5591,3.6834,3.6941,3.6981,3.7114,3.7128,3.7048,3.6941,3.6941,3.6941,3.6941,3.6941,3.6941,3.6941,3.6941,3.6941,3.6941,3.6941,3.6941,3.6941,3.6941,3.6941,3.6941,3.6941,3.6263,0.0,3.3371,3.2017,3.0635,2.8433,2.8771,3.0572,3.0774,3.2356,3.4179,0.0,0.0,0.0,0.0,0.0,0.2567,0.2137,0.1584,0.1073,0.0661,0.1849,0.2968,0.3556,0.5352,0.6721,0.7327,0.6416,0.0,0.0,0.0,0.0,0.0,0.0,0.0,0.0,0.0,0.5258,0.5324,0.523,0.59,0.0,0.0,0.8846,1.0757,0.0,0.0,0.0,0.0,0.0,0.0,0.0,0.0,0.0,0.0,0.0,0.0,0.0,0.0,0.0,0.0,0.0,1.8156,1.7246,1.8718,2.175,2.6319,2.9339,3.157,3.3253,3.4616,3.5217,3.3841,3.0982,2.7736,2.4756,2.1563,1.8677,1.6737,1.6321,1.6366,1.6647,1.7048,1.7742,1.9025,1.98,2.1232,2.4342,2.5785,2.7856,3.1571,3.2612,3.3868,3.5845,3.6647,3.7048,3.6941,3.7008,3.7048,3.6941,3.6941,3.6941,3.6941,3.6941,3.6941,3.6941,3.6941,3.6941,3.6941,3.6941,3.6941,3.6941,3.6941,3.6941,3.6941,3.6941,3.6139,0.0,3.4183,3.2993,3.1535,3.0734,3.1606,3.3267,3.3267,3.4701,3.6368,0.0,0.0,0.0,0.0,0.0,0.0,0.2681,0.2284,0.1989,0.1977,0.2755,0.3566,0.4301,0.5055,0.5819,0.6561,0.6588,0.0,0.0,0.0,0.0,0.0,0.0,0.0,0.0,0.0,0.5686,0.5103,0.5284,0.6045,0.7318,0.8333,0.9493,1.0783,0.0,0.0,0.0,0.0,0.0,0.0,0.0,0.0,0.0,0.0,0.0,0.0,0.0,0.0,0.0,0.0,0.0,0.0,0.0,1.6764,1.8077,2.2178,2.6092,2.9392,3.0862,3.2772,3.4055,3.2853,2.99,2.6667,2.4315,2.1256,1.8424,1.6633,1.6321,1.6366,1.6647,1.6714,1.7194,1.8691,1.9607,2.1363,2.4623,2.6079,2.7709,3.01,3.0902,3.1957,3.3748,3.6019,3.7275,3.6967,3.7195,3.7235,3.6941,3.6941,3.6941,3.6941,3.6941,3.6941,3.6941,3.6941,3.6941,3.6941,3.6941,3.6941,3.6941,3.6941,3.6941,3.6941,3.6941,3.6941,0.0,3.4723,3.3774,3.3295,3.1289,3.2253,3.4818,3.4818,3.6138,3.7929,0.0,0.0,0.0,0.0,0.0,0.0,0.0,0.323,0.293,0.2097,0.2794,0.3452,0.3699,0.4774,0.541,0.5171,0.5574,0.0,0.0,0.0,0.0,0.0,0.0,0.0,0.0,0.0,0.5232,0.5447,0.5426,0.6481,0.8522,0.8846,1.0031,1.1848,1.1848,1.1914,0.0,0.0,0.0,0.0,0.0,0.0,0.0,0.0,0.0,0.0,0.0,0.0,0.0,0.0,0.0,0.0,0.0,0.0,0.0,1.8597,2.2111,2.5718,2.6974,2.8524,2.9419,2.7843,2.5838,2.3741,2.1804,1.9613,1.7675,1.6563,1.6321,1.6348,1.6393,1.6567,1.7395,1.9421,1.9993,2.1082,2.3541,2.5571,2.7629,2.9793,3.3066,3.5351,3.5912,3.6647,3.7048,3.6941,3.7008,3.7048,3.6941,3.6941,3.6941,3.6941,3.6941,3.6834,3.6647,3.6647,3.654,3.6353,3.6353,3.6353,3.6353,3.654,3.6647,3.6647,3.6647,3.6754,3.679,3.5847,3.5498,3.5563,3.5465,3.5993,3.6945,3.7469,3.851,3.9268,0.0,0.0,0.0,0.0,0.0,0.0,0.0,0.4431,0.4353,0.3613,0.4154,0.4498,0.4223,0.4964,0.5218,0.4574,0.4869,0.0,0.0,0.0,0.0,0.0,0.0,0.0,0.0,0.5174,0.5292,0.5535,0.5576,0.6663,0.8607,0.9058,1.0129,1.1737,1.212,1.2358,0.0,0.0,0.0,0.0,0.0,0.0,1.3467,0.0,0.0,0.0,0.0,0.0,0.0,0.0,0.0,0.0,0.0,0.0,0.0,0.0,1.8988,2.1735,2.3514,2.517,2.6092,2.489,2.33,2.1697,2.0374,1.8691,1.7259,1.6482,1.6321,1.6321,1.6321,1.6513,1.7301,1.9061,1.9693,2.0708,2.3006,2.5064,2.7308,2.994,3.3521,3.5832,3.5939,3.654,3.6941,3.6941,3.6941,3.6941,3.6941,3.6834,3.6754,3.6754,3.6874,3.6794,3.65,3.65,3.6366,3.6072,3.6179,3.6179,3.6086,3.6366,3.6433,3.634,3.634,3.6433,0.0,3.6219,3.6179,3.6435,3.7422,3.8175,3.8769,3.9502,4.0033,3.9983,0.0,0.0,0.0,0.0,0.0,0.0,0.0,0.589,0.6169,0.6135,0.6437,0.6416,0.5728,0.5565,0.5246,0.4622,0.0,0.0,0.0,0.0,0.0,0.0,0.0,0.0,0.0,0.5839,0.581,0.5412,0.5827,0.6693,0.7983,0.9067,1.0097,1.0992,1.195,1.2492,0.0,0.0,0.0,0.0,0.0,0.0,0.0,0.0,0.0,0.0,0.0,0.0,0.0,0.0,0.0,0.0,0.0,0.0,0.0,0.0,0.0,0.0,0.0,2.2539,2.3789,2.362,2.2144,2.0544,1.9961,1.8482,0.0,1.65,1.6343,1.6259,1.6375,1.654,1.7034,1.8009,1.8958,2.0441,2.3046,2.4877,2.7228,3.0688,3.2879,3.4202,3.4429,3.5952,3.6941,3.6941,3.6941,3.6941,3.6901,3.6647,3.65,3.6473,3.6727,3.6754,3.6473,3.6473,3.6313,3.6072,3.6299,3.6286,3.6046,3.6326,3.6299,3.6046,3.6059,3.6072,3.6072,3.6046,3.6167,3.6423,3.7446,3.8798,4.0242,4.0952,4.0935,4.0032,0.0,0.0,0.0,0.0,0.0,0.0,0.0,0.0,0.0,0.0,0.7355,0.7298,0.7127,0.6153,0.5429,0.0,0.0,0.0,0.0,0.0,0.0,0.0,0.0,0.0,0.5729,0.5906,0.5841,0.5569,0.6027,0.7383,0.9647,1.0108,1.1161,1.2635,1.2882,1.2786,0.0,0.0,0.0,0.0,0.0,0.0,0.0,0.0,0.0,0.0,1.4135,1.4188,0.0,0.0,0.0,0.0,0.0,0.0,0.0,0.0,1.6689,1.7727,1.8433,0.0,2.0625,2.1063,2.0814,2.0389,0.0,1.8878,1.7814,1.7421,1.6592,1.6139,1.6871,1.682,1.7435,1.9693,2.0615,2.1804,2.4022,2.7736,3.1196,3.3841,3.5378,3.6072,3.5698,3.6433,3.6941,3.6941,3.6941,3.6834,3.662,3.654,3.6393,3.6179,3.6246,3.6246,3.6179,3.5952,3.5912,3.6072,3.5685,3.5578,3.5738,3.5805,3.5792,3.5752,3.5979,3.6072,3.6059,3.5832,3.6531,3.7874,3.8454,3.977,4.1286,4.0906,3.9973,3.834,0.0,0.0,0.0,0.0,0.0,0.0,0.0,0.0,0.0,0.0,0.0,0.0,0.0,0.0,0.0,0.0,0.0,0.0,0.0,0.0,0.0,0.0,0.0,0.7317,0.6675,0.6555,0.6383,0.61,0.6294,0.7188,0.8713,0.9942,1.0889,1.165,1.2441,1.2612,0.0,0.0,0.0,0.0,1.2489,0.0,0.0,0.0,0.0,0.0,1.3988,1.4082,0.0,1.4429,1.471,1.5062,0.0,0.0,0.0,0.0,1.7544,1.8642,1.9177,1.9686,2.0124,2.0475,2.057,2.052,2.0369,1.9099,1.7908,1.7729,1.6669,1.6059,1.6807,1.7034,1.7809,1.9933,2.1109,2.2846,2.6012,2.9352,3.2291,3.4523,3.5591,3.6126,3.6072,3.6607,3.6874,3.6754,3.6861,3.6794,3.6513,3.638,3.6166,3.5872,3.5738,3.5738,3.5872,3.5845,3.5845,3.5872,3.5685,3.5605,3.5631,3.5631,3.5551,3.5444,3.5738,3.5792,3.5672,3.5645,3.614,3.7138,3.7978,3.8986,3.9792,3.9038,3.7885,3.6108,0.0,0.0,0.0,0.0,0.0,0.0,0.0,0.0,0.0,0.0,0.0,0.0,0.0,0.0,0.0,0.0,0.0,0.0,0.0,0.0,0.0,0.0,0.0,0.8419,0.7618,0.7281,0.6925,0.6579,0.6559,0.6785,0.7304,0.9506,1.0452,1.0344,1.1701,1.2305,0.0,0.0,0.0,0.0,1.261,0.0,0.0,0.0,0.0,0.0,0.0,0.0,0.0,1.4792,1.5064,1.5349,1.5732,0.0,0.0,0.0,0.0,0.0,2.0887,2.1391,2.1485,2.0982,2.0931,2.0948,2.0897,1.924,1.7746,1.7977,1.6909,1.6179,1.6914,1.7555,1.8477,1.996,2.1697,2.4342,2.8604,3.0648,3.2385,3.4229,3.5044,3.5591,3.5912,3.65,3.6754,3.6473,3.6727,3.6727,3.6393,3.6179,3.5912,3.5578,3.5324,3.5311,3.5565,3.5859,3.5899,3.5698,3.5912,3.5872,3.5631,3.5538,3.5364,3.5151,3.5431,3.5404,3.5151,3.5498,3.5738,3.5938,3.6947,3.7433,3.7442,3.6563,3.5272,3.3393,0.0,0.0,0.0,0.0,0.0,0.0,0.0,0.0,0.0,0.0,0.0,0.0,0.0,0.0,0.0,0.0,0.0,0.0,0.0,0.0,0.0,0.8804,0.8804,0.8285,0.7218,0.7121,0.6713,0.5944,0.6409,0.7399,0.8808,1.0534,1.1904,1.2992,1.2527,1.2305,1.2305,0.0,0.0,0.0,1.2345,0.0,0.0,0.0,0.0,0.0,0.0,0.0,0.0,1.6541,1.6726,1.6683,1.7664,0.0,0.0,0.0,0.0,0.0,2.0617,2.2833,2.4561,2.1874,2.1524,2.1685,2.1328,1.9396,1.8039,1.9286,1.7959,1.6981,1.833,1.9265,2.0307,2.1777,2.4716,2.8016,3.1463,3.304,3.4148,3.4963,3.6019,3.6313,3.5418,3.6086,3.6473,3.6166,3.6393,3.634,3.5792,3.5965,3.5819,3.5284,3.5217,3.5217,3.5257,3.5551,3.5805,3.6006,3.5792,3.5672,3.5605,3.5124,3.487,3.4843,3.5137,3.5097,3.487,3.5404,3.6165,3.7081,3.7027,3.6886,3.655,3.5192,3.2623,2.9511,0.0,0.0,0.0,0.0,0.0,0.0,0.0,0.0,0.0,0.0,0.0,0.0,0.0,0.0,0.0,0.0,0.0,0.0,0.0,0.0,0.0,0.8493,0.8477,0.8217,0.7715,0.7154,0.7144,0.7701,0.7902,0.8818,1.0433,1.1389,1.2377,1.3333,1.2625,1.2305,1.2305,1.2305,0.0,0.0,0.0,0.0,0.0,0.0,0.0,0.0,0.0,0.0,0.0,0.0,1.7308,1.7477,1.8185,0.0,0.0,0.0,0.0,0.0,2.0957,2.1952,2.2652,2.095,2.2332,2.3841,2.2928,2.1095,1.9784,2.0444,1.9299,1.8504,1.9653,2.0989,2.2859,2.5758,2.8136,3.0234,3.2051,3.2772,3.3467,3.4376,3.5244,3.5618,3.5231,3.5992,3.6313,3.5859,3.6112,3.6086,3.5645,3.5765,3.5631,3.5204,3.5191,3.5191,3.5191,3.5485,3.5698,3.5832,3.5859,3.5349,3.4201,3.3742,3.2948,3.2109,3.2245,3.2146,3.1923,3.2319,3.2711,3.3087,3.2995,3.2877,3.2431,3.0976,2.8938,2.6677,0.0,0.0,0.0,0.0,0.0,0.0,0.0,0.0,0.0,0.0,0.0,0.0,0.0,0.0,0.0,0.0,0.0,0.0,0.0,0.0,0.8597,0.8143,0.8032,0.7957,0.7934,0.7185,0.7445,0.8755,0.9005,1.0025,1.1772,1.1867,1.2457,1.3379,1.2577,1.2494,1.2952,1.2475,1.2479,0.0,0.0,0.0,0.0,0.0,0.0,0.0,0.0,0.0,0.0,0.0,0.0,0.0,0.0,0.0,0.0,2.1592,2.1525,2.1293,2.1111,2.0959,2.058,1.9796,2.1976,2.4244,2.3896,2.2283,2.109,2.1918,2.1232,2.0588,2.1189,2.2913,2.5464,2.9192,3.0942,3.2104,3.2826,3.2986,3.3374,3.4295,3.4857,3.5231,3.5391,3.6072,3.6259,3.5672,3.5912,3.5912,3.5551,3.5591,3.5525,3.5311,3.5231,3.5231,3.5297,3.5511,3.5591,3.5538,3.5832,3.5161,3.3564,3.2995,3.1788,3.0201,3.0259,2.9909,2.933,2.9699,2.9582,2.9422,2.9605,2.9244,2.8595,2.7154,2.585,2.4787,0.0,0.0,0.0,0.0,0.0,0.0,0.0,0.0,0.0,0.0,0.0,0.0,0.0,0.0,0.0,0.0,0.0,0.0,0.0,0.0,0.8535,0.7937,0.7571,0.7311,0.7199,0.7102,0.7088,0.7091,0.8557,1.0404,1.2513,1.1649,1.2294,1.4058,1.2594,1.3063,1.4871,1.3062,1.2973,1.4104,0.0,0.0,0.0,0.0,0.0,0.0,0.0,0.0,0.0,0.0,0.0,0.0,0.0,0.0,2.245,2.2834,2.2164,2.1176,2.0637,2.0921,2.0979,1.9085,1.9131,2.0317,2.2877,2.1591,2.0862,2.4137,2.4136,2.3394,2.318,2.5237,2.7802,3.0287,3.2385,3.4095,3.5217,3.5618,3.5819,3.5899,3.6193,3.6286,3.6032,3.6313,3.6259,3.5672,3.5912,3.5819,3.5257,3.5485,3.5618,3.5605,3.5338,3.5324,3.5591,3.5618,3.5498,3.5231,3.5525,3.5405,3.4993,3.4409,3.3304,3.1701,3.1454,3.0406,2.9078,2.933,2.9422,2.941,2.9422,2.8468,2.6797,2.5351,2.4697,2.4608,0.0,0.0,0.0,0.0,0.0,0.0,0.0,0.0,0.0,0.0,0.0,0.0,0.0,0.0,0.0,0.0,0.0,0.0,0.0,0.8804,0.8428,0.757,0.7388,0.7098,0.6608,0.6835,0.7498,0.8493,1.0564,1.2338,1.3773,1.2675,1.2608,1.3275,1.2349,1.2456,1.3339,1.2622,1.3098,1.4336,1.4569,0.0,0.0,0.0,0.0,0.0,0.0,0.0,0.0,0.0,2.0603,2.0764,2.1615,2.2168,2.2407,2.2095,2.1123,1.9957,1.9004,1.9309,1.9724,1.9212,1.9723,2.0958,2.3142,2.3486,2.395,2.6019,2.631,2.6239,2.6306,2.819,3.0261,3.1891,3.3734,3.5191,3.5819,3.6006,3.6072,3.6072,3.6166,3.6193,3.6086,3.6006,3.5792,3.5391,3.5471,3.5271,3.4683,3.5097,3.5271,3.5097,3.4977,3.4977,3.5084,3.5097,3.503,3.4937,3.5404,3.4847,3.3311,3.2928,3.1809,2.9974,2.9703,2.9279,2.8587,2.7763,2.6959,2.6224,2.5196,2.4957,2.5193,2.4529,2.4277,2.4362,0.0,0.0,0.0,0.0,0.0,0.0,0.0,0.0,0.0,0.0,0.0,0.0,0.0,0.0,0.0,0.0,0.0,0.0,0.9106,0.891,0.8523,0.7871,0.7809,0.7502,0.6918,0.744,0.8174,0.9165,1.1449,1.3107,1.4082,1.3119,1.2787,1.3037,1.233,1.2521,1.3314,1.2808,1.3582,1.5171,1.5351,1.6741,0.0,0.0,0.0,0.0,0.0,0.0,0.0,0.0,2.0977,2.1288,2.1894,2.2013,2.183,2.1415,2.0178,1.8764,1.7917,1.8015,1.8531,1.9256,2.0388,2.2071,2.4703,2.5625,2.644,2.8283,2.8444,2.8404,2.8885,3.014,3.1503,3.2772,3.4549,3.5872,3.6166,3.6206,3.6179,3.6086,3.6072,3.6072,3.6072,3.5885,3.5645,3.5351,3.5338,3.5084,3.4496,3.4923,3.511,3.491,3.4897,3.4897,3.4897,3.4817,3.471,3.4629,3.503,3.4413,3.3053,3.2582,3.133,2.9498,2.9147,2.839,2.7379,2.597,2.4684,2.3512,2.2365,2.2875,2.406,2.3984,2.405,2.4145,0.0,0.0,0.0,0.0,0.0,0.0,0.0,0.0,0.0,0.0,0.0,0.0,0.0,0.0,0.0,0.0,0.0,0.0,0.9769,0.9185,0.8871,0.8986,0.8864,0.86,0.8192,0.9058,0.9147,0.8446,1.0616,1.2196,1.32,1.2585,1.2806,1.3644,1.2696,1.3513,1.5475,1.3871,1.4539,1.6694,1.6851,1.7756,0.0,0.0,0.0,0.0,0.0,0.0,0.0,0.0,2.121,2.1346,2.2204,2.1669,2.0753,2.1167,1.9559,1.7699,1.7699,1.7456,1.7581,1.9068,2.0722,2.3193,2.7615,2.7709,2.7776,3.1022,3.0528,2.978,3.0648,3.0808,3.1289,3.2746,3.4723,3.6166,3.6473,3.65,3.6393,3.6112,3.6072,3.6072,3.6072,3.6072,3.5939,3.5645,3.5618,3.5364,3.479,3.503,3.5191,3.5191,3.5191,3.5191,3.5191,3.4897,3.4603,3.4322,3.4309,3.4469,3.4723,3.3828,3.2498,3.095,3.0404,2.8282,2.5298,2.4197,2.3023,2.1807,2.1906,2.2599,2.355,2.3871,2.3956,2.3956,0.0,0.0,0.0,0.0,0.0,0.0,0.0,0.0,0.0,0.0,0.0,0.0,0.0,0.0,0.0,0.0,0.0,0.0,1.0458,0.9884,0.9448,0.9302,0.8782,0.8406,0.8211,0.9456,1.04,1.0985,1.1235,1.1974,1.32,1.2585,1.256,1.3064,1.2763,1.3116,1.3871,1.3396,1.4183,1.5761,1.6576,1.7756,1.9116,0.0,0.0,0.0,0.0,0.0,0.0,0.0,0.0,0.0,2.1403,2.1342,2.1129,1.9288,1.8396,1.779,1.6944,1.8007,1.9573,2.0703,2.3166,2.6172,2.9165,2.9245,2.9499,3.2332,3.2572,3.2158,3.1784,3.2398,3.304,3.3267,3.4683,3.5939,3.6433,3.65,3.6473,3.6393,3.6006,3.5845,3.6059,3.5698,3.5418,3.5324,3.5137,3.4763,3.4175,3.4416,3.4482,3.4282,3.4282,3.4282,3.4282,3.4189,3.4108,3.4015,3.2671,3.2825,3.4135,3.3868,3.3306,3.2298,3.1025,2.9835,2.848,2.4437,2.1923,2.0575,1.9823,2.0158,2.0977,2.1174,2.1759,2.2482,0.0,0.0,0.0,0.0,0.0,0.0,0.0,0.0,0.0,0.0,0.0,0.0,0.0,0.0,0.0,0.0,0.0,0.0,0.0,1.0167,0.978,0.9771,0.9205,0.9028,0.9298,1.0286,1.1206,1.2022,1.1763,1.2104,1.3026,1.2772,1.2826,1.3106,1.3387,1.3494,1.3561,1.3681,1.4475,1.5688,1.6312,1.7334,1.8626,0.0,0.0,0.0,0.0,0.0,0.0,0.0,0.0,0.0,2.1255,2.0926,2.0474,1.8457,1.7545,1.7202,1.7157,1.8584,2.0521,2.2472,2.517,2.8056,3.0782,3.1583,3.2305,3.4255,3.4202,3.3654,3.324,3.3561,3.3908,3.3961,3.4897,3.5792,3.6273,3.6326,3.6286,3.6166,3.5738,3.5485,3.5551,3.5124,3.4843,3.4843,3.4683,3.4389,3.3908,3.4162,3.4189,3.3895,3.4002,3.4002,3.3881,3.3881,3.3761,3.3521,3.1818,3.1466,3.2433,3.2316,3.1707,3.0572,2.8371,2.7112,2.6199,2.2195,2.0014,1.9135,1.8667,1.9047,1.9886,2.0,2.0491,2.1071,0.0,0.0,0.0,0.0,0.0,0.0,0.0,0.0,0.0,0.0,0.0,0.0,0.0,0.0,0.0,0.0,0.0,0.0,0.0,0.0,1.0023,1.0317,0.998,1.014,1.0942,1.1263,1.1557,1.1859,1.2118,1.2462,1.2797,1.3093,1.336,1.3666,1.4226,1.4376,1.4148,1.4402,1.5059,1.5976,1.6091,1.6788,1.7802,1.9011,0.0,0.0,0.0,0.0,0.0,0.0,0.0,0.0,2.1415,2.0331,1.9198,1.8185,1.6978,1.6406,1.8103,1.9332,2.0962,2.4449,2.7028,2.9499,3.2532,3.4282,3.5485,3.6233,3.5391,3.4589,3.4843,3.4429,3.4215,3.471,3.5271,3.5725,3.5992,3.6006,3.5899,3.5618,3.5311,3.5004,3.471,3.4442,3.4269,3.4242,3.4242,3.4108,3.3828,3.4055,3.4068,3.3774,3.4015,3.4028,3.3761,3.3761,3.3494,3.2933,3.1397,3.0454,3.0107,2.9786,2.8656,2.6721,2.3762,2.1763,2.055,1.8505,1.7665,1.7588,1.7921,1.8643,1.9525,1.9541,1.9755,1.9901,0.0,0.0,0.0,0.0,0.0,0.0,0.0,0.0,0.0,0.0,0.0,0.0,0.0,0.0,0.0,0.0,0.0,0.0,0.0,0.0,1.0588,1.0602,1.0465,1.0492,1.068,1.1169,1.145,1.1516,1.181,1.2261,1.2797,1.3293,1.3707,1.4001,1.4362,1.4482,1.4429,1.4496,1.4639,1.4957,1.6038,1.6665,1.71,1.91,1.9901,0.0,0.0,0.0,0.0,0.0,0.0,0.0,2.0234,1.9186,1.8123,1.6714,1.6887,1.7782,1.8878,2.0842,2.33,2.6373,3.0087,3.336,3.4736,3.5485,3.5805,3.5538,3.5778,3.5979,3.5819,3.5498,3.5217,3.5124,3.5391,3.5658,3.5712,3.5525,3.5364,3.5297,3.483,3.4389,3.4108,3.4015,3.3881,3.3627,3.3601,3.348,3.3187,3.3227,3.3133,3.2839,3.2893,3.2893,3.2839,3.2839,3.2772,3.2639,3.0814,2.9993,2.9846,2.8807,2.6856,2.4095,2.2365,2.0237,1.8146,1.7879,1.7169,1.6508,1.6713,1.6888,1.6885,1.7012,1.7682,1.8434,0.0,0.0,0.0,0.0,0.0,0.0,0.0,0.0,0.0,0.0,0.0,0.0,0.0,0.0,0.0,0.0,0.0,0.0,0.0,0.0,1.0291,1.0208,1.0585,1.0994,1.1461,1.143,1.1696,1.2317,1.2145,1.2422,1.3025,1.3721,1.4229,1.4566,1.495,1.507,1.4937,1.4937,1.4937,1.4995,1.5715,1.6386,1.7085,1.8802,1.9885,2.0607,2.1978,0.0,0.0,0.0,0.0,0.0,0.0,0.0,1.7654,1.643,1.6673,1.7796,1.9693,2.183,2.4556,2.8751,3.1757,3.3948,3.4977,3.5338,3.5404,3.5231,3.5778,3.6206,3.5912,3.5738,3.5485,3.5057,3.5231,3.5324,3.5044,3.499,3.4937,3.479,3.4242,3.3828,3.3681,3.3414,3.3173,3.3013,3.3,3.2933,3.2786,3.2772,3.2706,3.2643,3.2643,3.2643,3.2643,3.2643,3.2478,3.2332,3.0611,2.8704,2.6535,2.5755,2.4556,2.2964,2.0439,1.8488,1.7106,1.6959,1.6426,1.59,1.6198,1.6218,1.609,1.6171,1.6647,1.7221,0.0,0.0,0.0,0.0,0.0,0.0,0.0,0.0,0.0,0.0,0.0,0.0,0.0,0.0,0.0,0.0,0.0,0.0,0.0,0.0,0.0,0.9988,1.0864,1.1678,1.2337,1.1868,1.2102,1.3138,1.2682,1.2826,1.3534,1.4202,1.4683,1.5035,1.5524,1.5565,1.5244,1.5351,1.5364,1.5337,1.5431,1.6183,1.7432,1.8559,1.9805,2.1076,2.1978,2.2529,2.2775,2.2555,0.0,0.0,0.0,0.0,1.7229,1.6464,1.6513,1.7422,2.0027,2.2512,2.5611,3.0742,3.2505,3.3267,3.4362,3.4576,3.4616,3.491,3.5431,3.5778,3.5525,3.5431,3.5244,3.4763,3.4883,3.487,3.4389,3.4442,3.4442,3.4189,3.3627,3.314,3.2815,3.2366,3.1952,3.1705,3.1939,3.2147,3.2094,3.2341,3.2354,3.2094,3.2094,3.1899,3.1607,3.1899,3.1878,3.164,3.0362,2.7507,2.3521,2.2848,2.2365,2.1642,1.8319,1.6832,1.6612,1.6126,1.5784,1.5703,1.5974,1.6083,1.6083,1.6083,1.6164,1.6273,0.0,0.0,0.0,0.0,0.0,0.0,0.0,0.0,0.0,0.0,0.0,0.0,0.0,0.0,0.0,0.0,0.0,0.0,1.1715,0.0,0.0,1.1108,1.2133,1.257,1.2211,1.2435,1.2492,1.2421,1.2889,1.3654,1.4767,1.4589,1.4683,1.5022,1.5311,1.515,1.4669,1.5177,1.5257,1.5115,1.5565,1.6504,1.7748,1.8975,2.0183,2.1256,2.1407,2.147,2.1391,2.0314,1.9177,0.0,0.0,0.0,1.6021,1.5919,1.6633,1.7729,1.8891,2.2926,2.7589,3.0902,3.2358,3.316,3.3841,3.3788,3.3681,3.4002,3.4523,3.4923,3.4883,3.467,3.4469,3.4389,3.4416,3.4416,3.4336,3.3895,3.3574,3.3534,3.3013,3.207,3.0433,3.0248,2.9516,2.7921,2.9273,3.0097,2.9859,3.1338,3.1461,2.9859,2.9846,2.9162,2.7801,2.9162,2.9821,2.9796,2.9592,2.7923,2.5076,2.2799,2.0463,1.7989,1.6705,1.5932,1.5815,1.5882,1.5845,1.5845,1.6015,1.6083,1.6083,1.6083,1.6096,1.613,0.0,0.0,0.0,0.0,0.0,0.0,0.0,0.0,0.0,0.0,0.0,0.0,0.0,0.0,0.0,1.2915,1.2535,1.2097,1.1653,1.2052,1.2212,1.2038,1.2887,1.3313,1.3282,1.3256,1.3308,1.3369,1.3382,1.4055,1.5204,1.5404,1.5752,1.6241,1.6152,1.5979,1.5738,1.5671,1.597,1.6472,1.6007,1.739,1.9724,1.9542,2.0268,0.0,0.0,0.0,2.0206,1.9679,1.8688,1.7684,1.7684,0.0,0.0,0.0,1.6433,1.7756,2.0815,2.3915,2.7108,3.0555,3.1717,3.2238,3.3173,3.3146,3.3013,3.332,3.3454,3.3614,3.3961,3.3908,3.3761,3.3601,3.3708,3.3694,3.3374,3.324,3.2809,3.1733,3.1261,3.0383,2.869,2.8341,2.7921,2.7033,2.7801,2.8596,2.9351,2.927,2.927,2.9351,2.8572,2.7707,2.7021,2.7707,2.8092,2.7996,2.6539,2.4979,2.3218,2.0594,1.8698,1.7553,1.6377,1.5818,1.5764,1.5825,1.5852,1.5866,1.6022,1.6083,1.6083,1.6083,1.6083,1.609,0.0,0.0,0.0,0.0,0.0,0.0,0.0,0.0,0.0,0.0,0.0,0.0,0.0,0.0,0.0,0.0,1.2544,1.2193,1.2038,1.2733,1.3096,1.3024,1.3791,1.42,1.4147,1.4073,1.4029,1.4041,1.3817,1.4469,1.5858,1.6335,1.7058,1.7956,1.7315,1.6794,1.6353,1.6139,1.6477,1.7124,1.6339,1.7933,2.0747,0.0,0.0,0.0,0.0,0.0,0.0,0.0,0.0,1.7217,1.7217,1.6574,0.0,0.0,0.0,1.7368,2.143,2.3447,2.5277,2.8965,3.0221,3.0902,3.2225,3.2372,3.2318,3.2679,3.2532,3.2465,3.2906,3.2795,3.251,3.23,3.2134,3.1823,3.1509,3.1573,3.1082,2.9677,2.9225,2.8474,2.6917,2.6554,2.6249,2.5862,2.6152,2.6936,2.8188,2.7733,2.7925,2.8764,2.7925,2.7314,2.693,2.6873,2.6839,2.6839,2.4294,2.244,2.1314,1.8749,1.7484,1.7151,1.6321,1.5913,1.5913,1.5913,1.5913,1.592,1.6035,1.6083,1.6083,1.6083,1.6083,1.6083,0.0,0.0,0.0,0.0,0.0,0.0,0.0,0.0,0.0,0.0,0.0,0.0,1.2915,1.2915,1.3047,1.3437,1.3426,1.3415,1.3481,1.4242,1.4516,1.4129,1.5321,0.0,1.4304,1.4728,1.45,1.3641,1.3908,1.5097,1.7112,1.7139,1.817,1.9953,1.8542,1.6983,1.5511,0.0,0.0,0.0,0.0,0.0,0.0,0.0,0.0,0.0,0.0,0.0,0.0,0.0,0.0,0.0,0.0,1.5832,1.5784,0.0,0.0,0.0,1.8571,2.0241,2.2124,2.5411,2.7495,2.9192,3.0929,3.1303,3.145,3.2024,3.1917,3.173,3.1757,3.1024,3.039,3.0378,2.9097,2.8195,2.8171,2.7974,2.7726,2.7617,2.7398,2.6561,2.5022,2.4817,2.4223,2.2779,2.4038,2.4903,2.4903,2.7378,2.8306,2.7118,2.8235,2.8103,2.6679,2.645,2.6325,2.6407,2.3974,2.224,2.0905,1.8511,1.6767,1.5676,1.5954,1.6069,1.6069,1.6069,1.6069,1.6069,1.6076,1.6083,1.6083,1.6083,1.6083,1.6083,0.0,0.0,0.0,0.0,0.0,0.0,0.0,0.0,0.0,0.0,0.0,0.0,0.0,1.3281,1.3457,1.3841,1.416,1.4344,1.4354,1.5148,1.5575,1.5411,1.6398,1.6266,1.4782,1.5332,1.4981,1.36,1.4122,1.503,1.6313,1.6687,1.7261,1.7969,1.7809,1.7502,1.701,1.637,0.0,0.0,0.0,0.0,0.0,0.0,0.0,0.0,0.0,0.0,0.0,0.0,0.0,0.0,0.0,0.0,0.0,1.7044,1.6433,1.6237,1.8357,1.9305,2.0441,2.35,2.5451,2.6934,2.8123,2.9432,3.0501,3.0902,3.1196,3.1154,3.0375,2.9758,2.928,2.8584,2.7579,2.6709,2.6038,2.645,2.6393,2.5439,2.5312,2.463,2.2971,2.2983,2.2713,2.2115,2.2577,2.3718,2.5604,2.5717,2.6462,2.7876,2.7404,2.6416,2.4915,2.3748,2.2967,2.2299,2.0778,1.9448,1.8343,1.6898,1.5974,1.5642,1.575,1.5852,1.5934,1.5934,1.5995,1.6083,1.6083,1.6083,1.6083,1.6083,1.6083,1.6083,0.0,0.0,0.0,0.0,0.0,0.0,0.0,0.0,0.0,0.0,0.0,0.0,0.0,0.0,1.386,1.4289,1.4746,1.5059,1.5224,1.5772,1.6163,1.632,1.7129,1.6977,1.5694,1.6046,1.5591,1.431,1.4548,1.5124,1.5992,1.6473,1.6927,1.7301,1.7288,1.7355,0.0,0.0,0.0,1.7217,0.0,0.0,2.0404,0.0,0.0,0.0,0.0,0.0,0.0,0.0,0.0,0.0,0.0,0.0,0.0,0.0,1.681,1.6077,1.7463,1.8103,1.8971,2.163,2.31,2.4382,2.6253,2.7669,2.8871,2.986,3.0528,3.0477,2.895,2.8092,2.7309,2.6242,2.4885,2.3809,2.3358,2.3926,2.4083,2.3361,2.3364,2.3043,2.1792,2.1867,2.2125,2.2554,2.2544,2.3662,2.6103,2.5571,2.6086,2.8032,2.6825,2.5243,2.3313,2.2079,2.0677,1.9294,1.8607,1.7703,1.6763,1.5839,1.5438,1.5486,1.5486,1.5628,1.5852,1.5852,1.5913,1.6008,1.6062,1.6049,1.6008,1.6062,1.6083,1.6083,0.0,0.0,0.0,0.0,0.0,0.0,0.0,0.0,0.0,1.3464,0.0,0.0,0.0,0.0,0.0,1.4805,1.5215,1.5625,1.6085,1.6124,1.6289,1.6707,1.7545,1.7685,1.7045,1.683,1.6397,1.5696,1.5269,1.5437,1.6295,1.654,1.7301,1.8357,1.7208,1.6526,1.6299,0.0,1.6844,1.6432,0.0,1.8773,1.9899,0.0,0.0,0.0,1.8331,1.7487,0.0,1.8262,0.0,0.0,0.0,0.0,0.0,0.0,0.0,0.0,0.0,0.0,0.0,1.9613,2.0361,2.159,2.5331,2.5999,2.6586,2.8885,2.9847,2.9704,2.7652,2.6029,2.4504,2.3087,2.0694,1.9287,2.0159,2.0324,2.0625,2.1377,2.1631,2.1678,2.1471,2.1735,2.2429,2.3831,2.401,2.467,2.6163,2.7073,2.7488,2.7305,2.6288,2.4486,2.1789,2.1392,2.003,1.7624,1.7794,1.7325,1.6413,1.5426,1.5052,1.5181,1.5181,1.5432,1.5937,1.5845,1.5852,1.5866,1.6015,1.5988,1.5879,1.6029,1.6076,1.6076,0.0,0.0,0.0,0.0,0.0,0.0,0.0,0.0,1.2628,0.0,0.0,0.0,1.3088,1.4243,1.5284,1.608,1.6278,1.6395,1.6543,1.6836,1.7103,1.7207,1.7974,1.8157,1.753,1.7749,1.7152,1.5696,1.6023,1.5866,1.5383,1.5832,1.6246,1.6567,1.6446,1.6233,1.5965,1.6126,0.0,1.6706,1.806,1.9146,0.0,0.0,0.0,0.0,0.0,1.9342,1.914,0.0,1.8989,1.7779,0.0,0.0,0.0,0.0,0.0,0.0,1.5784,0.0,0.0,0.0,0.0,0.0,2.0975,2.2231,2.3754,2.6119,2.7241,2.7414,2.6363,2.4815,2.3074,2.1158,2.0105,1.9475,1.8817,1.9794,2.0658,2.0727,2.0979,2.1083,2.1026,2.2123,2.3077,2.3447,2.4302,2.5468,2.6918,2.6491,2.5642,2.4597,2.2615,2.1204,2.0257,1.9,1.7618,1.6194,1.6267,1.5876,1.5091,1.5053,1.5052,1.5181,1.5181,1.5316,1.554,1.5655,1.5757,1.5859,1.59,1.5961,1.6022,1.6069,1.6008,1.592,0.0,0.0,0.0,0.0,0.0,0.0,1.2389,1.2474,1.2466,0.0,0.0,0.0,1.3348,1.4638,1.5776,1.652,1.6831,1.7116,1.7467,1.7773,1.7988,1.8164,1.8809,1.8985,1.862,1.8608,1.7923,1.6573,1.6601,1.6107,1.5196,1.5618,1.5784,1.5784,1.6005,0.0,0.0,0.0,0.0,0.0,1.8263,0.0,0.0,2.07,2.14,0.0,0.0,0.0,2.0351,2.06,1.98,0.0,0.0,0.0,0.0,0.0,0.0,0.0,0.0,0.0,0.0,0.0,0.0,0.0,1.9372,2.0334,2.163,2.4249,2.5585,2.5941,2.4946,2.425,2.3065,2.0852,2.1052,2.0948,1.9388,2.0464,2.1511,2.174,2.1551,2.1163,2.0718,2.1519,2.2424,2.3321,2.4363,2.5399,2.6342,2.5715,2.4122,2.1669,1.9743,1.8514,1.7878,1.6917,1.5877,1.4837,1.5344,1.5161,1.4434,1.4672,1.4896,1.5092,1.5092,1.5181,1.5323,1.5411,1.5574,1.5771,1.5832,1.5906,1.5995,1.6056,1.5988,1.5852,0.0,0.0,0.0,1.2139,1.1917,1.1707,1.1728,1.2268,1.2577,0.0,1.2883,1.3556,1.4212,1.5189,1.5963,1.6491,1.72,1.791,1.8617,1.8676,1.8851,1.9277,1.9576,1.9714,1.9714,1.9148,1.8464,1.7585,1.6939,1.6222,1.5404,1.5698,1.5784,1.5784,0.0,0.0,0.0,0.0,0.0,1.6563,1.8296,1.9902,0.0,0.0,2.2281,2.2947,2.143,2.0998,2.1078,2.0755,2.0725,0.0,0.0,0.0,0.0,0.0,1.6928,0.0,0.0,0.0,0.0,0.0,0.0,0.0,1.9225,1.9439,1.9966,2.2659,2.4088,2.4454,2.3281,2.3698,2.3492,2.1336,2.2599,2.3108,2.1261,2.1874,2.2845,2.3545,2.2718,2.1705,2.0675,2.0567,2.1423,2.3133,2.4097,2.4677,2.4823,2.4332,2.2375,1.8592,1.7468,1.6358,1.5068,1.5068,1.4621,1.3743,1.4772,1.4952,1.4258,1.4428,1.4679,1.497,1.4984,1.5065,1.5181,1.5181,1.535,1.5628,1.5771,1.5839,1.5872,1.6029,1.5988,1.5852,0.0,0.0,1.1407,1.1491,1.16,1.1777,1.1998,1.1919,1.187,1.208,1.2341,1.297,1.4081,1.5343,1.6468,1.7385,1.837,1.8984,1.916,1.916,1.9199,1.9277,1.8845,1.8592,1.8592,1.8221,1.752,1.643,1.6772,1.6392,1.5404,1.5698,1.5784,1.5784,1.5784,0.0,0.0,0.0,0.0,1.746,1.9015,0.0,2.0968,2.2162,2.2657,2.2596,2.2285,2.1851,2.136,2.0295,2.0673,2.1309,0.0,0.0,0.0,0.0,0.0,0.0,0.0,0.0,0.0,0.0,0.0,0.0,1.7128,1.738,1.8077,1.9546,2.0241,2.0693,2.1064,2.1238,2.1007,1.9886,2.1916,2.3365,2.2953,2.3665,2.4268,2.4187,2.2514,2.1449,2.1511,2.1536,2.1801,2.2515,2.2978,2.3095,2.2928,2.039,1.806,1.6019,1.5042,1.4231,1.3818,1.3735,1.3535,1.3132,1.3569,1.3837,1.3946,1.4333,1.4679,1.4977,1.5092,1.5153,1.5181,1.5181,1.5289,1.5472,1.5622,1.575,1.5872,1.6029,1.5988,1.5839,0.0,0.0,1.1573,1.1462,1.139,1.1461,1.1721,1.186,1.2011,1.213,1.2634,1.3182,1.3828,1.5444,1.6729,1.7454,1.8296,1.9108,0.0,1.9449,1.9201,1.935,1.9046,1.8669,1.8254,1.8672,1.814,1.6536,1.7443,1.7114,1.5618,1.5765,1.5752,1.5618,1.5718,1.5784,1.5811,0.0,1.7088,1.8184,1.9489,0.0,2.1544,2.2558,2.2865,2.2711,2.2236,2.1683,2.1105,2.0958,2.0729,0.0,0.0,2.0018,1.9693,0.0,1.801,1.7568,0.0,0.0,0.0,1.6273,0.0,0.0,0.0,1.6927,1.7261,1.8464,1.8945,1.9404,2.0234,2.0493,2.06,2.0662,2.2762,2.4122,2.3417,2.4839,2.5866,2.5581,2.3872,2.2426,2.1494,2.1568,2.1713,2.204,2.2342,2.1885,2.0577,1.8443,1.6418,1.45,1.3839,1.3437,1.3288,1.3214,1.3105,1.2963,1.3261,1.3478,1.3641,1.4163,1.4529,1.4753,1.4977,1.512,1.5181,1.5181,1.5228,1.5316,1.5547,1.5683,1.5778,1.6001,1.594,1.5737,1.2229,0.0,1.1837,1.1675,1.1395,1.1263,1.1509,1.1997,1.2358,1.2532,1.32,1.3733,1.384,0.0,0.0,0.0,0.0,0.0,0.0,0.0,1.9304,1.9245,1.9447,1.9193,1.8379,1.9306,1.9046,1.7387,1.8213,1.7766,1.615,1.5927,1.5698,1.5498,1.5778,1.5904,1.5984,0.0,0.0,1.8838,0.0,2.1032,2.2151,2.27,2.2943,2.2821,2.1997,2.1336,2.1074,2.1622,2.0869,1.978,2.0316,2.013,0.0,0.0,0.0,0.0,0.0,0.0,0.0,0.0,0.0,1.6633,0.0,0.0,0.0,1.7809,1.817,1.8557,1.9332,1.976,2.0187,2.0788,2.2885,2.392,2.2582,2.4609,2.6168,2.601,2.4789,2.3139,2.1235,2.0968,2.1045,2.1568,2.1149,2.0158,1.8661,1.7178,1.55,1.3539,1.3302,1.3146,1.3085,1.2976,1.2901,1.2874,1.3173,1.3329,1.3376,1.398,1.4346,1.4529,1.4808,1.5025,1.5181,1.5153,1.516,1.5208,1.5486,1.5615,1.5669,1.594,1.5886,1.5676,1.3232,1.2344,0.0,1.178,1.1778,1.1899,1.2158,1.2265,1.2585,1.3347,1.3814,1.4242,0.0,0.0,0.0,0.0,0.0,0.0,2.0457,0.0,0.0,1.8829,1.9637,1.9751,1.8941,1.9093,1.9096,1.8863,1.8163,1.7701,1.7451,1.6339,1.5758,1.5792,1.6086,1.6366,1.6647,0.0,1.8317,0.0,2.0641,2.1279,0.0,2.2579,2.2727,2.2405,2.211,2.1897,2.1764,0.0,2.0918,2.0449,0.0,1.9855,1.9933,0.0,0.0,0.0,0.0,0.0,0.0,0.0,1.7849,0.0,0.0,0.0,1.6965,1.6259,0.0,1.6286,1.666,0.0,0.0,1.7045,1.9515,2.1042,1.9805,2.1279,2.2758,2.3483,2.2943,2.2172,2.1176,1.9614,1.9321,2.093,1.8043,1.6877,1.833,1.563,1.3749,1.3234,1.3193,1.3044,1.2786,1.2766,1.2691,1.2556,1.2861,1.3078,1.322,1.3824,1.4251,1.4523,1.4692,1.4923,1.5174,1.5045,1.5072,1.5201,1.5371,1.552,1.5655,1.5818,1.5859,1.5811,1.3707,1.3242,0.0,0.0,1.2466,1.2278,1.2759,1.3547,1.4108,1.4106,1.4856,0.0,0.0,0.0,0.0,0.0,0.0,1.9166,0.0,0.0,0.0,0.0,0.0,0.0,1.8256,1.9655,2.0028,1.931,1.8929,1.8365,1.7684,1.6386,1.5738,1.5605,1.6246,0.0,1.7058,0.0,1.8704,0.0,0.0,0.0,0.0,2.2792,2.2832,2.2378,2.2084,2.1991,2.1963,0.0,2.1113,0.0,0.0,0.0,0.0,0.0,0.0,0.0,0.0,0.0,0.0,0.0,0.0,0.0,1.6647,0.0,1.6326,0.0,0.0,0.0,0.0,0.0,0.0,0.0,1.8268,1.9203,1.7953,1.9528,2.1152,2.2038,2.1722,2.1065,2.0286,1.8695,1.806,1.9026,1.6688,1.5699,1.658,1.4453,1.322,1.3173,1.3003,1.2854,1.2732,1.2644,1.2562,1.2508,1.2813,1.299,1.3064,1.358,1.3973,1.4265,1.4421,1.4652,1.4923,1.4862,1.4923,1.5065,1.5133,1.5248,1.5404,1.5642,1.573,1.5723,1.4879,0.0,0.0,0.0,0.0,1.3051,1.34,0.0,0.0,0.0,0.0,0.0,1.6536,1.7316,0.0,0.0,1.9323,1.9191,0.0,0.0,1.7838,0.0,0.0,0.0,0.0,0.0,2.0881,1.998,1.9679,1.8856,1.7684,1.6386,1.5765,1.5671,1.6473,1.7128,1.7728,0.0,1.9434,2.0793,2.1069,2.1483,2.2071,2.2806,2.2806,2.2378,2.2084,2.2109,2.2291,2.2124,2.15,0.0,2.1658,0.0,0.0,0.0,0.0,0.0,1.8049,0.0,0.0,0.0,0.0,0.0,0.0,0.0,0.0,0.0,0.0,0.0,0.0,0.0,0.0,0.0,0.0,1.7535,1.6469,1.7795,1.918,2.0017,1.9939,1.9676,1.9265,1.7959,1.722,1.7488,1.6025,1.5228,1.5598,1.4298,1.3502,1.3447,1.3279,1.3068,1.2984,1.2633,1.2677,1.2873,1.2992,1.2983,1.303,1.3444,1.379,1.4082,1.419,1.4428,1.474,1.474,1.4828,1.4977,1.5011,1.5092,1.5221,1.5527,1.5615,1.5581,1.7311,1.6495,0.0,0.0,0.0,0.0,0.0,0.0,0.0,0.0,0.0,0.0,0.0,0.0,0.0,0.0,0.0,2.0732,2.0461,0.0,1.9367,0.0,0.0,2.0007,0.0,0.0,0.0,2.1239,2.007,1.8856,1.7684,1.6386,1.5979,1.6321,1.6924,1.7782,1.8918,1.9727,2.1002,2.2352,2.2365,2.2218,2.2017,0.0,2.2432,2.2378,2.2084,0.0,0.0,2.2314,2.209,0.0,0.0,0.0,0.0,0.0,0.0,0.0,0.0,0.0,0.0,1.8171,0.0,0.0,0.0,0.0,1.7288,0.0,0.0,0.0,0.0,0.0,0.0,0.0,0.0,0.0,0.0,1.5725,1.6152,1.6804,1.7227,1.7732,1.83,1.7243,1.6643,1.7011,1.5782,1.5288,1.6031,1.538,1.4696,1.399,1.4147,1.4072,1.3674,1.2895,1.2965,1.3968,1.3279,1.303,1.3173,1.3485,1.379,1.4075,1.4075,1.4333,1.474,1.474,1.4828,1.4984,1.512,1.5181,1.5221,1.5527,1.5547,1.5438,0.0,0.0,0.0,0.0,0.0,0.0,0.0,1.5244,0.0,0.0,0.0,0.0,0.0,2.0072,2.0635,0.0,0.0,2.1175,2.0017,1.9991,0.0,0.0,0.0,1.9225,0.0,0.0,0.0,0.0,1.8902,1.8102,1.7684,1.6386,1.5992,1.6348,1.6938,1.797,0.0,0.0,0.0,0.0,0.0,2.2401,2.3624,0.0,2.2866,2.2946,2.3426,2.3799,0.0,2.4089,2.3073,2.1996,2.2921,2.1552,1.9797,2.0305,2.047,0.0,0.0,0.0,2.0991,1.8975,0.0,0.0,0.0,0.0,0.0,0.0,0.0,0.0,0.0,0.0,0.0,0.0,0.0,0.0,0.0,1.5718,1.5899,1.6099,1.6298,1.6501,1.6682,1.6682,1.6786,1.6914,1.6812,1.6903,1.7345,1.7159,1.6657,1.5727,1.5872,1.5546,1.4584,1.4276,1.4299,1.4671,1.4539,1.4612,1.4881,1.4348,1.471,1.5716,1.5115,1.5357,1.6057,1.5557,1.5492,1.5638,1.5053,1.5011,1.5194,1.5296,1.5371,1.5418,1.5462,0.0,0.0,0.0,0.0,0.0,0.0,0.0,0.0,0.0,1.9145,0.0,2.1697,0.0,2.2032,0.0,2.3119,2.2262,2.0773,2.1038,0.0,1.9384,1.936,0.0,0.0,0.0,0.0,0.0,0.0,1.7731,1.7155,1.6252,1.6099,1.6656,1.7032,1.809,1.9573,2.0254,2.1109,0.0,0.0,2.2165,0.0,0.0,2.3148,2.3511,0.0,2.4687,2.4892,2.464,2.3627,2.2582,2.3661,2.2233,2.0342,2.1087,2.1216,2.0964,2.0382,2.107,0.0,1.9805,1.9679,0.0,1.7876,0.0,0.0,0.0,0.0,0.0,0.0,0.0,0.0,0.0,0.0,0.0,0.0,1.5784,1.5784,1.5784,1.5855,1.5958,1.6158,1.6321,1.6527,1.675,1.7123,1.7446,1.7758,1.7959,1.7714,1.6887,1.6812,1.6465,1.5621,1.5388,1.5343,1.5722,1.5532,1.5577,1.5861,1.521,1.5542,1.656,1.5964,1.6191,1.6855,1.6072,1.5861,1.6015,1.5167,1.497,1.5187,1.5242,1.5323,1.5404,0.0,0.0,0.0,0.0,1.5076,0.0,0.0,0.0,1.8262,0.0,2.0347,2.159,2.2498,2.2819,2.3694,2.5302,2.4858,2.389,2.257,2.3339,0.0,0.0,2.1047,2.1742,2.3091,0.0,0.0,0.0,0.0,1.7646,1.6308,1.5979,1.6313,1.7179,1.7192,1.8171,1.9786,2.0655,2.171,2.2794,2.1923,2.171,2.1911,2.2635,2.3391,2.4085,2.4523,2.5069,2.5439,2.4144,2.3667,2.3637,2.3667,2.2708,2.1754,2.2117,2.279,2.2956,2.0881,2.1436,2.2207,2.0617,2.0294,0.0,0.0,0.0,1.9345,0.0,0.0,0.0,0.0,0.0,0.0,0.0,0.0,0.0,0.0,0.0,1.5784,1.5784,1.5784,1.5997,1.6593,1.6179,1.6051,1.6518,1.6833,1.7122,1.7451,1.7959,1.8001,1.7644,1.7207,1.6986,1.6924,1.6131,1.6145,1.7047,1.6241,1.6016,1.6106,1.6098,1.6294,1.673,1.673,1.6849,1.72,1.6306,1.6032,1.6113,1.5271,1.5052,1.5201,1.5337,1.5384,1.5357,1.4693,1.5261,1.5875,0.0,1.5602,1.5631,0.0,0.0,0.0,0.0,2.2432,2.3594,2.4903,2.473,2.4596,2.4811,2.5299,0.0,0.0,0.0,0.0,2.4098,2.3006,2.2689,2.3242,2.0988,0.0,1.8658,0.0,0.0,1.6321,1.6192,1.6393,1.6834,1.7099,1.7822,1.8865,1.9533,2.0971,2.2665,2.1985,2.2405,2.3627,0.0,2.4453,2.491,2.5535,2.5892,2.599,2.5624,2.4839,2.4079,2.4577,2.36,2.2415,2.2683,2.2566,2.2281,2.1708,2.1988,2.2175,2.1109,2.1056,2.0922,0.0,0.0,0.0,0.0,0.0,0.0,0.0,0.0,0.0,0.0,0.0,0.0,0.0,0.0,0.0,1.5784,1.5784,1.5758,1.5738,1.6179,1.6627,1.7016,1.767,1.8602,1.9784,2.0535,2.0926,2.0848,2.0416,1.9807,1.9201,1.7961,1.7515,1.7728,1.757,1.7673,1.801,1.7115,1.7425,1.8612,1.7926,1.8143,1.8831,1.7367,1.691,1.7006,1.542,1.4957,1.5174,1.5106,1.5011,1.4923,1.4532,0.0,0.0,1.6927,0.0,0.0,1.8223,1.8851,0.0,2.2138,2.3313,0.0,2.5277,2.5424,2.5702,2.619,2.6008,0.0,2.5023,0.0,0.0,2.5171,2.455,2.4295,2.4283,2.209,0.0,1.8945,0.0,0.0,1.6321,1.6321,1.65,1.6901,1.7125,1.7769,1.8744,2.006,2.1265,2.2455,2.2366,2.2966,0.0,2.4175,2.4718,2.5356,2.5802,2.6025,2.612,2.5643,2.5122,2.4604,2.4679,2.3927,2.3014,2.3182,2.2857,2.2311,2.2058,2.2205,2.2271,2.1643,2.1617,2.1534,2.0428,2.0441,2.0388,0.0,1.9052,1.8731,0.0,0.0,0.0,0.0,0.0,0.0,0.0,0.0,0.0,0.0,1.5784,1.5712,1.5431,1.5965,1.65,1.6978,1.7594,1.8263,1.9149,2.0198,2.0958,2.1131,2.1009,2.067,2.0064,1.9183,1.861,1.8324,1.8324,1.8447,1.8673,1.8146,1.8376,1.9297,1.8873,1.9106,1.9578,1.7851,1.7178,1.7264,1.5511,1.4862,1.4896,1.495,1.4916,1.4841,1.5115,0.0,0.0,0.0,0.0,0.0,0.0,2.0575,0.0,2.2699,0.0,2.4703,2.4957,2.5598,2.6607,2.7942,0.0,2.5909,2.6166,2.6341,2.6149,2.5325,2.5862,2.5978,2.5613,2.3683,0.0,0.0,0.0,0.0,1.6326,1.6326,1.6656,1.7152,1.7219,1.7862,1.9061,2.0925,2.1858,2.2066,2.2864,2.338,2.3748,2.3901,2.4579,2.5517,2.5549,2.5834,2.5977,2.509,2.5009,2.5065,2.4361,2.3911,2.3567,2.3409,2.3052,2.2632,2.2084,2.2111,2.2245,2.1991,2.1951,2.1777,2.0975,2.0788,2.0561,1.9819,1.9158,1.8744,0.0,0.0,0.0,0.0,0.0,0.0,0.0,0.0,0.0,0.0,0.0,0.0,1.5484,1.5685,1.6059,1.6607,1.6898,1.7152,1.742,1.8597,1.9579,2.0197,2.0424,2.0482,2.0448,1.9847,1.9324,1.888,1.8745,1.8673,1.8683,1.8881,1.908,1.9269,1.9467,1.9598,1.9525,1.7772,1.7025,1.681,1.5498,1.4808,1.4604,1.4685,1.4679,1.4646,1.5939,0.0,0.0,0.0,0.0,2.1349,2.2525,2.3367,2.4222,2.5211,2.6146,2.6747,2.68,2.6507,2.637,2.6439,2.6267,0.0,0.0,0.0,0.0,2.6237,2.6673,2.6481,2.5605,2.3978,2.243,0.0,0.0,0.0,1.6633,1.6633,1.6687,1.6807,1.7288,1.8088,1.904,1.9682,0.0,2.1598,2.3007,2.3673,2.3794,2.4859,2.5217,2.5246,2.547,2.5675,2.5755,2.585,2.5581,2.5062,2.4609,2.4189,2.3745,2.2887,2.2418,2.2058,2.1789,2.1735,2.1762,2.1708,2.1804,2.1884,2.1561,2.1467,2.1346,2.0882,2.0535,2.0067,1.9345,0.0,0.0,0.0,0.0,0.0,0.0,0.0,0.0,0.0,0.0,1.6339,1.5758,1.5758,1.5979,1.6326,1.6166,1.6807,1.8517,1.9105,1.9859,2.086,2.0784,2.1026,0.0,0.0,1.9241,1.9935,1.9076,1.8673,1.8683,1.8881,1.8995,1.9042,1.9259,1.9041,1.8441,1.7318,1.6191,1.5167,1.508,1.4936,1.4804,1.3542,1.3026,1.2936,0.0,0.0,0.0,0.0,0.0,0.0,0.0,2.5692,2.6279,2.5785,2.6092,2.6293,2.6146,2.6426,2.6652,2.6826,2.6238,2.6047,2.65,2.5912,2.5636,2.5913,2.5792,0.0,2.5114,2.3469,2.1994,2.0615,0.0,0.0,1.67,1.67,1.678,1.7018,1.8087,1.9001,1.9822,0.0,0.0,2.2826,2.3977,2.4422,2.4469,2.5107,2.5262,2.5135,2.531,2.5357,2.5389,2.5548,2.55,2.5281,2.4747,2.4331,2.3905,2.2946,2.2349,2.1924,2.1695,2.1614,2.1574,2.1363,2.143,2.1496,2.1349,2.1323,2.1283,2.1136,2.0882,2.0454,1.972,1.8384,0.0,0.0,0.0,0.0,0.0,0.0,0.0,0.0,0.0,0.0,0.0,1.6566,1.6583,1.608,1.5912,1.6344,1.7702,1.8637,1.976,2.1029,0.0,0.0,2.2698,0.0,2.0314,2.0359,1.9267,1.8673,1.8683,1.8881,1.8976,1.8985,1.8698,1.8475,1.8138,1.676,1.555,1.4536,1.476,1.4801,1.4669,1.4149,1.3351,1.2346,0.0,1.9859,0.0,0.0,2.326,2.4556,2.5849,2.7283,2.7725,2.6253,2.5959,2.5798,2.5571,2.6253,2.6866,2.7347,2.6239,2.5824,2.6496,2.5059,2.4458,2.5038,2.4638,2.4365,2.4283,2.2941,2.1509,0.0,0.0,0.0,0.0,1.6807,1.7096,1.7642,0.0,0.0,0.0,0.0,2.3564,2.4255,2.4826,2.5103,2.5103,2.5103,2.5103,2.5103,2.5103,2.5103,2.5103,2.5103,2.5294,2.5423,2.487,2.4415,2.3854,2.3125,2.2408,2.183,2.1601,2.1521,2.1403,2.1162,2.1109,2.1109,2.1109,2.1109,2.1109,2.1109,2.0922,2.0615,2.008,1.9172,0.0,0.0,0.0,0.0,0.0,0.0,0.0,0.0,0.0,0.0,1.6887,1.7153,1.7041,1.6423,1.6389,1.6503,1.686,1.813,0.0,0.0,0.0,2.2937,2.3127,0.0,2.1569,2.0937,1.9937,1.9398,1.9082,1.9294,1.9362,1.9333,1.8382,1.7791,1.7425,1.592,1.4992,1.4373,1.4638,1.4685,1.4652,1.4666,1.3796,1.2283,0.0,0.0,0.0,0.0,0.0,2.5491,2.5892,2.7283,2.8167,2.8006,2.7428,2.7094,2.7068,2.668,2.6492,2.6544,2.5929,2.5518,2.5594,2.4764,2.416,2.3964,2.4246,2.3994,2.3164,2.2793,2.1956,0.0,0.0,1.7939,0.0,0.0,0.0,0.0,0.0,0.0,0.0,2.2877,2.3741,2.4598,2.4976,2.5103,2.5103,2.5103,2.5103,2.5103,2.5103,2.5103,2.5103,2.5103,2.5135,2.5138,2.507,2.443,2.3519,2.2815,2.2171,2.1601,2.1229,2.1149,2.1149,2.1122,2.1109,2.1109,2.1109,2.1109,2.1109,2.1109,2.1082,2.0975,2.0655,2.0281,1.988,0.0,0.0,0.0,0.0,0.0,0.0,0.0,0.0,0.0,1.7502,1.6585,1.6607,1.813,1.8272,1.8003,0.0,0.0,0.0,1.8655,2.0244,2.1336,2.1719,2.2206,2.2293,2.1964,2.211,2.1566,2.0455,2.059,2.058,2.0323,1.8496,1.676,1.5118,1.4492,1.4339,1.4509,1.4672,1.4814,1.4765,1.3615,1.2917,1.2402,0.0,0.0,0.0,0.0,0.0,0.0,0.0,2.7846,2.8221,2.8221,2.802,2.7738,2.7308,2.7054,2.6774,2.6413,2.5852,2.5518,2.5518,2.4529,2.3888,2.3768,2.3579,2.327,2.2658,2.2016,2.132,0.0,0.0,0.0,0.0,0.0,0.0,0.0,0.0,2.2345,2.3225,2.4003,2.4652,2.5214,2.5135,2.5103,2.5103,2.5103,2.5103,2.5103,2.5103,2.5103,2.5103,2.5103,2.5103,2.5089,2.5125,2.4295,2.3247,2.2995,2.2173,2.1256,2.1149,2.1109,2.1109,2.1109,2.1109,2.1109,2.1109,2.1109,2.1162,2.1336,2.151,2.1657,2.171,2.1056,2.0655,2.1122,0.0,0.0,0.0,0.0,0.0,0.0,0.0,0.0,0.0,1.7862,1.7844,0.0,0.0,0.0,0.0,0.0,0.0,1.9016,0.0,2.2743,2.2873,2.3433,2.3688,2.35,2.2808,2.2211,2.1728,2.1015,1.9702,1.7837,1.7133,1.5861,1.4195,1.4153,1.4197,1.4407,1.4645,1.5139,1.5681,1.5272,1.4939,1.4486,2.3661,0.0,2.4209,0.0,2.6066,2.6373,2.7993,2.8221,2.8221,2.8221,2.8221,2.8006,2.7335,2.7188,2.6934,2.6426,2.5932,2.5611,2.5518,2.4583,2.3941,2.3781,2.3273,0.0,2.2432,2.1724,2.1082,2.0433,1.9221,0.0,0.0,0.0,0.0,0.0,2.2974,2.3809,2.4222,2.4934,2.5342,2.5469,2.5214,2.5103,2.5103,2.5103,2.5103,2.5103,2.5103,2.5103,2.5103,2.5103,2.5103,2.5103,2.5103,2.4177,2.3106,2.3106,2.2167,2.1109,2.1109,2.1109,2.1109,2.1109,2.1176,2.1243,2.1243,2.1309,2.1443,2.175,2.1977,2.2205,2.2498,2.1871,2.147,2.1951,0.0,0.0,0.0,0.0,0.0,0.0,1.9249,1.8876,1.7956,1.8335,0.0,0.0,0.0,0.0,0.0,0.0,0.0,0.0,0.0,0.0,2.3768,2.4662,2.4866,2.4467,2.3896,2.3416,2.3015,2.1728,1.9287,1.604,1.6219,1.5363,1.379,1.3987,1.4163,1.4326,1.4847,1.5517,1.6226,1.6872,1.6599,1.5911,2.4449,2.509,2.5852,2.7041,2.7482,2.7776,2.8181,2.8221,2.8221,2.8221,2.8221,2.8006,2.7335,2.7001,2.6707,2.6413,2.6119,2.5825,2.5531,2.4957,2.4369,0.0,0.0,2.3033,2.2432,2.2124,2.1683,2.1096,0.0,0.0,1.9808,0.0,2.1989,2.3198,2.4255,2.4844,2.5119,2.5422,2.5437,2.5119,2.5103,2.5103,2.5103,2.5103,2.5103,2.5103,2.5103,2.5103,2.5103,2.5103,2.5103,2.5103,2.5103,2.4177,2.3106,2.3106,2.2167,2.1109,2.1109,2.1109,2.1109,2.1109,2.1336,2.1614,2.1614,2.1764,2.2058,2.2352,2.2405,2.2498,2.2806,2.2914,2.2458,2.1309,0.0,0.0,0.0,0.0,0.0,1.9038,1.813,1.7876,1.8424,1.7395,0.0,0.0,0.0,0.0,0.0,0.0,0.0,2.0127,2.2245,0.0,2.3768,2.5504,2.5753,2.4547,2.574,2.566,2.4467,2.3095,2.0089,1.604,1.6219,1.5302,1.3654,1.3953,1.4163,1.4401,1.5437,1.595,1.6204,1.7469,1.7264,1.6328,2.5438,2.5999,2.6587,2.7161,2.7509,2.7802,2.8181,2.8221,2.8221,2.8221,2.8221,2.8073,2.7602,2.7295,2.7001,0.0,2.6052,2.5611,0.0,2.4783,2.4168,2.3794,2.3487,2.314,2.2726,2.2432,2.2098,2.171,0.0,0.0,0.0,2.3142,2.3901,2.4858,2.5722,2.6086,2.6168,2.6041,2.5914,2.5834,2.5294,2.5103,2.5103,2.5103,2.5103,2.5103,2.5103,2.5103,2.5103,2.5103,2.5103,2.5103,2.5103,2.4177,2.3106,2.3106,2.2167,2.1149,2.1363,2.1416,2.1585,2.2305,2.2558,2.2641,2.2641,2.2467,2.2311,2.2405,2.2418,2.2445,2.2539,2.2392,2.2084,2.151,2.1563,0.0,2.0788,0.0,0.0,1.8731,1.8568,1.8358,1.7943,1.7923,0.0,0.0,0.0,0.0,0.0,0.0,0.0,0.0,2.2525,0.0,2.4062,2.5611,2.6321,2.6026,2.6321,2.4933,2.2269,2.1786,1.9277,1.5133,1.531,1.4689,1.379,1.4678,1.5119,1.5285,1.5698,1.6331,1.6955,1.6964,1.7164,1.734,2.5892,2.6426,2.6921,2.7215,2.7509,2.7802,2.8181,2.8221,2.8221,2.8221,2.8221,2.8154,2.7883,2.7602,0.0,2.6854,2.6226,2.5798,2.5692,2.517,2.4636,2.4115,2.3915,2.3621,2.3276,2.302,0.0,2.2311,2.2586,2.3252,2.4316,2.4828,2.536,2.6057,2.6628,2.6803,2.666,2.6359,2.6136,2.5914,2.5342,2.5103,2.5103,2.5103,2.5103,2.5103,2.5103,2.5103,2.5103,2.5103,2.5103,2.5103,2.5103,2.4363,2.3509,2.3628,2.3004,2.229,2.236,2.2471,2.2711,2.317,2.35,2.3648,2.3497,2.2996,2.2579,2.2579,2.2579,2.2552,2.2445,2.2271,2.2017,2.1681,2.1456,2.1203,2.0695,0.0,1.9674,0.0,0.0,0.0,0.0,1.8362,1.8562,0.0,0.0,0.0,0.0,0.0,2.0347,2.0935,2.3287,2.4636,2.4863,2.5879,2.648,2.6653,2.599,2.4123,2.1222,2.0737,1.8545,1.5216,1.5393,1.5187,1.4783,1.5552,1.5767,1.5526,1.5973,1.6362,1.6665,1.6681,1.6822,1.6967,2.5919,2.6453,2.6934,2.7215,2.7522,2.7829,2.8181,2.8221,2.8221,2.8221,2.8221,2.8221,2.8221,2.7883,2.7482,2.6934,0.0,0.0,2.605,2.5996,2.5518,2.4676,2.4549,2.4342,2.3781,2.3754,2.3517,2.3065,2.3477,2.4238,2.5362,2.5958,2.6455,2.6724,2.7057,2.701,2.666,2.6359,2.5945,2.5549,2.5246,2.5103,2.5103,2.5103,2.5103,2.5103,2.5103,2.5103,2.5103,2.5103,2.5103,2.5103,2.5103,2.4641,2.4237,2.4464,2.4336,2.4063,2.3671,2.3896,2.4122,2.3828,2.421,2.4619,2.4167,2.3488,2.2954,2.2941,2.2928,2.2766,2.2472,2.2392,2.2178,2.1773,2.1383,2.0859,2.0085,2.0387,2.0027,0.0,0.0,0.0,1.8574,1.8771,1.9052,0.0,0.0,0.0,0.0,0.0,2.0882,2.2928,2.4329,2.5358,2.6023,2.6226,2.636,2.6201,2.5092,2.3324,2.106,1.9856,1.8064,1.604,1.6219,1.63,1.6316,1.6487,1.6042,1.5353,1.6188,1.6026,1.5376,1.6411,1.6245,1.5616,0.0,0.0,2.7188,2.7255,2.7696,2.814,2.8221,2.8221,2.8221,2.8221,2.8221,2.8221,2.8221,2.7883,2.7642,2.7509,2.6814,2.6266,2.605,2.5531,2.509,2.4649,2.4422,2.4142,2.3781,2.3554,2.3803,2.4495,2.4616,2.5345,2.6748,2.688,2.6994,2.7073,2.7169,2.701,2.666,2.6359,2.5945,2.5549,2.5246,2.5103,2.5103,2.5103,2.5103,2.5103,2.5103,2.5103,2.5103,2.5103,2.5103,2.5103,2.5103,2.4968,2.472,2.403,2.3775,2.3744,2.3562,2.3998,2.4694,2.5306,2.5604,2.5539,2.4887,2.4408,2.3818,2.305,2.2928,2.2766,2.2472,2.2058,2.1905,2.2273,2.1883,2.1595,2.1891,2.1021,2.0237,0.0,1.9164,1.8741,1.8784,1.8878,1.9145,0.0,0.0,2.0368,2.136,2.163,2.2338,2.3514,2.4543,2.5358,2.6023,2.6026,2.5583,2.4551,2.4527,2.2843,1.9775,1.946,1.8064,1.604,1.6219,1.63,1.6392,1.7019,1.6868,1.6013,1.6127,1.5743,1.5041,1.4693,1.4583,1.4653,2.6306,2.664,2.6907,2.7041,2.7442,2.7872,2.7923,2.814,2.8221,2.8221,2.8221,2.8221,2.8221,2.8003,2.7843,2.7709,2.7014,2.652,2.636,2.5932,2.5545,2.5251,2.4957,2.4811,2.4879,2.4566,2.4975,2.5957,2.5808,2.6267,2.72,2.72,2.72,2.72,2.72,2.701,2.666,2.6359,2.5945,2.5549,2.5246,2.5103,2.5103,2.5103,2.5103,2.5103,2.5103,2.5103,2.5103,2.5103,2.5103,2.5073,2.4922,2.4856,2.4781,2.4192,2.4325,2.4684,2.451,2.5137,2.5932,2.6672,2.6738,2.6368,2.5628,2.5068,2.44,2.3749,2.3612,2.3502,2.3259,2.3261,2.3327,2.3208,2.2811,2.2596,2.2893,2.1705,2.0803,2.0877,2.0186,1.9761,1.9913,2.016,2.0401,2.0588,2.1082,0.0,2.2191,2.31,2.3794,2.4155,2.5024,2.5638,2.6037,2.5825,2.5127,2.386,2.346,2.1839,1.914,1.8098,1.7086,1.595,1.5723,1.6012,1.685,1.6842,1.6543,1.6056,1.6032,1.5463,1.4758,1.4335,1.438,1.4419,2.6333,2.6426,2.6547,2.6841,2.7134,2.7428,2.7722,2.7976,2.8221,2.8221,2.8221,2.8221,2.8221,2.8221,2.8127,2.7789,2.7268,2.6921,2.6827,2.6507,2.6213,2.605,2.5778,2.5772,2.6173,2.5971,2.6286,2.7046,2.6756,2.679,2.72,2.72,2.72,2.72,2.72,2.701,2.666,2.6359,2.5945,2.5549,2.5246,2.5103,2.5103,2.5103,2.5103,2.5103,2.5103,2.5103,2.5119,2.5167,2.5183,2.5122,2.4904,2.4789,2.4751,2.4656,2.5375,2.6039,2.5779,2.6479,2.7359,2.7661,2.7467,2.7076,2.6354,2.5651,2.5144,2.4678,2.4595,2.4616,2.44,2.4994,2.517,2.428,2.3901,2.3651,2.334,0.0,2.1666,2.1624,2.1583,2.1484,2.1276,2.1737,2.2004,2.1963,2.302,2.3581,2.3273,2.4422,2.501,2.4836,2.5558,2.601,2.597,2.5598,2.4737,2.3344,2.2334,2.0841,1.8884,1.7001,1.613,1.6196,1.5456,1.5867,1.7108,1.641,1.5984,1.578,1.6032,1.552,1.4726,1.4676,1.478,1.4539,2.6333,2.6587,2.6854,2.7148,2.7442,2.7736,2.8114,2.8194,2.8221,2.8221,2.8221,2.8221,2.8221,2.8221,2.8207,2.8167,2.7762,2.7348,2.6854,2.6319,2.5999,2.6037,2.6033,2.6154,2.6173,2.6343,2.652,2.6695,2.6634,2.679,2.72,2.72,2.72,2.72,2.72,2.701,2.666,2.6359,2.5945,2.5549,2.5246,2.5103,2.5103,2.5103,2.5103,2.5103,2.5103,2.5103,2.5151,2.5453,2.5485,2.5549,2.5834,2.5698,2.5424,2.5398,2.5722,2.61,2.6039,2.6822,2.7661,2.7725,2.7636,2.7542,2.7146,2.6843,2.6459,2.5579,2.56,2.5775,2.5703,2.56,2.5471,2.5301,2.4782,2.407,2.2959,0.0,2.2921,2.1741,2.2505,2.2827,2.1923,2.2151,2.2645,2.338,2.3407,2.3901,2.5037,2.509,2.5291,2.5732,2.5879,2.5838,2.5585,2.5291,2.3997,2.1689,2.1972,2.0776,1.8513,1.8298,1.7819,1.7191,1.7026,1.6698,1.6262,1.6683,1.6444,1.5828,1.6256,1.6086,1.5513,1.4589,1.4505,1.4539,2.656,2.66,2.6694,2.7041,2.7308,2.7509,2.7655,2.802,2.8221,2.8221,2.8221,2.8221,2.8221,2.8221,2.8221,2.8221,2.7869,2.7575,2.7308,2.6747,2.636,2.6199,2.6543,2.6975,2.7511,2.7855,2.7848,2.743,2.743,2.7369,2.72,2.72,2.72,2.72,2.72,2.701,2.666,2.6359,2.5945,2.5549,2.5246,2.5103,2.5135,2.5326,2.5389,2.5389,2.5389,2.5516,2.5659,2.5643,2.5755,2.5913,2.5874,2.5766,2.5672,2.584,2.5993,2.6182,2.6584,2.7185,2.7725,2.7725,2.7868,2.7884,2.7531,2.726,2.6937,2.6493,2.6778,2.7118,2.7181,2.7755,2.8016,2.7404,2.648,0.0,2.5576,2.4357,2.3666,2.4363,2.3854,2.3495,2.3584,2.3485,2.3621,2.4195,2.4262,2.4636,2.5464,2.5764,2.5881,2.5705,2.5718,2.5651,2.5518,2.5064,2.3629,2.1121,2.136,2.0304,1.8021,1.7759,1.7423,1.7124,1.6811,1.6689,1.6772,1.6515,1.6503,1.6491,1.6825,1.6762,1.6419,1.6031,1.5705,1.5074,2.668,2.6547,2.6533,2.6961,2.7161,2.7308,2.7537,2.7939,2.8221,2.8221,2.8221,2.8221,2.8221,2.8221,2.8221,2.8221,2.8187,2.8025,2.7709,2.7622,2.7188,2.6507,2.7001,2.7842,2.8819,2.9136,2.8948,2.8217,2.8217,2.7868,2.72,2.72,2.72,2.72,2.72,2.7057,2.6771,2.6487,2.612,2.585,2.55,2.5342,2.5373,2.5659,2.5755,2.5755,2.5755,2.5929,2.6184,2.5945,2.6057,2.6262,2.6036,2.5947,2.6008,2.6398,2.6553,2.6718,2.7115,2.7455,2.7725,2.7725,2.7915,2.7994,2.7779,2.7516,2.7331,2.7331,2.8058,2.869,2.8666,2.9887,3.0536,2.935,0.0,2.7401,2.7365,2.5249,2.4313,2.5785,2.478,2.4135,2.4705,2.449,2.4449,2.481,2.5487,2.6047,2.6274,2.6965,2.6819,2.5715,2.5487,2.5411,2.5411,2.489,2.3513,2.14,2.1158,2.0005,1.8116,1.7317,1.696,1.6984,1.6481,1.6548,1.6966,1.6458,1.6512,1.7003,1.736,1.7279,1.7073,1.6944,1.6376,1.5201,2.6413,2.64,2.6573,2.7148,2.7255,2.7537,2.8087,2.8194,2.8221,2.8221,2.8221,2.8221,2.8221,2.8221,2.8221,2.8221,2.8964,2.891,2.7805,2.8956,2.8792,2.6881,2.7382,2.8268,2.9201,2.9314,2.8948,2.8217,2.8217,2.7868,2.72,2.72,2.72,2.72,2.72,2.7185,2.7137,2.6787,2.6628,2.6565,2.628,2.6136,2.6136,2.6168,2.6168,2.6168,2.6168,2.6184,2.6264,2.6501,2.6613,2.6692,2.6991,2.7102,2.7165,2.7447,2.7763,2.7942,2.7375,2.7455,2.7725,2.7725,2.7757,2.7784,2.8116,2.818,2.8079,2.8079,2.9306,3.0292,3.011,3.1029,3.1439,3.0296,0.0,0.0,2.5627,2.5298,2.4802,2.3378,2.4385,2.4939,2.43,2.4436,2.4836,2.5411,2.7244,2.8431,2.8529,2.9169,2.8492,2.6215,2.5479,2.5117,2.5117,2.4796,2.3957,2.267,2.1709,2.0616,1.9352,1.8338,1.7597,1.6975,1.6912,1.6517,1.5869,1.6598,1.6888,1.6783,1.7401,1.739,1.6877,1.5905,1.5262,1.4465,2.6707,2.656,2.6694,2.7725,2.7899,2.7966,2.8194,2.8221,2.8221,2.8221,2.8221,2.8221,2.8221,2.8221,2.8221,2.8221,2.8978,2.9342,2.8813,2.9678,2.9749,2.8564,2.8623,2.8923,2.9631,2.9409,2.9059,2.8567,2.8567,2.8313,2.7836,2.7629,2.7534,2.7518,2.7296,2.72,2.7185,2.6819,2.6676,2.6644,2.6343,2.6216,2.6232,2.6455,2.6534,2.6534,2.6534,2.6613,2.6787,2.6708,2.6819,2.7026,2.7153,2.72,2.7232,2.7359,2.7645,2.7868,2.7598,2.7772,2.7931,2.7502,2.7566,2.782,2.8154,2.8607,2.9036,2.9498,3.096,3.2173,3.2052,3.2692,3.3013,3.2302,0.0,2.8968,2.7659,2.6503,2.585,2.5813,2.5897,2.6128,2.6561,2.6314,2.6263,2.6612,2.7389,2.7969,2.8157,2.7773,2.7216,2.6416,2.5354,2.489,2.5077,2.4783,2.3957,2.2819,2.1644,2.0482,1.9288,1.829,1.7654,1.7423,1.7759,1.7709,1.7387,1.7709,1.7824,1.7732,1.7284,1.7065,1.6783,1.5839,1.5105,1.4253,2.6734,2.672,2.6974,2.806,2.8221,2.81,2.7655,2.7993,2.8181,2.806,2.8154,2.8221,2.8221,2.8221,2.8278,2.8436,2.9258,2.9758,2.9758,3.0384,3.045,2.9762,2.9473,2.939,2.9765,2.9472,2.9123,2.8773,2.8773,2.8583,2.8217,2.7995,2.7836,2.7725,2.7471,2.7312,2.7185,2.6946,2.6835,2.6819,2.6581,2.6534,2.6566,2.6756,2.6835,2.6835,2.6835,2.6994,2.7169,2.6914,2.6994,2.72,2.72,2.728,2.7407,2.7629,2.7868,2.8127,2.847,2.885,2.8931,2.8235,2.8505,2.8954,2.9253,2.9749,3.0411,3.0874,3.2366,3.3505,3.3375,3.4011,3.4336,3.3887,3.1829,3.0135,2.9626,2.7781,2.6755,2.7331,2.6919,2.6864,2.7665,2.7318,2.7086,2.7408,2.8014,2.8547,2.8954,2.7674,2.6808,2.6486,2.5267,2.469,2.481,2.469,2.4179,2.3351,2.2148,2.1251,2.0639,1.9309,1.8732,1.8658,1.8799,1.8647,1.8258,1.8404,1.8276,1.8065,1.7126,1.652,1.6205,1.5415,1.4582,1.3756,2.6386,2.6854,2.7442,2.8114,2.8221,2.7832,2.6587,2.7388,2.8087,2.7698,2.798,2.8221,2.8234,2.8234,2.8436,2.8965,2.9842,3.0334,3.0334,3.1166,3.1213,3.019,2.9808,2.9696,2.9765,2.9488,2.9123,2.8773,2.8773,2.8583,2.8233,2.8233,2.8058,2.7741,2.7673,2.7534,2.72,2.72,2.72,2.72,2.72,2.72,2.72,2.72,2.72,2.72,2.72,2.72,2.72,2.72,2.72,2.72,2.72,2.7455,2.7868,2.8567,2.8773,2.9039,3.016,3.0778,3.0862,3.012,3.0734,3.1612,3.1612,3.1847,3.2132,3.2132,3.3262,3.4184,3.3792,3.4633,3.5254,3.4785,3.2903,3.1349,3.0857,2.8991,2.7462,2.707,2.7027,2.7027,2.7027,2.7027,2.7159,2.7393,2.932,3.0848,3.1532,2.9713,2.7931,2.6543,2.5267,2.4489,2.4209,2.4489,2.4636,2.4562,2.3426,2.3264,2.3931,2.1924,2.0925,2.0692,2.0026,1.9133,1.798,1.8267,1.8106,1.7573,1.6796,1.5939,1.508,1.4289,1.3533,1.2956,2.6386,2.6533,2.6707,2.6881,2.7671,2.8114,2.7752,2.7645,2.7712,2.802,2.8154,2.8389,2.9062,2.9146,2.9439,3.0188,3.0795,3.1492,3.2143,3.2702,3.2548,3.1732,3.1151,3.0565,2.9854,2.9727,2.9488,2.9139,2.9139,2.9091,2.8964,2.8726,2.8551,2.844,2.7947,2.7677,2.7566,2.7312,2.72,2.7232,2.7471,2.7566,2.7566,2.7566,2.7566,2.7534,2.7296,2.72,2.72,2.72,2.72,2.7248,2.7502,2.7804,2.8122,2.8329,2.8567,2.9039,3.016,3.1338,3.1983,3.1265,3.1555,3.1954,3.1954,3.2675,3.3476,3.4029,3.4859,3.5577,3.575,3.5831,3.5879,3.6055,3.4626,3.3317,3.2983,3.142,3.026,3.0146,3.0162,3.0376,3.096,3.1031,3.0993,3.1111,3.0969,3.0985,3.1128,2.8794,2.7481,2.74,2.5382,2.4195,2.3901,2.4396,2.4857,2.5433,2.424,2.4079,2.473,2.19,2.0522,2.0384,1.9118,1.8356,1.7971,1.8116,1.7664,1.6966,1.5837,1.4895,1.3966,1.2251,1.1504,1.1227,2.6386,2.6386,2.6386,2.6386,2.7175,2.7859,2.7779,2.7725,2.7779,2.7936,2.8154,2.8558,2.9398,2.9481,2.9926,3.101,3.1757,3.2346,3.2714,3.3112,3.2952,3.2237,3.1824,3.1109,3.0044,2.9886,2.9647,2.9298,2.9298,2.9298,2.9298,2.9075,2.89,2.8742,2.817,2.8056,2.8319,2.8158,2.8179,2.8411,2.8537,2.8367,2.814,2.7956,2.7757,2.7534,2.7582,2.7439,2.7248,2.7518,2.7614,2.7661,2.8027,2.8186,2.8281,2.8567,2.9061,2.9773,3.1026,3.2349,3.3306,3.336,3.3502,3.3619,3.3619,3.4296,3.5002,3.5325,3.5962,3.6504,3.6426,3.6348,3.6367,3.6621,3.5508,3.4492,3.4293,3.3074,3.2174,3.1965,3.1947,3.2018,3.2035,3.2035,3.2035,3.2035,3.1384,3.1031,3.1031,2.846,2.7006,2.7122,2.5241,2.4008,2.3607,2.4062,2.4761,2.58,2.5051,2.5258,2.621,2.3239,2.1527,2.0928,1.8977,1.7673,1.6905,1.6986,1.6731,1.6083,1.4999,1.4253,1.3428,1.134,1.0563,1.0408,2.6426,2.6413,2.6386,2.6386,2.6854,2.7188,2.7028,2.7655,2.8127,2.7776,2.8033,2.8615,2.9481,2.9621,3.0227,3.1625,3.2571,3.287,3.2458,3.2762,3.265,3.1999,3.1935,3.1427,3.0394,3.0044,2.9695,2.9345,2.9314,2.9298,2.9298,2.9298,2.9123,2.8805,2.8478,2.8728,2.9379,2.9429,2.9788,3.0248,3.0104,2.9581,2.8825,2.8542,2.7936,2.7375,2.7995,2.7888,2.7525,2.8148,2.8318,2.8329,2.8662,2.8567,2.844,2.9107,2.9911,3.0835,3.2298,3.3484,3.459,3.5743,3.6055,3.6074,3.6035,3.6328,3.6504,3.6152,3.666,3.6953,3.6211,3.6406,3.668,3.6719,3.5864,3.5196,3.5196,3.4173,3.3304,3.2929,3.2736,3.2316,3.1243,3.1138,3.1051,3.0909,3.0909,3.0909,3.0839,2.8372,2.6733,2.6158,2.487,2.3888,2.334,2.3594,2.4453,2.5758,2.5831,2.6575,2.7768,2.5084,2.3115,2.1668,1.9212,1.7034,1.5282,1.5445,1.5412,1.5039,1.4228,1.3756,1.3175,1.1148,1.0385,1.0092,2.668,2.6547,2.6386,2.6386,2.6747,2.7081,2.7188,2.7819,2.8207,2.814,2.848,2.9298,3.0372,3.0883,3.1696,3.2991,3.327,3.3257,3.2873,3.2969,3.2761,3.2316,3.2062,3.1554,3.0759,3.0394,3.0044,2.9711,2.9441,2.9298,2.9298,2.9298,2.925,2.9226,2.9355,2.956,2.9732,2.999,3.0201,3.0378,3.0909,3.034,2.9228,2.976,2.9139,2.8027,2.817,2.8672,2.9325,2.9475,2.9171,2.8662,2.8742,2.89,2.9091,2.925,3.0075,3.1158,3.2368,3.3484,3.459,3.5743,3.6269,3.6445,3.6094,3.6094,3.623,3.6484,3.6406,3.6348,3.6504,3.6601,3.6777,3.7109,3.6938,3.6797,3.6797,3.5576,3.443,3.4024,3.3224,3.2596,3.2386,3.2018,3.1496,3.0609,3.0556,3.033,2.9666,2.7946,2.6862,2.6519,2.479,2.3688,2.3327,2.3394,2.414,2.5508,2.6071,2.62,2.5758,2.4024,2.186,1.9499,1.7415,1.5876,1.489,1.4931,1.4541,1.3969,1.3604,1.2471,1.0932,0.9461,0.8391,0.7349,2.6587,2.6493,2.6386,2.6386,2.6787,2.7148,2.7255,2.7846,2.8221,2.8221,2.83,2.898,3.0386,3.0727,3.1456,3.3085,3.3272,3.313,3.2746,3.2587,3.2301,3.1935,3.176,3.1411,3.0871,3.0505,3.0156,2.9822,2.9472,2.9298,2.9298,2.9123,2.9043,2.9083,2.9583,3.014,3.0666,3.1599,3.2001,3.2162,3.2466,3.1434,2.9808,3.0206,2.9395,2.8058,2.8551,2.9428,3.0493,3.0806,3.0441,2.9846,2.9846,2.9638,2.9441,2.9926,3.0906,3.2018,3.3137,3.4264,3.5245,3.5879,3.6191,3.6289,3.6074,3.6328,3.6582,3.6406,3.6504,3.6641,3.666,3.6836,3.7109,3.7519,3.7422,3.7074,3.6578,3.5633,3.464,3.3678,3.3015,3.2456,3.1965,3.1548,3.1116,3.0508,2.9976,2.9514,2.9082,2.7094,2.5911,2.5615,2.4245,2.342,2.3113,2.2545,2.2767,2.3612,2.4517,2.487,2.472,2.2079,1.9595,1.7237,1.4902,1.3132,1.1848,1.1848,1.1629,1.117,1.0646,1.0133,0.9283,0.7256,0.5787,0.4547,2.6386,2.6386,2.6386,2.6386,2.6841,2.7215,2.7188,2.7696,2.814,2.8127,2.7982,2.8427,3.0133,3.0331,3.1011,3.2792,3.2921,3.2792,3.2394,3.2077,3.1792,3.149,3.1427,3.122,3.0946,3.0505,3.0156,2.9822,2.9472,2.9298,2.9282,2.8932,2.8898,2.9093,2.9829,3.0752,3.185,3.3341,3.4032,3.4173,3.4022,3.2581,3.0495,3.0652,2.955,2.8027,2.8964,3.0069,3.1121,3.212,3.1966,3.133,3.1398,3.0672,3.0085,3.1115,3.214,3.3155,3.4038,3.5089,3.6016,3.6016,3.6074,3.6113,3.6035,3.6562,3.6875,3.6172,3.6582,3.6973,3.6621,3.6894,3.7305,3.7656,3.7339,3.663,3.5612,3.487,3.3939,3.2579,3.2246,3.1754,3.0835,3.031,3.0076,2.9921,2.9005,2.8296,2.809,2.6014,2.4736,2.4303,2.3676,2.318,2.2928,2.176,2.1249,2.1331,2.1882,2.2517,2.3093,1.9953,1.7233,1.4807,1.2462,1.0322,0.8547,0.8547,0.8472,0.8244,0.7572,0.7506,0.7523,0.4979,0.3323,0.2192,2.6386,2.6386,2.6386,2.6386,2.6734,2.6987,2.6894,2.7375,2.7736,2.7738,2.8139,2.8865,3.017,3.1332,3.2207,3.2499,3.2456,3.2427,3.2394,3.2077,3.1903,3.1856,3.1554,3.122,3.0946,3.0505,3.0156,2.9822,2.9472,2.9298,2.9282,2.8932,2.925,3.011,3.0907,3.1832,3.2903,3.4087,3.4595,3.4668,3.5043,3.3621,3.1425,3.212,3.085,2.8694,2.9139,3.0069,3.1313,3.3342,3.3309,3.2509,3.2914,3.265,3.2316,3.2844,3.3477,3.4107,3.4245,3.5089,3.6016,3.6016,3.6309,3.6484,3.6113,3.6113,3.6152,3.6035,3.6113,3.6172,3.6113,3.6465,3.6777,3.6836,3.6316,3.5646,3.5149,3.334,3.1827,3.1294,3.0337,2.9712,2.9568,2.8905,2.8297,2.7687,2.7139,2.6321,2.508,2.4932,2.4454,2.3467,2.3327,2.318,2.2928,2.176,2.0873,2.0249,1.8466,1.7908,1.8435,1.8361,1.5948,1.1823,1.1339,0.9986,0.8183,0.8183,0.7815,0.7225,0.7079,0.6103,0.4614,0.324,0.2181,0.1416,2.6386,2.6386,2.6386,2.6386,2.6667,2.6881,2.6827,2.7188,2.7482,2.7453,2.7948,2.8686,2.9604,3.1154,3.2126,3.2126,3.2125,3.2076,3.2093,3.1776,3.1617,3.1617,3.1474,3.1125,3.0569,3.0394,3.006,2.9536,2.9377,2.9298,2.9298,2.9553,2.9834,3.0119,3.1933,3.2924,3.3188,3.4748,3.5312,3.5098,3.5312,3.383,3.1549,3.2116,3.0852,2.8946,2.9938,3.0977,3.2158,3.3762,3.4186,3.3952,3.3897,3.3495,3.3109,3.3687,3.4029,3.4452,3.5089,3.5587,3.6016,3.6016,3.6172,3.625,3.6055,3.6016,3.6016,3.6016,3.6016,3.6094,3.6348,3.6543,3.653,3.6131,3.5619,3.4799,3.334,3.2062,3.0948,3.0157,2.9568,2.9075,2.8458,2.7904,2.7254,2.6364,2.5569,2.4833,2.423,2.3942,2.354,2.3073,2.3073,2.273,2.1966,2.0792,1.9588,1.817,1.6564,1.596,1.6424,1.4871,1.2792,1.0187,0.8977,0.7588,0.625,0.5766,0.5313,0.4947,0.4073,0.2993,0.1838,0.1775,0.1256,0.0515]},{"header":{"parameterUnit":"m.s-1","parameterCategory":1,"la1":30.6,"la2":28.766,"lo1":-90.7593,"lo2":-88.6598,"dy":0.0162,"dx":0.0183,"nx":116,"ny":114,"refTime":"2023-09-27T18:00:00:Z","depth":0,"parameterNumber":3,"parameterNumberName":"V-component_of_WINDS"},"data":[0.0,0.0,0.0,0.0,0.0,0.0,0.0,0.0,0.0,0.0,0.0,0.0,0.0,0.0,0.0,0.0,0.0,0.0,0.0,0.0,0.0,0.0,0.0,0.0,0.0,0.0,0.0,0.0,0.0,0.0,0.0,0.0,0.0,0.0,0.0,0.0,0.0,0.0,0.0,0.0,0.0,0.0,0.0,0.0,0.0,0.0,0.0,0.0,0.0,0.0,0.0,0.0,0.0,0.0,0.0,0.0,0.0,0.0,0.0,0.0,0.0,0.0,0.0,0.0,0.0,0.0,0.0,0.0,0.0,0.0,0.0,0.0,0.0,0.0,0.0,0.0,0.0,0.0,0.0,0.0,0.0,0.0,0.0,0.0,0.0,0.0,0.0,0.0,0.0,0.0,0.0,0.0,0.0,0.0,0.0,0.0,0.0,0.0,0.0,0.0,0.0,0.0,0.0,0.0,0.0,0.0,0.0,0.0,0.0,0.0,0.0,0.0,0.0,0.0,0.0,0.0,0.0,0.0,0.0,0.0,0.0,0.0,0.0,0.0,0.0,0.0,0.0,0.0,0.0,0.0,0.0,0.0,0.0,0.0,0.0,0.0,0.0,0.0,0.0,0.0,0.0,0.0,0.0,0.0,0.0,0.0,0.0,0.0,0.0,0.0,0.0,0.0,0.0,0.0,0.0,0.0,0.0,0.0,0.0,0.0,0.0,0.0,0.0,0.0,0.0,0.0,0.0,0.0,0.0,0.0,0.0,0.0,0.0,0.0,0.0,0.0,0.0,0.0,0.0,0.0,0.0,0.0,0.0,0.0,0.0,0.0,0.0,0.0,0.0,0.0,0.0,0.0,0.0,0.0,0.0,0.0,0.0,0.0,0.0,0.0,0.0,0.0,0.0,0.0,0.0,0.0,0.0,0.0,0.0,0.0,0.0,0.0,0.0,0.0,0.0,0.0,0.0,0.0,0.0,0.0,0.0,0.0,0.0,0.0,0.0,0.0,0.0,0.0,0.0,0.0,0.0,0.0,0.0,0.0,0.0,0.0,0.0,0.0,0.0,0.0,0.0,0.0,0.0,0.0,0.0,0.0,0.0,0.0,0.0,0.0,0.0,0.0,0.0,0.0,0.0,0.0,0.0,0.0,0.0,0.0,0.0,0.0,0.0,0.0,0.0,0.0,0.0,0.0,0.0,0.0,0.0,0.0,0.0,0.0,0.0,0.0,0.0,0.0,0.0,0.0,0.0,0.0,0.0,0.0,0.0,0.0,0.0,0.0,0.0,0.0,0.0,0.0,0.0,0.0,0.0,0.0,0.0,0.0,0.0,0.0,0.0,0.0,0.0,0.0,0.0,0.0,0.0,0.0,0.0,0.0,0.0,0.0,0.0,0.0,0.0,0.0,0.0,0.0,0.0,0.0,0.0,0.0,0.0,0.0,0.0,0.0,0.0,0.0,0.0,0.0,0.0,0.0,0.0,0.0,0.0,0.0,0.0,0.0,0.0,0.0,0.0,0.0,0.0,0.0,0.0,0.0,0.0,0.0,0.0,0.0,0.0,0.0,0.0,0.0,0.0,0.0,0.0,0.0,0.0,0.0,0.0,0.0,0.0,0.0,0.0,0.0,0.0,0.0,0.0,0.0,0.0,0.0,0.0,0.0,0.0,0.0,0.0,0.0,0.0,0.0,0.0,0.0,0.0,0.0,0.0,0.0,0.0,0.0,0.0,0.0,0.0,0.0,0.0,0.0,0.0,0.0,0.0,0.0,0.0,0.0,0.0,0.0,0.0,0.0,0.0,0.0,0.0,0.0,0.0,0.0,0.0,0.0,0.0,0.0,0.0,0.0,0.0,0.0,0.0,0.0,0.0,0.0,0.0,0.0,0.0,0.0,0.0,0.0,0.0,0.0,0.0,0.0,0.0,0.0,0.0,0.0,0.0,0.0,0.0,0.0,0.0,0.0,0.0,0.0,0.0,0.0,0.0,0.0,0.0,0.0,0.0,0.0,0.0,0.0,0.0,0.0,0.0,0.0,0.0,0.0,0.0,0.0,0.0,0.0,0.0,0.0,0.0,0.0,0.0,0.0,0.0,0.0,0.0,0.0,0.0,0.0,0.0,0.0,0.0,0.0,0.0,0.0,0.0,0.0,0.0,0.0,0.0,0.0,0.0,0.0,0.0,0.0,0.0,0.0,0.0,0.0,0.0,0.0,0.0,0.0,0.0,0.0,0.0,0.0,0.0,0.0,0.0,0.0,0.0,0.0,0.0,0.0,0.0,0.0,0.0,0.0,0.0,0.0,0.0,0.0,0.0,0.0,0.0,0.0,0.0,0.0,0.0,0.0,0.0,0.0,0.0,0.0,0.0,0.0,0.0,0.0,0.0,0.0,0.0,0.0,0.0,0.0,0.0,0.0,0.0,0.0,0.0,0.0,0.0,0.0,0.0,0.0,0.0,0.0,0.0,0.0,0.0,0.0,0.0,0.0,0.0,0.0,0.0,0.0,0.0,0.0,0.0,0.0,0.0,0.0,0.0,0.0,0.0,0.0,0.0,0.0,0.0,0.0,0.0,0.0,0.0,0.0,0.0,0.0,0.0,0.0,0.0,0.0,0.0,0.0,0.0,0.0,0.0,0.0,0.0,0.0,0.0,0.0,0.0,0.0,0.0,0.0,0.0,0.0,0.0,0.0,0.0,0.0,0.0,0.0,0.0,0.0,0.0,0.0,0.0,0.0,0.0,0.0,0.0,0.0,0.0,0.0,0.0,0.0,0.0,0.0,0.0,0.0,0.0,0.0,0.0,0.0,0.0,0.0,0.0,0.0,0.0,0.0,0.0,0.0,0.0,0.0,0.0,0.0,0.0,0.0,0.0,0.0,0.0,0.0,0.0,0.0,0.0,0.0,0.0,0.0,0.0,0.0,0.0,0.0,0.0,0.0,0.0,0.0,0.0,0.0,0.0,0.0,0.0,0.0,0.0,0.0,0.0,0.0,0.0,0.0,0.0,0.0,0.0,0.0,0.0,0.0,0.0,0.0,0.0,0.0,0.0,0.0,0.0,0.0,0.0,0.0,0.0,0.0,0.0,0.0,0.0,0.0,0.0,0.0,0.0,0.0,0.0,0.0,0.0,0.0,0.0,0.0,0.0,0.0,0.0,0.0,0.0,0.0,0.0,0.0,0.0,0.0,0.0,0.0,0.0,0.0,0.0,0.0,0.0,0.0,0.0,0.0,0.0,0.0,0.0,0.0,0.0,0.0,0.0,0.0,0.0,0.0,0.0,0.0,0.0,0.0,0.0,0.0,0.0,0.0,0.0,0.0,0.0,0.0,0.0,0.0,0.0,0.0,0.0,0.0,0.0,0.0,0.0,0.0,0.0,0.0,0.0,0.0,0.0,0.0,0.0,0.0,0.0,0.0,0.0,0.0,0.0,0.0,0.0,0.0,0.0,0.0,0.0,0.0,0.0,0.0,0.0,0.0,0.0,0.0,0.0,0.0,0.0,0.0,0.0,0.0,0.0,0.0,0.0,0.0,0.0,0.0,0.0,0.0,0.0,0.0,0.0,0.0,0.0,0.0,0.0,0.0,0.0,0.0,0.0,0.0,0.0,0.0,0.0,0.0,0.0,0.0,0.0,0.0,0.0,0.0,0.0,0.0,0.0,0.0,0.0,0.0,0.0,0.0,0.0,0.0,0.0,0.0,0.0,0.0,0.0,0.0,0.0,0.0,0.0,0.0,0.0,0.0,0.0,0.0,0.0,0.0,0.0,0.0,0.0,0.0,0.0,0.0,0.0,0.0,0.0,0.0,0.0,0.0,0.0,0.0,0.0,0.0,0.0,0.0,0.0,0.0,0.0,0.0,0.0,0.0,0.0,0.0,0.0,0.0,0.0,0.0,0.0,0.0,0.0,0.0,0.0,0.0,0.0,0.0,0.0,0.0,0.0,0.0,0.0,0.0,0.0,0.0,0.0,0.0,0.0,0.0,0.0,0.0,0.0,0.0,0.0,0.0,0.0,0.0,0.0,0.0,0.0,0.0,0.0,0.0,0.0,0.0,0.0,0.0,0.0,0.0,0.0,0.0,0.0,0.0,0.0,0.0,0.0,0.0,0.0,0.0,0.0,0.0,0.0,0.0,0.0,0.0,0.0,0.0,0.0,0.0,0.0,0.0,0.0,0.0,0.0,0.0,0.0,0.0,0.0,0.0,0.0,0.0,0.0,0.0,0.0,0.0,0.0,0.0,0.0,0.0,0.0,0.0,0.0,0.0,0.0,0.0,0.0,0.0,0.0,0.0,0.0,0.0,0.0,0.0,0.0,0.0,0.0,0.0,0.0,0.0,0.0,0.0,0.0,0.0,0.0,0.0,0.0,0.0,0.0,0.0,0.0,0.0,0.0,0.0,0.0,0.0,0.0,0.0,0.0,0.0,0.0,0.0,0.0,0.0,0.0,0.0,0.0,0.0,0.0,0.0,0.0,0.0,0.0,0.0,0.0,0.0,0.0,0.0,0.0,0.0,0.0,0.0,0.0,0.0,0.0,0.0,0.0,0.0,0.0,0.0,0.0,0.0,0.0,0.0,0.0,0.0,0.0,0.0,0.0,0.0,0.0,0.0,0.0,0.0,0.0,0.0,0.0,0.0,0.0,0.0,0.0,0.0,0.0,0.0,0.0,0.0,0.0,0.0,0.0,0.0,0.0,0.0,0.0,0.0,0.0,0.0,0.0,0.0,0.0,0.0,0.0,0.0,0.0,0.0,0.0,0.0,0.0,0.0,0.0,0.0,0.0,0.0,0.0,0.0,0.0,0.0,0.0,0.0,0.0,0.0,0.0,0.0,0.0,0.0,0.0,0.0,0.0,0.0,0.0,0.0,0.0,0.0,0.0,0.0,0.0,0.0,0.0,0.0,0.0,0.0,0.0,0.0,0.0,0.0,0.0,0.0,0.0,0.0,0.0,0.0,0.0,0.0,0.0,0.0,0.0,0.0,0.0,0.0,0.0,0.0,0.0,0.0,0.0,0.0,0.0,0.0,0.0,0.0,0.0,0.0,0.0,0.0,0.0,0.0,0.0,0.0,0.0,0.0,0.0,0.0,0.0,0.0,0.0,0.0,0.0,0.0,0.0,0.0,0.0,0.0,0.0,0.0,0.0,0.0,0.0,0.0,0.0,0.0,0.0,0.0,0.0,0.0,0.0,0.0,0.0,0.0,0.0,0.0,0.0,0.0,0.0,0.0,0.0,0.0,0.0,0.0,0.0,0.0,0.0,0.0,0.0,0.0,0.0,0.0,0.0,0.0,0.0,0.0,0.0,0.0,0.0,0.0,0.0,0.0,0.0,0.0,0.0,0.0,0.0,0.0,0.0,0.0,0.0,0.0,0.0,0.0,0.0,0.0,0.0,0.0,0.0,0.0,0.0,0.0,0.0,0.0,0.0,0.0,0.0,0.0,0.0,0.0,0.0,0.0,0.0,0.0,0.0,0.0,0.0,0.0,0.0,0.0,0.0,0.0,0.0,0.0,0.0,0.0,0.0,0.0,0.0,0.0,0.0,0.0,0.0,0.0,0.0,0.0,0.0,0.0,0.0,0.0,0.0,0.0,0.0,0.0,0.0,0.0,0.0,0.0,0.0,0.0,0.0,0.0,0.0,0.0,0.0,0.0,0.0,0.0,0.0,0.0,0.0,0.0,0.0,0.0,0.0,0.0,0.0,0.0,0.0,0.0,0.0,0.0,0.0,0.0,0.0,0.0,0.0,0.0,0.0,0.0,0.0,0.0,0.0,0.0,0.0,0.0,0.0,0.0,0.0,0.0,0.0,0.0,0.0,0.0,0.0,0.0,0.0,0.0,0.0,0.0,0.0,0.0,0.0,0.0,0.0,0.0,0.0,0.0,0.0,0.0,0.0,0.0,0.0,0.0,0.0,0.0,0.0,0.0,0.0,0.0,0.0,0.0,0.0,0.0,0.0,0.0,0.0,0.0,0.0,0.0,0.0,0.0,0.0,0.0,0.0,0.0,0.0,0.0,0.0,0.0,0.0,0.0,0.0,0.0,0.0,0.0,0.0,0.0,0.0,0.0,0.0,0.0,0.0,0.0,0.0,0.0,0.0,0.0,0.0,0.0,4.5039,4.3975,0.0,0.0,0.0,0.0,0.0,0.0,0.0,0.0,0.0,0.0,0.0,0.0,0.0,0.0,0.0,0.0,0.0,0.0,0.0,0.0,0.0,0.0,0.0,0.0,0.0,0.0,0.0,0.0,0.0,0.0,0.0,0.0,0.0,0.0,0.0,0.0,0.0,2.6592,2.7055,2.7934,2.9186,2.9929,2.9717,2.8778,0.0,0.0,0.0,0.0,0.0,0.0,0.0,0.0,0.0,0.0,0.0,0.0,0.0,0.0,0.0,0.0,0.0,0.0,0.0,0.0,0.0,0.0,0.0,0.0,0.0,0.0,0.0,0.0,0.0,0.0,0.0,0.0,0.0,0.0,0.0,0.0,0.0,0.0,0.0,0.0,0.0,0.0,0.0,0.0,0.0,0.0,0.0,0.0,0.0,0.0,0.0,0.0,0.0,0.0,0.0,0.0,0.0,0.0,0.0,0.0,0.0,0.0,0.0,0.0,0.0,0.0,0.0,0.0,0.0,0.0,4.9774,4.7058,0.0,0.0,0.0,0.0,0.0,0.0,0.0,0.0,0.0,0.0,0.0,0.0,0.0,0.0,0.0,0.0,0.0,0.0,0.0,0.0,0.0,0.0,0.0,2.5498,2.5546,2.5592,2.5473,2.5462,0.0,0.0,0.0,0.0,0.0,0.0,2.5727,2.5727,2.6617,2.8453,2.8989,3.1091,3.4647,3.5276,3.4028,3.1233,3.205,0.0,0.0,0.0,0.0,0.0,0.0,0.0,0.0,0.0,0.0,0.0,0.0,0.0,0.0,0.0,0.0,0.0,0.0,0.0,0.0,0.0,0.0,0.0,0.0,0.0,0.0,0.0,0.0,0.0,0.0,0.0,0.0,0.0,0.0,0.0,0.0,0.0,0.0,0.0,0.0,0.0,0.0,0.0,0.0,0.0,0.0,0.0,0.0,0.0,0.0,0.0,0.0,0.0,0.0,0.0,0.0,0.0,0.0,0.0,0.0,0.0,0.0,0.0,5.8621,5.9795,6.075,6.2475,6.2585,6.1092,5.7116,5.2858,4.8837,4.9517,0.0,0.0,0.0,0.0,0.0,0.0,0.0,0.0,0.0,0.0,0.0,0.0,0.0,0.0,0.0,0.0,0.0,0.0,0.0,0.0,0.0,2.5483,2.5756,2.6398,2.5862,2.5798,2.6486,0.0,0.0,0.0,0.0,0.0,2.6627,2.6627,2.7789,3.0169,3.291,3.5637,3.8303,3.8859,3.8898,3.8325,3.5972,3.5571,3.6501,0.0,0.0,0.0,0.0,0.0,0.0,0.0,0.0,0.0,0.0,0.0,0.0,0.0,0.0,0.0,0.0,0.0,0.0,0.0,0.0,0.0,0.0,0.0,0.0,0.0,0.0,0.0,0.0,0.0,0.0,0.0,0.0,0.0,0.0,0.0,0.0,0.0,0.0,0.0,0.0,0.0,4.4214,4.4214,0.0,0.0,0.0,0.0,0.0,0.0,0.0,0.0,0.0,0.0,0.0,0.0,0.0,5.7189,5.9979,6.2475,6.3466,6.3025,6.7357,6.8421,6.6659,6.8972,6.9898,6.9642,6.9018,0.0,5.528,5.1977,0.0,0.0,0.0,0.0,0.0,0.0,0.0,0.0,0.0,0.0,0.0,0.0,0.0,0.0,0.0,0.0,0.0,0.0,0.0,0.0,0.0,2.7851,2.8973,3.0243,3.1801,3.1803,2.9765,2.9716,0.0,0.0,0.0,2.674,2.7639,2.8616,3.1226,3.5556,3.9234,4.2091,4.4059,4.4745,4.523,4.544,4.345,4.105,3.8322,3.5768,0.0,0.0,0.0,0.0,0.0,0.0,0.0,0.0,0.0,0.0,0.0,0.0,0.0,0.0,0.0,0.0,0.0,0.0,0.0,0.0,0.0,0.0,0.0,0.0,0.0,0.0,0.0,0.0,0.0,0.0,0.0,0.0,0.0,0.0,0.0,0.0,0.0,0.0,0.0,4.5039,4.6397,4.3681,4.6397,4.7168,0.0,0.0,0.0,0.0,0.0,0.0,0.0,0.0,0.0,5.9758,6.2291,6.4273,6.5705,6.8568,7.0293,7.0881,7.3927,7.5322,7.5212,7.6276,7.6754,7.6717,7.5799,7.2459,6.7247,6.1851,5.8217,5.5904,0.0,0.0,0.0,0.0,5.6822,5.7042,0.0,0.0,0.0,0.0,0.0,0.0,0.0,0.0,0.0,0.0,0.0,0.0,2.9226,3.1076,3.3046,3.5394,3.7058,3.6731,3.3728,3.2862,3.1394,2.8946,2.7842,2.7811,2.8945,3.191,3.6198,4.1791,4.5471,4.8095,4.967,5.0284,5.0763,5.1127,5.0055,4.6549,4.1339,3.9099,3.7074,3.5202,0.0,0.0,0.0,0.0,0.0,0.0,0.0,0.0,0.0,0.0,0.0,0.0,0.0,0.0,0.0,0.0,0.0,0.0,0.0,0.0,0.0,0.0,0.0,0.0,0.0,0.0,0.0,0.0,0.0,0.0,0.0,0.0,0.0,0.0,0.0,0.0,0.0,4.7352,4.8563,4.4342,4.8526,4.9978,0.0,0.0,0.0,0.0,0.0,0.0,5.9098,6.2144,6.4897,6.7393,7.022,7.2165,7.323,7.5579,7.7488,7.8919,8.0167,8.1269,8.2223,8.2223,8.2113,8.1856,8.0645,7.9323,7.7414,7.033,6.5264,6.1924,6.1056,6.0639,6.0676,6.2475,6.2915,6.3025,0.0,0.0,0.0,0.0,0.0,0.0,0.0,0.0,0.0,0.0,0.0,2.9304,3.2591,3.4636,3.7343,4.139,3.8949,3.7378,3.7959,3.3413,3.0661,3.0572,2.9027,2.8972,3.0742,3.7147,4.293,4.794,5.0527,5.2587,5.4154,5.4192,5.4269,5.4248,5.3797,5.1291,4.7175,4.4325,4.1789,3.9402,3.7,0.0,0.0,0.0,0.0,0.0,0.0,0.0,0.0,0.0,0.0,0.0,0.0,0.0,0.0,0.0,0.0,0.0,0.0,0.0,0.0,0.0,0.0,0.0,0.0,0.0,0.0,0.0,0.0,0.0,0.0,0.0,0.0,0.0,0.0,0.0,0.0,0.0,0.0,4.8306,5.3665,0.0,0.0,0.0,0.0,5.7336,6.0419,6.3319,6.5888,6.8348,7.1798,7.6466,7.8332,8.1085,8.4903,8.5086,8.56,8.6444,8.6554,8.6224,8.5563,8.5563,8.5123,8.4425,8.4315,8.3838,8.237,7.3523,6.9779,6.9265,6.6182,6.5888,6.721,6.7347,6.7834,6.8495,0.0,0.0,0.0,0.0,0.0,0.0,0.0,0.0,2.5476,2.5428,2.8464,3.1935,3.5325,3.9822,4.3828,4.7009,4.7131,4.5932,4.3363,3.8909,3.6339,3.6288,3.3269,3.3941,3.9018,4.3005,4.7218,5.1684,5.3591,5.5355,5.6934,5.6934,5.6934,5.6923,5.6461,5.5165,5.3025,4.8268,4.4798,4.2152,3.8523,3.7,0.0,0.0,0.0,0.0,0.0,0.0,0.0,0.0,0.0,0.0,0.0,0.0,0.0,0.0,0.0,0.0,0.0,0.0,0.0,0.0,0.0,0.0,0.0,0.0,0.0,0.0,0.0,0.0,0.0,0.0,0.0,0.0,0.0,0.0,0.0,0.0,0.0,5.6198,6.1374,0.0,5.8547,5.9905,6.1924,6.4053,6.7687,7.1358,7.4845,7.7818,8.0681,8.3471,8.4132,8.5123,8.6554,8.7105,8.7472,8.7766,8.8316,8.839,8.8096,8.7582,8.7178,8.6885,8.6371,8.6004,8.549,8.2296,7.914,7.6166,7.4515,7.3891,7.4001,7.5065,7.5652,7.5983,0.0,0.0,0.0,0.0,0.0,0.0,0.0,0.0,2.5822,2.6978,3.0963,3.5478,4.0055,4.5254,4.9453,5.2042,5.2161,5.0447,4.6574,4.2092,3.9286,3.8602,3.6626,3.8667,4.5293,4.784,5.1118,5.5208,5.6566,5.7767,5.8704,5.9011,5.9127,5.9154,5.9141,5.8616,5.7531,5.3337,4.9234,4.5319,4.2062,4.0561,3.9811,0.0,0.0,0.0,0.0,0.0,0.0,0.0,0.0,0.0,0.0,0.0,0.0,0.0,0.0,0.0,0.0,0.0,0.0,0.0,0.0,0.0,0.0,0.0,0.0,0.0,0.0,0.0,0.0,0.0,0.0,0.0,0.0,0.0,0.0,5.9024,6.3282,6.3282,6.8274,7.0367,6.6843,6.8238,7.0293,7.2422,7.6056,7.947,8.2443,8.5159,8.7105,8.8206,8.8757,8.894,8.861,8.9711,9.0115,8.9858,9.0408,9.0519,9.0225,8.9381,8.8867,8.8573,8.8059,8.7839,8.7839,8.7839,8.593,8.292,8.1856,8.1085,8.0718,8.1819,8.2223,8.226,0.0,0.0,0.0,0.0,0.0,0.0,0.0,2.5308,2.653,3.0042,3.4422,3.9821,4.6701,5.0694,5.3864,5.6339,5.3384,5.0233,4.7472,4.2456,3.8878,3.7292,3.9134,4.3027,4.8942,5.1531,5.4782,5.8723,5.9583,5.9871,5.9627,6.0473,6.0896,6.0896,6.1755,6.1606,6.0597,5.9494,5.5306,4.9272,4.7812,4.5809,4.3331,0.0,0.0,0.0,0.0,0.0,0.0,0.0,0.0,0.0,0.0,0.0,0.0,0.0,0.0,0.0,0.0,0.0,0.0,0.0,0.0,0.0,0.0,0.0,0.0,0.0,0.0,0.0,0.0,0.0,0.0,0.0,0.0,0.0,5.8345,6.4567,6.9192,6.9339,7.4228,7.6717,7.4368,7.7745,8.0755,8.2333,8.5416,8.7545,8.8316,8.9858,9.0739,9.0739,9.2281,9.2721,9.1877,9.3492,9.3896,9.3125,9.3125,9.2721,9.195,9.1106,9.0298,8.9529,8.9529,8.9529,8.9492,8.9492,8.9528,8.9308,8.7729,8.7068,8.7068,8.7068,8.7031,8.6848,0.0,0.0,0.0,0.0,0.0,0.0,0.0,2.5308,2.653,3.0042,3.5992,4.2091,4.7718,5.3781,5.742,5.7432,5.4888,5.2083,4.9338,4.325,4.0374,4.1798,4.7062,5.1628,5.524,5.7198,5.9232,6.1444,6.1677,6.1959,6.2281,6.2512,6.2627,6.2627,6.2858,6.2834,6.2515,6.1879,6.0197,5.7506,5.1952,4.9311,4.8253,0.0,0.0,0.0,0.0,0.0,0.0,0.0,0.0,0.0,0.0,0.0,0.0,0.0,0.0,0.0,0.0,0.0,0.0,0.0,0.0,0.0,0.0,0.0,0.0,0.0,0.0,0.0,0.0,0.0,0.0,0.0,6.3141,6.7667,6.7247,7.1213,7.5432,7.8993,8.2333,8.4315,8.4205,8.5747,8.7215,8.8206,9.0262,9.151,9.173,9.2721,9.3272,9.3272,9.3712,9.3859,9.3602,9.4079,9.4189,9.3969,9.3969,9.3859,9.3639,9.3382,9.3161,9.2941,9.2941,9.2611,9.2097,9.2097,9.173,9.0996,8.9381,8.8757,8.8683,8.8096,8.7142,8.6077,0.0,0.0,0.0,0.0,0.0,0.0,0.0,2.5308,2.7104,3.2081,3.7852,4.3778,4.9731,5.4997,5.7456,5.5794,5.3645,5.0769,4.6925,4.335,4.3008,4.6743,5.1702,5.5933,5.9243,6.0604,6.1842,6.2906,6.2906,6.305,6.332,6.4051,6.4397,6.4436,6.5128,6.5243,6.4885,6.4611,6.4005,6.2919,5.8649,5.5875,5.387,4.9867,4.8289,4.7721,4.4565,4.415,4.4683,4.1889,0.0,0.0,0.0,0.0,0.0,0.0,0.0,0.0,0.0,0.0,0.0,0.0,0.0,0.0,0.0,0.0,0.0,0.0,0.0,0.0,0.0,0.0,0.0,0.0,7.0846,7.6301,7.8977,8.0112,8.2223,8.6407,8.85,8.9858,9.0665,9.1179,9.1657,9.2097,9.3382,9.3969,9.3639,9.4703,9.4997,9.4299,9.496,9.496,9.4299,9.496,9.5144,9.4813,9.4813,9.4813,9.4777,9.4446,9.4299,9.4299,9.4299,9.4042,9.3602,9.3602,9.3308,9.2684,0.0,0.0,0.0,0.0,8.8683,8.7325,0.0,0.0,0.0,0.0,0.0,0.0,0.0,2.5308,2.7798,3.4734,3.9396,4.4645,5.139,5.4531,5.5185,5.275,5.0791,4.7684,4.2971,4.3815,4.6745,5.1779,5.4588,5.7883,6.1746,6.2704,6.3371,6.3928,6.3928,6.3918,6.3923,6.5474,6.6244,6.6397,6.7898,6.8167,6.7513,6.7628,6.7205,6.6462,6.6381,6.3741,5.956,5.6451,5.5353,5.4984,5.1411,4.9561,4.8457,4.6097,0.0,0.0,0.0,0.0,0.0,0.0,0.0,0.0,0.0,0.0,0.0,0.0,0.0,0.0,0.0,0.0,0.0,0.0,0.0,0.0,0.0,0.0,0.0,0.0,7.8304,8.3917,9.0701,8.9514,8.8977,9.1767,9.2758,9.3565,9.4373,9.4446,9.4483,9.4556,9.5254,9.5327,9.4593,9.5914,0.0,0.0,0.0,9.6025,9.4593,9.5988,9.6355,9.5658,9.5658,9.5658,9.5621,9.4887,9.4556,9.4556,9.4556,9.452,9.4446,9.4446,9.4373,9.4153,9.2648,9.195,9.1803,9.1803,9.0739,8.9307,0.0,0.0,0.0,0.0,0.0,0.0,0.0,2.5308,2.7571,3.3868,3.851,4.3077,4.7904,5.1445,5.2961,5.1774,4.8765,4.6532,4.5497,4.8816,5.2259,5.5396,5.9303,6.2375,6.4488,6.5356,6.6018,6.6554,6.6554,6.685,6.7423,6.7782,6.8282,6.8975,6.9283,6.9706,7.0206,7.0898,7.0706,6.9975,7.064,6.7927,6.3212,6.1462,5.998,5.8542,5.6125,5.5746,5.5808,5.2186,5.1503,5.1499,4.7171,4.4144,0.0,0.0,0.0,0.0,0.0,0.0,0.0,0.0,0.0,0.0,0.0,0.0,0.0,0.0,0.0,0.0,0.0,0.0,0.0,7.6319,8.3556,8.9816,9.3235,9.3823,9.3859,9.3822,9.3969,9.4373,9.518,9.529,9.5547,9.6171,9.6392,9.6392,9.6245,9.6539,9.6575,9.6245,9.6539,9.6539,9.6245,9.6539,9.6612,9.6465,9.6465,0.0,9.6465,9.6318,9.6245,9.6245,9.6245,9.5878,9.5254,9.5254,9.4887,9.4263,9.3932,9.2978,9.1803,9.1803,9.0372,8.8536,0.0,0.0,0.0,0.0,0.0,0.0,0.0,2.5361,2.7082,3.193,3.5624,3.9265,4.3181,4.5935,4.6953,4.5661,4.4336,4.4453,4.6672,5.1247,5.5614,5.9544,6.2903,6.5232,6.6414,6.7166,6.7841,6.8499,6.8499,6.8912,6.9667,6.9667,7.0129,7.0975,7.1398,7.2052,7.286,7.3745,7.386,7.3476,7.3937,7.2563,6.9875,6.6901,6.5065,6.3797,6.1394,6.0461,5.9854,5.6611,5.5528,5.4906,5.1052,4.8738,4.7051,0.0,0.0,0.0,0.0,0.0,0.0,0.0,0.0,0.0,0.0,0.0,0.0,0.0,0.0,6.2825,6.5644,0.0,7.8866,8.3503,8.8895,9.3161,9.5217,9.5841,9.5951,9.5547,9.5511,9.5658,9.6061,9.6098,9.6282,9.6685,9.6685,9.6685,9.6685,9.7089,9.7126,9.6722,9.7089,9.7126,9.6685,9.6685,9.6685,9.6685,9.6685,9.6685,9.6685,9.6685,9.6685,9.6685,9.6685,9.6465,9.6098,9.6098,9.5878,9.5511,9.5511,9.4263,9.2464,9.2464,9.0922,8.894,0.0,0.0,0.0,0.0,0.0,0.0,0.0,2.5434,2.6641,2.9993,3.2574,3.5213,3.8229,4.0034,4.0505,3.9096,4.0906,4.3878,4.789,5.3122,5.8375,6.3425,6.5633,6.7091,6.7829,6.8506,6.9215,6.9937,7.009,7.0591,7.1398,7.1398,7.1937,7.2976,7.386,7.4784,7.5784,7.6784,7.713,7.6976,7.6976,7.6899,7.6293,7.2056,6.9836,6.8679,6.6068,6.3709,6.1574,5.978,5.8128,5.6418,5.4106,5.3186,5.2087,4.771,4.6902,0.0,0.0,0.0,0.0,0.0,0.0,0.0,0.0,5.7002,5.9897,6.211,6.7074,7.1958,7.4925,8.0136,8.5478,9.0078,9.3051,9.5217,9.6502,9.6685,9.6759,9.6906,9.6795,9.6685,9.6685,9.6685,9.6685,9.6685,9.6685,9.6759,9.6906,9.7383,9.7419,9.6942,9.7566,9.7493,9.6722,9.6869,9.6832,9.6685,9.6685,9.6685,9.6685,9.6685,9.6685,9.6685,9.6685,9.6685,9.6685,9.6685,9.6685,9.6685,9.6685,9.5437,9.3565,9.3382,9.1877,8.9968,0.0,0.0,0.0,0.0,0.0,0.0,0.0,0.0,2.6464,2.9175,3.1137,3.2769,3.3979,3.5622,3.6558,3.6358,4.265,4.782,5.0584,5.64,6.1694,6.6163,6.7196,6.8015,6.8746,6.9399,7.0103,7.0783,7.1552,7.236,7.3206,7.3206,7.4053,7.5592,7.6476,7.7746,7.9323,8.0939,8.117,8.0516,8.0516,8.0054,7.9062,7.5978,7.3361,7.1027,6.8563,6.4622,6.0645,6.144,5.953,5.7005,5.8047,5.6923,5.4701,5.2024,4.9305,4.7088,4.6725,4.788,5.0031,5.3287,5.5426,5.8723,0.0,6.8945,7.0675,7.3824,7.7903,8.1109,8.1734,8.6503,9.0668,9.1509,9.4336,9.6502,9.6685,9.6685,9.6979,9.7676,9.7126,9.6685,9.6685,9.6685,9.6685,9.6685,9.6685,9.7016,9.7713,9.7163,9.7126,9.775,9.7823,9.7493,9.6722,9.7419,9.7419,9.6685,9.6685,9.6685,9.6685,9.6685,9.6685,9.6685,9.6685,9.6685,9.6685,9.6685,9.6685,9.6685,9.6685,9.6098,9.5144,9.4446,9.3051,9.1546,0.0,0.0,0.0,0.0,0.0,0.0,0.0,0.0,0.0,2.7064,2.8296,2.9205,2.9598,3.1158,3.2311,3.2708,3.9867,4.5896,4.9453,5.6364,6.242,6.7181,6.8015,6.873,6.9478,7.0652,7.1595,7.2399,7.3245,7.4091,7.4938,7.4437,7.513,7.6784,7.763,7.8938,8.0669,8.2362,8.2862,8.2554,8.2554,8.1699,8.0071,7.7049,7.3361,6.9429,6.639,6.3023,0.0,5.8911,5.7795,5.7079,5.8671,5.7556,5.5207,5.3261,5.1616,5.0748,5.239,5.4142,5.6327,5.9482,6.3691,6.8242,7.2773,7.6136,7.9163,8.2163,8.6244,8.9329,8.9645,9.2208,9.4568,9.5415,9.6179,9.68,9.7138,9.6509,9.5951,9.5804,9.5914,9.6575,9.797,9.7676,9.7383,9.7383,9.6942,9.7052,9.786,9.8043,9.8264,9.8594,9.8594,9.819,9.7419,9.7273,9.7016,9.6685,9.6685,9.6685,9.6685,9.6685,9.6685,9.6685,9.6685,9.6685,9.6685,9.6685,9.6685,9.6685,9.6685,9.6502,9.6098,9.529,9.3675,9.1913,0.0,0.0,0.0,0.0,0.0,0.0,0.0,0.0,0.0,0.0,2.6206,2.6675,2.6893,2.8254,2.9513,3.0457,3.7085,4.3205,4.7967,5.4913,6.129,6.6867,6.7924,6.8963,7.0235,7.1775,7.2976,7.3808,7.4668,7.5399,7.5976,7.5361,7.5976,7.7669,7.8746,8.0169,8.19,8.3593,8.417,8.3901,8.3439,8.1925,7.9577,7.5911,7.1352,6.6503,6.3689,6.0407,5.7221,5.5801,5.4907,5.484,5.6873,5.6345,5.4693,5.3555,5.313,5.3561,5.5787,5.8714,6.2081,6.6308,7.1907,7.715,7.984,8.3526,8.7034,8.9355,9.274,9.5291,9.5149,9.6201,9.7167,9.764,9.728,9.6916,9.6915,9.57,9.463,9.4042,9.4079,9.5107,9.753,9.764,9.7566,9.7566,9.7236,9.7383,9.819,9.8778,9.9218,9.9438,9.9438,9.9035,9.8227,9.786,9.7566,9.7346,9.7126,9.7016,9.7016,9.6795,9.6685,9.6685,9.6685,9.6685,9.6685,9.6685,9.6685,9.6685,9.6685,9.6685,9.6649,9.6061,9.4446,9.2611,0.0,0.0,0.0,0.0,0.0,0.0,0.0,0.0,0.0,0.0,0.0,0.0,0.0,2.7708,2.8912,3.0542,3.5555,4.1119,4.7068,5.2299,5.8208,6.51,6.6621,6.8536,7.1085,7.2661,7.386,7.4668,7.5515,7.5976,7.6015,7.5976,7.6861,7.8515,8.0246,8.1939,8.3632,8.5324,8.5555,8.4709,8.3016,8.0536,7.7337,7.2233,6.7146,6.265,6.1475,5.6948,5.1751,5.2893,5.1169,4.9114,5.236,5.3314,5.324,5.3203,5.3484,5.3963,5.4911,5.9492,6.5888,7.3517,7.916,8.4203,8.9451,9.2633,9.4717,9.5639,9.723,9.8042,9.6685,9.7801,9.833,9.6562,9.6944,9.7025,9.5771,9.4189,9.3161,9.3125,9.173,9.173,9.4189,9.5841,9.6722,9.6722,9.7419,9.819,9.9035,9.9108,9.9475,10.0209,10.0283,9.9879,9.9071,9.9805,9.9805,9.9035,9.8227,9.786,9.7823,9.7052,9.6685,9.6685,9.6685,9.6685,9.6685,9.6685,9.6685,9.6685,9.6685,9.6685,9.6685,9.6685,9.5621,9.4116,0.0,0.0,0.0,0.0,0.0,0.0,0.0,0.0,0.0,0.0,0.0,0.0,0.0,0.0,0.0,0.0,3.417,3.8631,4.289,4.9634,5.5474,5.9981,6.448,6.7479,6.8782,7.0898,7.2411,7.3234,7.3971,7.463,7.513,7.513,7.6322,7.853,7.9092,8.0631,8.2747,8.2785,8.2939,8.2885,7.9791,7.7159,7.4485,6.8299,6.2441,5.7181,0.0,5.161,4.9232,4.8565,4.7976,4.7883,5.0068,5.0031,4.9539,5.1491,5.4242,5.7827,6.3276,6.9436,7.584,8.196,8.7206,9.1622,9.454,9.6309,9.7139,9.6563,9.5204,9.3509,9.1591,9.1463,9.1852,9.2641,9.4242,9.5516,9.5956,9.5258,9.3712,9.0996,9.1143,9.1143,9.0335,9.2721,9.4997,9.6575,9.6942,9.7676,9.9035,9.9622,10.0283,10.109,10.0576,10.0209,9.9916,9.9659,9.9365,9.9108,9.8851,9.8411,9.7897,9.7603,9.7199,9.6685,9.6685,9.6685,9.6685,9.6685,9.6685,9.6685,9.6685,9.6685,9.6685,9.6685,9.6025,9.496,0.0,0.0,0.0,0.0,0.0,0.0,0.0,0.0,0.0,0.0,0.0,0.0,0.0,0.0,0.0,0.0,0.0,3.5543,3.8938,4.4696,4.9763,5.3701,5.8174,6.1178,6.2535,6.4339,6.6022,6.7454,6.854,6.9746,7.1129,7.1761,7.3224,7.5361,7.5668,7.7053,7.9131,7.8592,7.8169,7.7485,7.4002,7.0858,6.7614,6.1676,5.6609,0.0,4.8916,4.7278,4.6434,4.5369,4.5406,4.603,4.7388,4.8384,4.964,5.24,5.7076,6.318,7.136,7.7641,8.336,8.9226,9.3309,9.6193,9.7385,9.762,9.711,9.5381,9.2223,8.9112,8.6818,8.5421,8.5395,8.775,8.9572,9.1534,9.3925,9.3491,9.2134,9.0078,9.0262,9.0188,8.916,9.0959,9.3235,9.5658,9.6906,9.8007,9.9035,10.0099,10.098,10.1494,10.098,10.0686,10.0686,10.0209,9.9805,9.9548,9.9548,9.8961,9.7897,9.7897,9.7456,9.6685,9.6685,9.6685,9.6685,9.6685,9.6685,9.6685,9.6685,9.6685,9.6685,9.6392,9.5951,9.5364,0.0,0.0,0.0,0.0,0.0,0.0,0.0,0.0,0.0,0.0,0.0,0.0,0.0,0.0,0.0,0.0,0.0,0.0,3.5268,3.7934,4.1565,4.6459,4.8522,5.0726,5.3126,5.4044,5.5676,5.8085,5.9856,6.1853,6.4128,6.5863,6.7586,6.9167,6.9898,7.1206,7.286,7.2783,7.1385,6.8973,6.6026,6.2163,5.767,5.3153,5.0079,4.7865,4.5553,4.4158,4.3478,4.3588,4.3826,4.4174,4.5056,4.8953,5.3737,5.6236,6.2222,6.9948,7.8731,8.3907,8.8398,9.5075,9.7274,9.7877,9.8076,9.682,9.484,9.2143,8.8351,8.474,8.2094,7.9975,7.9545,8.2282,8.378,8.6074,9.0333,8.9601,8.9124,9.0519,8.9344,8.9014,9.0482,9.0702,9.173,9.4189,9.7236,9.9035,9.9145,10.0613,10.1494,10.1494,10.1494,10.1494,10.1494,10.1494,10.109,10.0393,10.0393,9.9548,9.8007,9.8007,9.7566,9.6759,9.6759,9.6722,9.6685,9.6685,9.6685,9.6685,9.6724,9.6724,9.6612,9.5842,9.5511,9.5401,0.0,0.0,0.0,0.0,0.0,0.0,0.0,0.0,0.0,0.0,0.0,0.0,0.0,0.0,0.0,0.0,0.0,0.0,3.0933,3.5212,3.829,3.9617,4.4958,4.823,4.8927,5.0858,5.251,5.3768,5.4734,5.5864,5.7088,5.8171,5.9557,6.1204,6.1435,6.2435,6.3974,6.2704,6.2362,6.2393,5.8737,5.6776,5.556,5.0898,4.8034,4.6361,4.5149,4.3791,4.2873,4.4672,4.7923,5.1454,5.3124,5.6925,6.15,6.5238,7.1747,7.9064,8.5113,9.0247,9.4612,9.7634,9.8273,9.7697,9.5955,9.4273,9.1297,8.4882,7.9828,7.5172,7.055,7.2613,7.6249,7.9977,8.5799,9.1102,9.4667,9.4777,9.3786,9.173,9.1693,9.151,9.0702,9.173,9.3235,9.5034,9.6502,9.8117,9.9916,10.098,10.1494,10.1494,10.1494,10.1494,10.1494,10.1494,10.1384,10.12,10.12,10.0686,9.9695,9.9695,9.8924,9.7566,9.7566,9.7236,9.6685,9.6685,9.6685,9.6724,9.7138,9.7064,9.665,9.6215,9.5847,9.5327,0.0,0.0,0.0,0.0,0.0,0.0,0.0,0.0,0.0,0.0,0.0,0.0,0.0,0.0,0.0,0.0,0.0,0.0,0.0,3.1252,3.342,3.416,3.7945,4.0382,4.1162,4.2477,4.3718,4.4909,4.6078,4.761,4.951,5.0778,5.2233,5.3857,5.4203,5.5126,5.6319,5.5357,5.4879,0.0,0.0,5.0349,4.95,4.6743,4.5333,4.4782,4.4342,4.577,4.8271,5.1021,5.385,5.6761,5.9983,6.3917,6.83,7.3344,7.922,8.5189,9.0434,9.4641,9.7787,9.8664,9.7885,9.5794,9.1692,8.869,8.4508,7.6568,7.1595,6.7343,6.2892,6.6145,7.1027,7.5799,8.2774,8.9344,9.441,9.5107,9.4703,9.3565,9.4189,9.4299,9.3382,9.4446,9.5878,9.7493,9.7713,9.8521,10.0209,10.109,10.1494,10.1494,10.1494,10.1494,10.1494,10.1494,10.1494,10.1494,10.1494,10.109,10.0283,10.0283,9.9622,9.8411,9.8411,9.797,9.7238,9.7467,9.7358,9.7101,9.7641,9.7676,9.7281,9.6538,9.5879,9.511,0.0,0.0,0.0,0.0,0.0,0.0,0.0,0.0,0.0,0.0,0.0,0.0,0.0,0.0,0.0,0.0,0.0,0.0,0.0,0.0,2.8457,2.9902,3.0298,3.1155,3.2633,3.2866,3.367,3.5062,3.6745,3.9077,4.197,4.3651,4.5256,4.6817,4.7663,4.8548,4.9327,4.9298,4.8304,4.6706,4.5735,4.4233,4.2567,0.0,4.2837,4.3368,4.3478,4.8033,5.4633,5.8834,6.0791,6.2368,6.7201,7.1346,7.555,8.1105,8.5549,8.9755,9.4796,9.753,9.8898,9.8635,9.661,9.2994,8.647,8.1782,7.6423,6.7981,6.3833,6.075,5.7629,6.0713,6.5815,7.2129,7.8405,8.5196,9.2831,9.3786,9.4263,9.5658,9.6539,9.7016,9.7016,9.764,9.8668,10.0209,9.9659,9.9622,10.0393,10.109,10.1494,10.1494,10.1494,10.1494,10.1494,10.1494,10.1494,10.1494,10.1494,10.109,10.0503,10.0503,9.9989,9.9255,9.9255,9.8814,9.8082,9.8504,9.8314,9.7719,9.8254,9.8413,9.8138,9.6883,9.5897,9.4909,0.0,0.0,0.0,0.0,0.0,0.0,0.0,0.0,0.0,0.0,2.5155,2.5308,0.0,0.0,0.0,0.0,0.0,0.0,0.0,0.0,0.0,2.7243,2.8618,2.9515,2.979,3.1212,3.2116,3.2395,3.335,3.4488,3.5783,3.6804,3.8183,3.9777,4.0662,4.1516,4.2231,4.2048,4.1943,4.2006,4.2238,4.1965,4.154,4.2797,0.0,0.0,4.324,4.5801,5.0302,5.9678,6.7738,7.4513,7.8435,8.2642,8.6802,8.9882,9.2501,9.4877,9.7226,9.8311,9.8598,9.7867,9.507,9.0404,8.2623,7.7157,7.0917,6.0786,5.7189,5.5097,5.2527,5.7519,6.5191,7.4888,8.0828,8.7435,9.6759,9.7493,9.7163,9.7456,9.819,9.8704,9.8704,9.8814,9.9292,10.0209,10.0209,10.0393,10.12,10.1384,10.1494,10.1494,10.1494,10.1494,10.1494,10.1494,10.1494,10.1494,10.1494,10.1384,10.1274,10.1274,10.087,10.0099,10.0099,9.9659,9.889,9.8762,9.8612,9.8533,9.9004,9.8839,9.8203,9.7492,9.6322,9.4909,0.0,0.0,0.0,0.0,0.0,0.0,0.0,2.3358,2.4436,2.6545,2.6765,2.6487,2.5872,2.5434,0.0,0.0,0.0,0.0,0.0,0.0,0.0,0.0,2.7813,2.8665,2.9088,3.0352,3.1,3.1,0.0,3.2275,3.3545,3.3968,3.499,3.6549,3.8001,3.866,3.8794,3.97,4.0025,3.9976,4.0649,4.0977,4.1242,0.0,0.0,0.0,4.3545,4.6783,5.1694,5.7452,6.7048,7.7611,8.3639,8.7875,9.1096,9.3314,9.5118,9.6696,9.7789,9.8388,9.8427,9.7359,9.2866,8.6371,7.7414,7.0954,6.3943,5.3827,5.1463,5.0729,4.9167,5.517,6.2548,6.9339,7.5909,8.3287,9.217,9.3822,9.5034,9.7603,9.8961,9.9732,9.9732,10.0099,10.0503,10.0907,10.0907,10.109,10.1494,10.1494,10.1494,10.1494,10.1494,10.1494,10.1494,10.1494,10.1494,10.1494,10.1494,10.1494,10.1494,10.1494,10.1274,10.0907,10.0907,10.0591,10.0127,9.9828,9.9653,9.9535,9.9602,9.9204,9.8592,9.8048,9.67,9.4983,0.0,0.0,0.0,0.0,0.0,0.0,0.0,2.4289,2.5295,2.8056,2.7974,2.7391,2.6599,2.5793,2.5214,0.0,0.0,0.0,0.0,0.0,0.0,0.0,0.0,0.0,2.8819,0.0,0.0,3.0385,3.0385,0.0,0.0,0.0,0.0,0.0,3.6956,3.7568,3.7595,3.9095,3.9509,0.0,0.0,4.0473,0.0,0.0,0.0,0.0,0.0,4.7222,5.1974,5.4501,6.282,7.3516,8.1476,8.7287,9.1465,9.3007,9.4741,9.6369,9.7393,9.8058,9.8134,9.6359,9.0555,8.27,7.2789,6.5375,5.7923,4.8507,4.7076,4.7443,4.7149,5.258,5.8731,6.3576,6.9963,7.7561,8.6885,8.9748,9.2684,9.7566,9.9585,10.0576,10.0576,10.109,10.1567,10.1677,10.1788,10.1677,10.1494,10.1494,10.1494,10.1494,10.1494,10.1494,10.1494,10.1494,10.1494,10.1494,10.1494,10.1494,10.1494,10.1494,10.1494,10.1494,10.1494,10.1368,10.1203,10.0813,10.0606,10.0412,10.0,9.9537,9.8938,9.8535,9.7007,9.502,0.0,0.0,0.0,0.0,0.0,0.0,0.0,2.4357,2.5581,2.8918,2.7776,2.682,2.7254,2.6613,2.5863,0.0,0.0,0.0,0.0,0.0,0.0,0.0,0.0,0.0,0.0,0.0,0.0,3.0385,3.0385,0.0,0.0,0.0,0.0,0.0,0.0,3.7286,3.8699,3.8542,0.0,0.0,0.0,0.0,0.0,0.0,0.0,0.0,0.0,4.3934,4.5496,5.2247,5.6331,5.9863,6.7295,7.8145,8.8218,8.8409,9.0858,9.397,9.621,9.7385,9.7239,9.4189,8.85,8.0901,7.0403,6.2438,5.4913,4.6599,4.4984,4.5461,4.6856,4.8967,5.3702,6.3613,6.7026,7.3083,8.6334,9.0262,9.3565,9.8411,10.0393,10.1384,10.1384,10.1494,10.1788,10.2522,10.2595,10.2301,10.1494,10.1494,10.1494,10.1494,10.1494,10.1494,10.1494,10.1494,10.1494,10.1494,10.1494,10.1494,10.1494,10.1494,10.1494,10.1494,10.1494,10.1497,10.14,10.0933,10.0711,10.0578,10.0272,9.9693,9.8968,9.8673,9.7092,9.502,0.0,0.0,0.0,0.0,0.0,0.0,2.3871,2.4351,2.5463,2.8393,2.8024,2.7316,2.691,2.6408,2.5738,2.4783,0.0,0.0,0.0,0.0,0.0,0.0,0.0,0.0,0.0,0.0,2.8954,3.0385,2.989,0.0,0.0,0.0,0.0,0.0,0.0,3.6222,3.6607,3.7617,0.0,0.0,0.0,0.0,0.0,0.0,0.0,0.0,0.0,0.0,4.4599,4.7021,5.0875,5.473,5.517,6.3015,7.3563,8.1396,8.6795,9.0996,9.4923,9.7273,9.775,9.4042,8.7105,7.8736,6.9155,6.0566,5.2726,4.6049,4.4691,4.5039,4.6177,4.7719,5.0839,5.7005,5.9355,6.4016,7.4404,7.8369,8.3471,9.2244,9.5144,9.7787,10.12,10.1494,10.1604,10.1971,10.2008,10.1788,10.1494,10.1494,10.1494,10.1494,10.1494,10.1494,10.1494,10.1494,10.1494,10.1494,10.1494,10.1494,10.1494,10.1494,10.1494,10.1494,10.1494,10.1697,0.0,10.1202,10.0778,10.0595,9.9981,9.9111,9.808,9.7976,9.6353,9.4227,0.0,0.0,0.0,0.0,0.0,2.1094,2.3536,2.4167,2.5211,2.7531,2.7751,2.7379,2.656,2.6018,2.5415,2.4637,2.4809,0.0,0.0,0.0,0.0,0.0,0.0,0.0,0.0,0.0,2.8543,3.0,2.966,3.0529,0.0,0.0,3.3015,3.4249,0.0,0.0,0.0,0.0,0.0,0.0,0.0,0.0,0.0,0.0,0.0,0.0,0.0,0.0,0.0,0.0,0.0,4.9884,4.7223,5.1426,5.9758,7.2312,8.0608,8.6738,9.1363,9.5107,9.6759,9.2978,8.5123,7.6203,6.8017,5.9245,5.1316,4.5828,4.4691,4.4966,4.5736,4.6838,4.8746,5.227,5.4399,5.8534,6.688,7.0844,7.6533,8.6446,8.9601,9.3051,9.8484,10.0686,10.1788,10.1494,10.1677,10.1788,10.1494,10.1494,10.1494,10.1494,10.1494,10.1494,10.1494,10.1494,10.1494,10.1494,10.1494,10.1494,10.1494,10.1494,10.1494,10.1494,10.1494,10.1699,0.0,10.1426,10.0792,10.0398,9.9747,9.8736,9.7653,9.7653,9.599,9.3823,0.0,0.0,0.0,0.0,0.0,0.0,2.2654,2.3718,2.4921,2.6606,2.6773,2.6637,2.641,2.556,2.4956,2.4811,2.4804,0.0,0.0,0.0,0.0,0.0,0.0,0.0,0.0,0.0,2.8102,2.9127,2.9967,3.1098,3.2507,3.2221,3.2835,3.42,0.0,0.0,0.0,0.0,0.0,0.0,0.0,0.0,0.0,0.0,0.0,0.0,0.0,0.0,0.0,0.0,0.0,0.0,0.0,4.5902,4.9498,6.0933,7.1688,8.0755,8.4792,9.0041,9.3565,9.0262,8.215,7.3266,6.6806,5.84,5.0618,4.57,4.4691,4.4966,4.5736,4.592,4.7241,5.1353,5.4054,5.8694,6.765,7.1651,7.613,8.27,8.4903,8.7802,9.2721,9.8961,10.2412,10.1567,10.2191,10.2301,10.1494,10.1494,10.1494,10.1494,10.1494,10.1494,10.1494,10.1494,10.1494,10.1494,10.1494,10.1494,10.1494,10.1494,10.1494,10.1494,10.1494,10.1494,0.0,10.1201,10.0574,9.9869,9.9615,9.8897,9.7982,9.7982,9.6335,9.4172,0.0,0.0,0.0,0.0,0.0,0.0,0.0,2.2622,2.3647,2.4912,2.5511,2.5786,2.5712,2.5296,2.5047,2.5138,2.5011,0.0,0.0,0.0,0.0,0.0,0.0,0.0,0.0,0.0,2.823,3.0891,3.0577,3.1329,3.31,3.3015,3.3328,3.3928,3.3928,3.4236,0.0,0.0,0.0,0.0,0.0,0.0,0.0,0.0,0.0,0.0,0.0,0.0,0.0,0.0,0.0,0.0,0.0,0.0,0.0,5.1096,6.075,7.066,7.4111,7.8369,8.0828,7.6497,7.0991,6.5228,5.9905,5.3885,4.8563,4.5351,4.4691,4.4764,4.5039,4.5516,4.7792,5.354,5.5119,5.7923,6.4677,7.0257,7.5909,8.1856,9.0849,9.7126,9.8668,10.0686,10.1788,10.1494,10.1677,10.1788,10.1494,10.1494,10.1494,10.1494,10.1494,10.12,10.0686,10.0686,10.0393,9.9879,9.9879,9.9879,9.9879,10.0393,10.0686,10.0686,10.0686,10.098,10.1424,10.0186,9.9896,10.008,9.9119,9.8555,9.816,9.7292,9.5917,9.451,0.0,0.0,0.0,0.0,0.0,0.0,0.0,2.178,2.2791,2.3474,2.4494,2.5187,2.5235,2.51,2.5088,2.5293,2.5198,0.0,0.0,0.0,0.0,0.0,0.0,0.0,0.0,2.6929,2.8378,3.1192,3.1621,3.2568,3.4046,3.4252,3.4195,3.3967,3.3873,3.3954,0.0,0.0,0.0,0.0,0.0,0.0,3.7125,0.0,0.0,0.0,0.0,0.0,0.0,0.0,0.0,0.0,0.0,0.0,0.0,0.0,5.1993,5.9515,6.4604,6.9155,7.1688,6.8385,6.4016,5.9612,5.5978,5.1353,4.7259,4.5131,4.4691,4.4691,4.4691,4.5369,4.7535,5.2548,5.4106,5.6895,6.3209,6.8862,7.5028,8.226,9.2097,9.8447,9.8741,10.0393,10.1494,10.1494,10.1494,10.1494,10.1494,10.12,10.098,10.098,10.131,10.109,10.0283,10.0283,9.9916,9.9108,9.9402,9.9402,9.9145,9.9916,10.0099,9.9842,9.9842,10.0099,0.0,9.9512,9.9402,9.9766,9.8773,9.8485,9.8421,9.7159,9.6054,9.5058,0.0,0.0,0.0,0.0,0.0,0.0,0.0,2.1148,2.2246,2.2215,2.3712,2.4809,2.4936,2.4973,2.5082,2.5244,0.0,0.0,0.0,0.0,0.0,0.0,0.0,0.0,0.0,2.6753,2.8556,3.05,3.3045,3.4633,3.528,3.5864,3.5506,3.4338,3.4099,3.4321,0.0,0.0,0.0,0.0,0.0,0.0,0.0,0.0,0.0,0.0,0.0,0.0,0.0,0.0,0.0,0.0,0.0,0.0,0.0,0.0,0.0,0.0,0.0,6.1508,6.4919,6.4024,5.9822,5.5499,5.3924,5.0098,0.0,4.4875,4.46,4.4672,4.4838,4.5443,4.6801,4.9647,5.2087,5.6161,6.3319,6.8348,7.4808,8.4315,9.0335,9.3969,9.4593,9.8778,10.1494,10.1494,10.1494,10.1494,10.1384,10.0686,10.0283,10.0209,10.0907,10.098,10.0209,10.0209,9.9769,9.9108,9.9732,9.9695,9.9035,9.9805,9.9732,9.9035,9.9071,9.9108,9.9108,9.9035,9.9032,9.9063,9.8513,9.8493,9.8672,9.7363,9.6437,9.5758,0.0,0.0,0.0,0.0,0.0,0.0,0.0,0.0,0.0,0.0,2.3239,2.4441,2.4451,2.4795,2.5003,0.0,0.0,0.0,0.0,0.0,0.0,0.0,0.0,0.0,2.5977,2.7058,2.8868,3.1385,3.3962,3.569,3.6642,3.8055,3.7679,3.5805,3.5758,3.5128,0.0,0.0,0.0,0.0,0.0,0.0,0.0,0.0,0.0,0.0,3.8836,3.8982,0.0,0.0,0.0,0.0,0.0,0.0,0.0,0.0,4.3762,4.4152,4.6057,0.0,5.1534,4.9621,4.8155,4.6892,0.0,4.5158,4.437,4.3391,4.3506,4.4342,4.6195,4.6214,4.7902,5.4106,5.6638,5.9905,6.5999,7.6203,8.571,9.2978,9.7199,9.9108,9.808,10.0099,10.1494,10.1494,10.1494,10.12,10.0613,10.0393,9.9989,9.9402,9.9585,9.9585,9.9402,9.8778,9.8668,9.9108,9.8043,9.775,9.819,9.8374,9.8337,9.8227,9.8851,9.9108,9.9071,9.8447,9.869,9.9312,9.7621,9.7514,9.8155,9.6662,9.6206,9.6406,0.0,0.0,0.0,0.0,0.0,0.0,0.0,0.0,0.0,0.0,0.0,0.0,0.0,0.0,0.0,0.0,0.0,0.0,0.0,0.0,0.0,0.0,0.0,2.4802,2.5468,2.6788,2.8793,3.1564,3.4588,3.6765,3.8118,3.9148,3.8611,3.667,3.5625,3.4651,0.0,0.0,0.0,0.0,3.4197,0.0,0.0,0.0,0.0,0.0,3.8432,3.8689,0.0,3.9643,4.0414,4.1242,0.0,0.0,0.0,0.0,4.2751,4.2241,4.1958,4.3829,4.5601,4.4414,4.4112,4.4005,4.3558,4.3406,4.3235,4.2802,4.3142,4.4121,4.6177,4.6801,4.893,5.4766,5.7997,6.2768,7.1468,8.0645,8.872,9.485,9.7787,9.9255,9.9108,10.0576,10.131,10.098,10.1274,10.109,10.0319,9.9952,9.9365,9.8557,9.819,9.819,9.8557,9.8484,9.8484,9.8557,9.8043,9.7823,9.7897,9.7897,9.7676,9.7383,9.819,9.8337,9.8007,9.7933,9.8293,9.8672,9.7346,9.741,9.818,9.6926,9.6795,9.7222,0.0,0.0,0.0,0.0,0.0,0.0,0.0,0.0,0.0,0.0,0.0,0.0,0.0,0.0,0.0,0.0,0.0,0.0,0.0,0.0,0.0,0.0,0.0,2.445,2.4916,2.6478,2.8708,3.1628,3.5175,3.7755,3.9407,3.9979,3.9177,3.7141,3.4845,3.3807,0.0,0.0,0.0,0.0,3.4527,0.0,0.0,0.0,0.0,0.0,0.0,0.0,0.0,3.9301,4.0158,4.1052,4.166,0.0,0.0,0.0,0.0,0.0,4.144,4.3022,4.4542,4.3744,4.3638,4.3673,4.3568,4.3087,4.271,4.274,4.3342,4.4452,4.6471,4.8233,5.0765,5.484,5.9612,6.688,7.8589,8.4205,8.8977,9.4042,9.6282,9.7787,9.8668,10.0283,10.098,10.0209,10.0907,10.0907,9.9989,9.9402,9.8668,9.775,9.7052,9.7016,9.7713,9.8521,9.8631,9.808,9.8668,9.8557,9.7897,9.764,9.7163,9.6575,9.7346,9.7273,9.6575,9.753,9.7858,9.7743,9.7199,9.7515,9.8181,9.7469,9.757,9.8022,0.0,0.0,0.0,0.0,0.0,0.0,0.0,0.0,0.0,0.0,0.0,0.0,0.0,0.0,0.0,0.0,0.0,0.0,0.0,0.0,0.0,2.419,2.419,2.5032,2.6819,2.7168,2.9079,3.2667,3.6115,3.8514,3.9939,4.1859,4.084,3.7335,3.489,3.3807,3.3807,0.0,0.0,0.0,3.3917,0.0,0.0,0.0,0.0,0.0,0.0,0.0,0.0,3.7703,3.8815,4.0275,4.0026,0.0,0.0,0.0,0.0,0.0,4.3225,4.5795,4.693,4.2471,4.1904,4.2217,4.1522,4.2072,4.2757,4.2938,4.4311,4.6654,5.0362,5.2931,5.5794,5.9832,6.7907,7.6974,8.6444,9.0776,9.3822,9.6061,9.8961,9.9769,9.7309,9.9145,10.0209,9.9365,9.9989,9.9842,9.8337,9.8814,9.8411,9.6942,9.6759,9.6759,9.6869,9.7676,9.8374,9.8924,9.8337,9.8007,9.7823,9.6502,9.5804,9.5731,9.6539,9.6428,9.5804,9.7273,9.7701,9.7232,9.6458,9.6721,9.7432,9.7017,9.7499,9.8445,0.0,0.0,0.0,0.0,0.0,0.0,0.0,0.0,0.0,0.0,0.0,0.0,0.0,0.0,0.0,0.0,0.0,0.0,0.0,0.0,0.0,2.5662,2.5709,2.6162,2.7127,2.8692,3.0944,3.3862,3.7377,3.9776,4.1079,4.1067,3.9554,3.6758,3.4688,3.3807,3.3807,3.3807,0.0,0.0,0.0,0.0,0.0,0.0,0.0,0.0,0.0,0.0,0.0,0.0,3.8088,3.9254,3.9447,0.0,0.0,0.0,0.0,0.0,4.2148,4.427,4.6059,4.5313,4.6952,4.8478,4.7402,4.752,4.7912,4.8016,4.8992,5.0839,5.3995,5.7666,6.2805,7.077,7.7304,8.3067,8.8059,9.0041,9.195,9.4446,9.6832,9.786,9.6795,9.8888,9.9769,9.8521,9.9218,9.9145,9.7933,9.8264,9.7897,9.6722,9.6685,9.6685,9.6685,9.7493,9.808,9.8447,9.8521,9.8456,9.8281,9.6621,9.6028,9.6312,9.672,9.6423,9.5756,9.6942,9.7058,9.6434,9.6507,9.6506,9.6575,9.7133,9.8086,9.9129,0.0,0.0,0.0,0.0,0.0,0.0,0.0,0.0,0.0,0.0,0.0,0.0,0.0,0.0,0.0,0.0,0.0,0.0,0.0,0.0,2.4968,2.6635,2.7117,2.7749,2.8608,3.0814,3.3239,3.578,3.8813,4.0778,4.1568,3.9588,3.764,3.5784,3.4206,3.3529,3.3522,3.3703,3.3826,0.0,0.0,0.0,0.0,0.0,0.0,0.0,0.0,0.0,0.0,0.0,0.0,0.0,0.0,0.0,0.0,4.0502,4.0803,4.1013,4.1545,4.3452,4.5954,4.854,5.0844,5.2741,5.3671,5.3303,5.3199,5.4592,5.5491,5.6565,5.8217,6.2952,6.9963,8.0204,8.5013,8.8206,9.0188,9.0629,9.1693,9.4226,9.5768,9.6795,9.7236,9.9108,9.9622,9.8007,9.8668,9.8668,9.7676,9.7787,9.7603,9.7016,9.6795,9.6795,9.6979,9.7566,9.7787,9.764,9.8447,9.8606,9.8171,9.6507,9.6048,9.6518,9.6336,9.5954,9.5561,9.6388,9.6383,9.586,9.6457,9.6404,9.615,9.75,9.8621,9.9417,0.0,0.0,0.0,0.0,0.0,0.0,0.0,0.0,0.0,0.0,0.0,0.0,0.0,0.0,0.0,0.0,0.0,0.0,0.0,0.0,2.47,2.5758,2.7533,3.0021,3.3333,3.3593,3.5431,3.8969,4.0472,4.0965,4.0453,3.8103,3.6088,3.447,3.3241,3.2639,3.2631,3.348,3.4016,3.4367,0.0,0.0,0.0,0.0,0.0,0.0,0.0,0.0,0.0,0.0,0.0,0.0,0.0,0.0,3.918,3.9951,4.0504,4.1337,4.3389,4.6443,4.9274,5.0373,4.8722,4.8748,5.6269,5.6064,5.5798,6.1277,6.3497,6.4273,6.3686,6.9339,7.6387,8.3214,8.8977,9.3675,9.6759,9.786,9.8411,9.8631,9.9438,9.9695,9.8998,9.9769,9.9622,9.8007,9.8668,9.8411,9.6869,9.7493,9.786,9.7823,9.7089,9.7052,9.7787,9.786,9.753,9.6795,9.7603,9.7605,9.6799,9.5182,9.4705,9.5089,9.4348,9.428,9.4739,9.5561,9.586,9.5822,9.586,9.6106,9.6626,9.8025,9.8594,9.8697,0.0,0.0,0.0,0.0,0.0,0.0,0.0,0.0,0.0,0.0,0.0,0.0,0.0,0.0,0.0,0.0,0.0,0.0,0.0,2.419,2.519,2.7411,2.8188,3.0594,3.4808,3.6435,3.8575,4.1284,4.1408,4.0996,4.0,3.7073,3.5358,3.4695,3.325,3.2876,3.3328,3.3648,3.401,3.4398,3.4851,0.0,0.0,0.0,0.0,0.0,0.0,0.0,0.0,0.0,3.6231,3.7172,3.7723,3.8396,3.9205,4.0275,4.1013,4.1723,4.2935,4.7051,5.1216,5.2077,5.2929,5.5135,6.1284,6.3449,6.5359,6.9592,7.1317,7.2092,7.2275,7.7451,8.3141,8.7619,9.2684,9.6685,9.8411,9.8924,9.9108,9.9108,9.9365,9.9438,9.9145,9.8924,9.8337,9.7236,9.7456,9.6906,9.529,9.6428,9.6906,9.6428,9.6098,9.6098,9.6392,9.6428,9.6245,9.5988,9.7273,9.7391,9.6399,9.5291,9.4723,9.4706,9.3849,9.3573,9.3868,9.4482,9.4796,9.4961,9.5279,9.6069,9.6976,9.7025,9.737,9.7712,0.0,0.0,0.0,0.0,0.0,0.0,0.0,0.0,0.0,0.0,0.0,0.0,0.0,0.0,0.0,0.0,0.0,0.0,2.4036,2.4151,2.5199,2.7448,2.8399,3.0658,3.4389,3.7193,3.9515,4.134,4.0766,3.9894,3.8689,3.5922,3.4545,3.441,3.3423,3.3268,3.38,3.4371,3.4702,3.4891,3.5409,3.5596,0.0,0.0,0.0,0.0,0.0,0.0,0.0,0.0,3.6332,3.6965,3.7922,3.871,3.9484,4.0596,4.1486,4.2144,4.2596,4.6474,5.0912,5.2726,5.6014,6.0639,6.7871,7.0403,7.2642,7.7708,7.8148,7.8038,7.936,8.281,8.6554,9.0041,9.4923,9.8557,9.9365,9.9475,9.9402,9.9145,9.9108,9.9108,9.9108,9.8594,9.7933,9.7126,9.7089,9.6392,9.4777,9.5951,9.6465,9.5914,9.5878,9.5878,9.5878,9.5658,9.5364,9.5144,9.6245,9.6509,9.5992,9.4626,9.3977,9.3914,9.2796,9.2499,9.2803,9.3248,9.3758,9.43,9.498,9.5742,9.6499,9.6196,9.6461,9.684,0.0,0.0,0.0,0.0,0.0,0.0,0.0,0.0,0.0,0.0,0.0,0.0,0.0,0.0,0.0,0.0,0.0,0.0,2.3732,2.4006,2.4539,2.5287,2.8006,3.0368,3.2257,3.5503,3.7735,3.8898,3.8282,3.7397,3.6266,3.4578,3.3578,3.3247,3.362,3.3763,3.3858,3.5554,3.6214,3.6006,3.5932,3.6104,0.0,0.0,0.0,0.0,0.0,0.0,0.0,0.0,3.6829,3.7066,3.8556,3.9395,3.9973,4.077,4.1825,4.2729,4.2729,4.4889,4.814,5.2213,5.6932,6.3723,7.5873,7.613,7.6313,8.5233,8.3875,8.1819,8.4205,8.4646,8.5967,8.9968,9.5401,9.9365,10.0209,10.0283,9.9989,9.9218,9.9108,9.9108,9.9108,9.9108,9.8741,9.7933,9.786,9.7163,9.5584,9.6245,9.6685,9.6685,9.6685,9.6685,9.6685,9.5878,9.507,9.4299,9.4263,9.4703,9.5401,9.2941,9.209,9.2498,9.0868,9.0733,9.161,9.1907,9.2772,9.3988,9.4887,9.5045,9.4895,9.5741,9.6082,9.6082,0.0,0.0,0.0,0.0,0.0,0.0,0.0,0.0,0.0,0.0,0.0,0.0,0.0,0.0,0.0,0.0,0.0,0.0,2.3351,2.3642,2.4533,2.6086,2.713,2.8839,3.1325,3.3252,3.5826,3.9112,3.7779,3.6853,3.6266,3.4578,3.4046,3.4483,3.4596,3.4964,3.5554,3.6069,3.6355,3.6466,3.606,3.6104,3.6333,0.0,0.0,0.0,0.0,0.0,0.0,0.0,0.0,0.0,3.9317,4.0458,4.158,4.2079,4.2817,4.3621,4.3998,4.8483,5.3775,5.6689,6.3649,7.1908,8.0131,8.0351,8.1048,8.883,8.9491,8.8353,8.7325,8.9014,9.0776,9.14,9.529,9.8741,10.0099,10.0283,10.0209,9.9989,9.8924,9.8484,9.9071,9.808,9.7309,9.7052,9.6539,9.5511,9.3896,9.4556,9.474,9.4189,9.4189,9.4189,9.4189,9.3932,9.3712,9.3455,9.323,9.3342,9.3786,9.3051,9.2133,9.1208,9.1071,9.081,9.0671,9.2409,9.3559,9.4265,9.5304,9.4834,9.3656,9.4532,9.472,9.4551,0.0,0.0,0.0,0.0,0.0,0.0,0.0,0.0,0.0,0.0,0.0,0.0,0.0,0.0,0.0,0.0,0.0,0.0,0.0,2.3522,2.436,2.5789,2.6452,2.7994,3.0652,3.1775,3.3734,3.6591,3.5936,3.5658,3.5789,3.5092,3.5238,3.6009,3.6655,3.7074,3.7257,3.7588,3.7708,3.7643,3.7292,3.7173,3.7155,0.0,0.0,0.0,0.0,0.0,0.0,0.0,0.0,0.0,3.9974,4.107,4.2211,4.2961,4.3425,4.4234,4.6506,5.1059,5.6381,6.1741,6.9155,7.7084,8.4572,8.6775,8.8757,9.4116,9.3969,9.2464,9.1326,9.2207,9.3161,9.3308,9.5878,9.8337,9.9659,9.9805,9.9695,9.9365,9.819,9.7493,9.7676,9.6502,9.5731,9.5731,9.529,9.4483,9.3161,9.3859,9.3932,9.3125,9.3418,9.3418,9.3088,9.3088,9.2758,9.2097,9.2079,9.2035,9.1906,9.1574,9.0795,8.974,8.9641,8.9377,8.916,9.1567,9.2668,9.3013,9.4382,9.4147,9.3055,9.359,9.3883,9.4075,0.0,0.0,0.0,0.0,0.0,0.0,0.0,0.0,0.0,0.0,0.0,0.0,0.0,0.0,0.0,0.0,0.0,0.0,0.0,0.0,2.405,2.4985,2.6169,2.786,3.0063,3.0944,3.1751,3.2472,3.3293,3.4124,3.5041,3.5973,3.6831,3.7676,3.9218,3.9496,3.8872,3.957,3.9617,3.9172,3.9209,3.8958,3.8506,3.7923,0.0,0.0,0.0,0.0,0.0,0.0,0.0,0.0,4.0596,4.1455,4.2249,4.35,4.3943,4.5076,4.9738,5.3115,5.7593,6.7173,7.4258,8.1048,8.9381,9.4189,9.7493,9.9548,9.7236,9.5034,9.5731,9.4593,9.4006,9.5364,9.6906,9.8154,9.8888,9.8924,9.8631,9.786,9.7016,9.6171,9.5364,9.463,9.4153,9.4079,9.4079,9.3712,9.2941,9.3565,9.3602,9.2794,9.3455,9.3492,9.2758,9.2758,9.2024,9.0482,9.0861,9.0687,8.9979,8.9345,8.8853,8.8434,8.7535,8.7289,8.7702,8.9952,9.0877,9.1011,9.2737,9.3192,9.2852,9.2928,9.3442,9.413,0.0,0.0,0.0,0.0,0.0,0.0,0.0,0.0,0.0,0.0,0.0,0.0,0.0,0.0,0.0,0.0,0.0,0.0,0.0,0.0,2.4063,2.5755,2.7531,2.873,2.9244,3.0687,3.1458,3.1641,3.2449,3.3573,3.5041,3.6523,3.7661,3.8469,3.946,3.979,3.9643,3.9827,3.9816,3.9739,3.9947,3.9986,3.9802,3.8839,3.8434,0.0,0.0,0.0,0.0,0.0,0.0,0.0,4.1372,4.2469,4.3484,4.3543,4.5773,4.8857,5.1867,5.7262,6.4016,7.2459,8.2663,9.1657,9.5437,9.7493,9.8374,9.764,9.83,9.8851,9.8411,9.753,9.6759,9.6502,9.7236,9.797,9.8117,9.7603,9.7163,9.6979,9.5694,9.4483,9.3712,9.3455,9.3088,9.2391,9.2317,9.1987,9.1179,9.1289,9.1033,9.0225,9.0372,9.0372,9.0225,9.0225,9.0041,8.9674,8.9492,8.9317,8.9201,8.9994,8.9943,8.9145,8.8467,8.8537,8.9188,9.0397,9.0972,9.1293,9.3002,9.2812,9.1661,9.2352,9.2584,9.2676,0.0,0.0,0.0,0.0,0.0,0.0,0.0,0.0,0.0,0.0,0.0,0.0,0.0,0.0,0.0,0.0,0.0,0.0,0.0,0.0,2.4318,2.6249,2.8404,2.9502,2.9282,3.0674,3.1492,3.1674,3.27,3.4014,3.5665,3.7698,3.9093,3.9884,4.1075,4.1405,4.1038,4.1038,4.1038,4.1058,4.1207,4.1071,4.0742,3.9979,3.9451,3.9168,3.9044,0.0,0.0,0.0,0.0,0.0,0.0,0.0,4.3423,4.3943,4.581,4.8893,5.4106,5.9979,6.7467,7.8993,8.7252,9.3272,9.6098,9.7089,9.7273,9.6795,9.83,9.9475,9.8668,9.819,9.7493,9.6318,9.6795,9.7052,9.6282,9.6135,9.5988,9.5584,9.4079,9.2941,9.2537,9.1803,9.1143,9.0702,9.0665,9.0482,9.0078,9.0041,8.9858,8.9382,8.9382,8.9382,8.9382,8.9382,8.9234,8.883,8.8901,8.9001,8.9224,8.9452,8.9302,8.8797,8.853,8.84,8.8518,8.9859,9.0275,9.0171,9.1864,9.1979,9.1248,9.171,9.2061,9.2353,0.0,0.0,0.0,0.0,0.0,0.0,0.0,0.0,0.0,0.0,0.0,0.0,0.0,0.0,0.0,0.0,0.0,0.0,0.0,0.0,0.0,2.6626,2.8675,2.9742,2.9602,3.0717,3.1631,3.2314,3.3584,3.5238,3.7184,3.9019,4.0341,4.1168,4.2653,4.2763,4.1882,4.2176,4.2213,4.2139,4.2396,4.2157,4.1571,4.108,4.0494,3.9848,3.9447,3.9719,4.0254,4.0377,0.0,0.0,0.0,0.0,4.3047,4.4181,4.5369,4.7865,5.5023,6.1851,7.0367,8.4462,8.9307,9.14,9.441,9.4997,9.5107,9.5914,9.7346,9.83,9.7603,9.7346,9.6832,9.5511,9.5841,9.5804,9.4483,9.463,9.463,9.3932,9.2391,9.1362,9.1397,9.0147,8.9299,8.9222,8.9263,8.9229,8.9082,8.9159,8.9196,8.9082,8.9082,8.9152,8.9256,8.9152,8.8787,8.8125,8.8491,8.8929,8.9338,8.8746,8.8467,8.8445,8.8555,8.8133,8.7499,8.9178,8.9517,8.9056,9.0594,9.121,9.121,9.121,9.1672,9.2287,0.0,0.0,0.0,0.0,0.0,0.0,0.0,0.0,0.0,0.0,0.0,0.0,0.0,0.0,0.0,0.0,0.0,0.0,2.2746,0.0,0.0,2.7067,2.7821,2.8653,2.957,3.0491,3.1815,3.3556,3.5174,3.7514,4.0435,4.0084,4.0341,4.1132,4.2066,4.1625,4.0304,4.1699,4.1919,4.1389,4.2763,4.2996,4.2455,4.1878,4.1266,4.0724,4.0689,4.07,4.0874,4.142,4.1958,0.0,0.0,0.0,4.3428,4.359,4.57,4.871,5.1903,6.2989,7.5799,8.4903,8.8904,9.1106,9.2978,9.2831,9.2537,9.3418,9.485,9.5951,9.5841,9.5254,9.4703,9.4483,9.4556,9.4556,9.4336,9.3125,9.2244,9.2134,9.0702,8.963,8.9333,8.9107,8.8859,8.8554,8.8774,8.8664,8.7961,8.8191,8.823,8.7961,8.7924,8.8112,8.851,8.8112,8.785,8.7776,8.7804,8.8225,8.8914,8.9364,8.9527,8.9419,8.9588,8.9213,8.856,8.95,8.9863,8.9863,9.0825,9.121,9.121,9.121,9.1287,9.1479,0.0,0.0,0.0,0.0,0.0,0.0,0.0,0.0,0.0,0.0,0.0,0.0,0.0,0.0,0.0,2.2313,2.244,2.2811,2.3565,2.5196,2.6415,2.6881,2.7954,2.8962,2.9919,3.142,3.2835,3.4157,3.6033,3.8615,4.1772,4.2323,4.3277,4.4471,4.4378,4.3901,4.324,4.3057,4.2572,4.2086,4.31,4.2772,4.1703,4.1789,4.1442,0.0,0.0,0.0,4.1429,4.1725,4.2221,4.2693,4.2693,0.0,0.0,0.0,4.5149,4.8783,5.7189,6.5705,7.4478,8.3948,8.7142,8.8573,9.1143,9.1069,9.0702,9.1546,9.1913,9.2354,9.3308,9.3161,9.2758,9.2317,9.2611,9.2574,9.1693,9.1326,9.1067,9.0868,8.9833,8.9185,8.9293,8.8871,8.8554,8.8421,8.851,8.8338,8.772,8.8117,8.8117,8.772,8.7935,8.8212,8.8383,8.8212,8.809,8.812,8.8529,8.8941,8.9377,9.0098,9.0391,9.0302,9.0006,8.971,8.9402,8.9748,8.9902,8.9979,9.0864,9.121,9.121,9.121,9.121,9.1248,0.0,0.0,0.0,0.0,0.0,0.0,0.0,0.0,0.0,0.0,0.0,0.0,0.0,0.0,0.0,0.0,2.2747,2.3423,2.4682,2.582,2.6556,2.6852,2.8042,2.9277,3.0513,3.2174,3.3764,3.5193,3.6955,3.9753,4.3571,4.4728,4.6709,4.9167,4.7572,4.614,4.4929,4.4342,4.3633,4.2921,4.3268,4.2505,4.1161,0.0,0.0,0.0,0.0,0.0,0.0,0.0,0.0,4.2884,4.2884,4.3178,0.0,0.0,0.0,4.7719,5.8877,6.442,6.9449,7.958,8.303,8.4903,8.8536,8.894,8.8793,8.9784,8.9381,8.9197,9.0408,9.103,9.1174,9.0585,9.1059,9.1127,8.9912,9.0096,9.0267,8.9999,8.9284,8.8952,8.9435,8.8933,8.8616,8.8729,8.8644,8.845,8.8059,8.7958,8.7897,8.7873,8.7897,8.7966,8.8084,8.7898,8.7786,8.7786,8.8726,8.9173,8.9208,9.0141,9.0474,9.0339,9.0255,9.0248,9.0248,9.0248,9.0248,9.0287,9.0941,9.121,9.121,9.121,9.121,9.121,0.0,0.0,0.0,0.0,0.0,0.0,0.0,0.0,0.0,0.0,0.0,0.0,2.2313,2.2313,2.2598,2.3274,2.3371,2.414,2.5967,2.5826,2.612,2.7215,2.7639,0.0,3.1386,3.2224,3.4159,3.7353,3.8212,4.1479,4.6856,4.6929,4.9921,5.5008,5.1116,4.682,4.2616,0.0,0.0,0.0,0.0,0.0,0.0,0.0,0.0,0.0,0.0,0.0,0.0,0.0,0.0,0.0,0.0,4.3497,4.3515,0.0,0.0,0.0,5.1022,5.5611,6.0786,6.9816,7.5542,8.0204,8.4976,8.6004,8.6407,8.7986,8.7692,8.7178,8.7252,8.884,9.0173,9.0136,9.0557,9.0801,9.0727,9.0092,8.9638,8.9631,8.8921,8.8604,8.9092,8.9109,8.9231,8.9692,8.9322,8.9044,8.9044,8.7496,8.7118,8.8354,8.7223,8.6814,8.7263,8.6515,8.6105,8.6038,8.7558,8.7974,8.7498,8.8993,8.9378,8.8902,9.0479,9.1133,9.1133,9.1133,9.1133,9.1133,9.1171,9.121,9.121,9.121,9.121,9.121,0.0,0.0,0.0,0.0,0.0,0.0,0.0,0.0,0.0,0.0,0.0,0.0,0.0,2.3004,2.3308,2.4034,2.4526,2.5096,2.5763,2.6571,2.7182,2.7589,2.8691,3.0194,3.2156,3.345,3.5186,3.7492,3.8799,4.1295,4.4819,4.5847,4.7425,4.937,4.893,4.8086,4.6893,4.513,0.0,0.0,0.0,0.0,0.0,0.0,0.0,0.0,0.0,0.0,0.0,0.0,0.0,0.0,0.0,0.0,0.0,4.2995,4.3232,4.4763,5.0435,5.3041,5.6161,6.4567,6.9926,7.4001,7.7268,8.0865,8.3801,8.4903,8.571,8.6473,8.7287,8.7665,8.7826,8.7973,8.7802,8.7703,8.7904,8.7536,8.7349,8.7632,8.7913,8.8066,8.8029,8.847,8.862,8.8288,8.809,8.7749,8.7136,8.6818,8.6553,8.6436,8.6259,8.6403,8.6889,8.6364,8.609,8.6225,8.6966,8.7273,8.7233,8.8479,8.8888,8.8709,8.9325,8.9902,9.0364,9.0364,9.071,9.121,9.121,9.121,9.121,9.121,9.121,9.121,0.0,0.0,0.0,0.0,0.0,0.0,0.0,0.0,0.0,0.0,0.0,0.0,0.0,0.0,2.4068,2.4812,2.5541,2.6082,2.6302,2.7249,2.7925,2.8196,2.9668,3.1186,3.272,3.4411,3.6072,3.7645,3.9433,4.1552,4.3938,4.5259,4.6507,4.7535,4.7498,4.7682,0.0,0.0,0.0,4.343,0.0,0.0,4.3758,0.0,0.0,0.0,0.0,0.0,0.0,0.0,0.0,0.0,0.0,0.0,0.0,0.0,4.3087,4.4322,4.8142,4.9738,5.2123,5.9428,6.3466,6.699,7.2129,7.6019,7.9323,8.2039,8.3875,8.5471,8.7153,8.7105,8.6945,8.7191,8.7141,8.6955,8.6795,8.664,8.6474,8.643,8.7197,8.7525,8.6999,8.7705,8.7923,8.7209,8.7171,8.6793,8.605,8.5639,8.4993,8.4083,8.4435,8.488,8.5512,8.4991,8.4901,8.5266,8.5698,8.6049,8.6237,8.7047,8.7555,8.7825,8.7825,8.8632,8.9902,8.9902,9.0248,9.0787,9.1095,9.1018,9.0787,9.1095,9.121,9.121,0.0,0.0,0.0,0.0,0.0,0.0,0.0,0.0,0.0,2.3439,0.0,0.0,0.0,0.0,0.0,2.5642,2.6353,2.7063,2.779,2.7858,2.8213,2.901,3.0465,3.1822,3.3095,3.4991,3.6613,3.7893,4.0039,4.2269,4.4618,4.5443,4.7535,5.0435,4.7278,4.5406,4.4782,0.0,4.6122,4.4692,0.0,4.4906,4.604,0.0,0.0,0.0,4.8068,4.7883,0.0,4.7886,0.0,0.0,0.0,0.0,0.0,0.0,0.0,0.0,0.0,0.0,0.0,5.3885,5.5941,5.9318,6.9596,7.1431,7.2797,7.936,8.2003,8.388,8.6385,8.7173,8.7614,8.8079,8.8752,8.8829,8.7753,8.7595,8.7163,8.6137,8.6758,8.6947,8.6114,8.6772,8.712,8.6666,8.6576,8.639,8.5909,8.3945,8.2453,8.1608,8.1818,8.2334,8.3129,8.2345,8.2244,8.2913,8.3715,8.4213,8.4435,8.478,8.5363,8.6094,8.6094,8.7517,8.9808,8.9863,8.9902,8.9979,9.0825,9.0671,9.0056,9.0902,9.1171,9.1171,0.0,0.0,0.0,0.0,0.0,0.0,0.0,0.0,2.3812,0.0,0.0,0.0,2.6908,2.7728,2.815,2.8063,2.8265,2.8468,2.8653,2.9161,2.9548,2.9803,3.121,3.2588,3.3856,3.4929,3.6265,3.7893,3.9659,4.1065,4.2122,4.3497,4.4635,4.5516,4.5186,4.4599,4.3864,4.4305,0.0,4.559,4.5702,4.6654,0.0,0.0,0.0,0.0,0.0,4.9898,5.0352,0.0,4.8987,4.6774,0.0,0.0,0.0,0.0,0.0,0.0,4.3515,0.0,0.0,0.0,0.0,0.0,5.7629,6.108,6.5264,7.1762,7.4845,7.8226,8.4253,8.6186,8.687,8.6875,8.7084,8.6947,8.6212,8.5312,8.4423,8.3521,8.4143,8.456,8.4332,8.4778,8.5009,8.4908,8.4057,8.3303,8.2846,8.1834,8.1327,8.1404,8.1895,8.199,8.1625,8.1085,8.0717,8.0496,8.1318,8.2152,8.2935,8.4291,8.5363,8.6094,8.6094,8.6863,8.8132,8.8786,8.9363,8.994,9.0171,9.0517,9.0864,9.1133,9.0787,9.0287,0.0,0.0,0.0,0.0,0.0,0.0,2.3673,2.4815,2.5559,0.0,0.0,0.0,2.9289,2.9846,3.0145,3.019,2.9748,2.9721,3.033,3.0784,3.1157,3.1461,3.2577,3.3556,3.4294,3.5275,3.6545,3.8115,3.959,4.0761,4.1609,4.291,4.3515,4.3515,4.3975,0.0,0.0,0.0,0.0,0.0,4.6964,0.0,0.0,5.0914,5.2147,0.0,0.0,0.0,5.407,5.2803,5.0264,0.0,0.0,0.0,0.0,0.0,0.0,0.0,0.0,0.0,0.0,0.0,0.0,0.0,5.3225,5.5868,5.9428,6.6623,7.0293,7.4024,8.003,8.2526,8.3879,8.4416,8.4044,8.3627,8.3561,8.2459,8.1344,8.0434,8.1495,8.2202,8.1953,8.2836,8.3324,8.3037,8.2249,8.1485,8.0774,8.0033,7.9834,8.017,8.0304,8.0195,7.9819,7.9589,7.9365,7.9089,7.9867,8.0817,8.1862,8.3208,8.4478,8.5593,8.5593,8.6094,8.6901,8.7401,8.8325,8.944,8.9787,9.021,9.071,9.1056,9.0671,8.9902,0.0,0.0,0.0,2.3889,2.4914,2.5615,2.5735,2.7077,2.7838,0.0,2.8599,3.0181,3.1642,3.1489,3.1498,3.2106,3.1109,3.1021,3.2327,3.2429,3.2733,3.3389,3.4164,3.458,3.458,3.5918,3.7236,3.8476,3.9786,4.1051,4.2323,4.313,4.3515,4.3515,0.0,0.0,0.0,0.0,0.0,4.5351,4.8291,5.0686,0.0,0.0,5.6928,5.7336,5.7128,5.7496,5.7717,5.4962,5.162,0.0,0.0,0.0,0.0,0.0,4.325,0.0,0.0,0.0,0.0,0.0,0.0,0.0,5.2821,5.3408,5.4671,6.2254,6.6182,6.9536,7.3838,7.6614,7.8677,7.9976,7.9466,7.9279,8.04,7.9547,7.8379,7.7314,7.8904,7.9958,7.9585,8.0984,8.1731,8.1345,8.1024,8.04,7.9332,7.8666,7.8352,7.8572,7.7989,7.7791,7.7971,7.7971,7.7937,7.7938,7.8743,7.9703,8.0862,8.1823,8.3247,8.4901,8.4978,8.544,8.6094,8.6094,8.7055,8.8632,8.944,8.9825,9.0017,9.0902,9.0671,8.9902,0.0,0.0,2.4118,2.4295,2.502,2.5841,2.6556,2.7658,2.857,2.9075,3.1329,3.3138,3.3785,3.3961,3.3951,3.3755,3.314,3.2882,3.3186,3.3186,3.3254,3.3389,3.4528,3.5152,3.5152,3.7051,3.8334,3.8942,4.0492,4.1614,4.2323,4.313,4.3515,4.3515,4.3515,0.0,0.0,0.0,0.0,4.781,5.019,0.0,5.3918,5.6261,5.7703,5.8482,5.8434,5.8639,5.8487,5.5383,5.2481,4.9898,0.0,0.0,0.0,0.0,0.0,0.0,0.0,0.0,0.0,0.0,0.0,0.0,4.7058,4.759,4.9498,5.3702,5.5611,5.8436,6.4828,6.8134,6.9798,6.9638,7.1685,7.4672,7.8429,7.8013,7.6968,7.6133,7.6929,7.8003,7.9241,7.8992,7.9284,8.0504,7.9805,7.8916,7.8029,7.8488,7.8616,7.83,7.8295,7.7731,7.6417,7.6432,7.5793,7.4476,7.5985,7.7485,7.9092,8.1285,8.3247,8.4939,8.5593,8.594,8.6094,8.6094,8.6709,8.7748,8.8594,8.9325,9.0017,9.0902,9.0671,8.9825,0.0,0.0,2.5248,2.6281,2.7246,2.8189,2.9011,3.0301,3.1289,3.1704,3.4019,3.5732,3.5906,3.5625,3.5472,3.5687,3.4866,3.4383,0.0,3.4729,3.509,3.5454,3.6105,3.674,3.7426,3.8178,3.9124,4.0294,4.0845,4.1703,4.291,4.3314,4.3277,4.291,4.3331,4.3515,4.3588,0.0,4.6948,4.9791,5.2474,0.0,5.6124,5.8957,5.9759,5.9358,5.9079,5.8577,5.779,5.6429,5.4177,0.0,0.0,4.9083,4.8287,0.0,4.5721,4.5767,0.0,0.0,0.0,4.4709,0.0,0.0,0.0,4.6507,4.7425,5.0729,5.205,5.4044,5.8762,6.1026,6.2472,6.3356,6.541,6.7416,6.8985,7.1884,7.3553,7.2742,7.4019,7.5408,7.6531,7.7443,7.8295,7.9137,7.8239,7.7598,7.747,7.7564,7.7658,7.7761,7.7008,7.6207,7.5361,7.4938,7.4322,7.3514,7.5207,7.6438,7.7361,8.0323,8.2401,8.367,8.4939,8.5747,8.6094,8.6094,8.6363,8.6863,8.8171,8.894,8.9479,9.0748,9.0402,8.9248,2.5284,0.0,2.6586,2.8185,2.9685,3.0944,3.1727,3.2963,3.3954,3.4431,3.6391,3.786,3.8153,0.0,0.0,0.0,0.0,0.0,0.0,0.0,3.6984,3.7366,3.7658,3.8182,3.8969,3.9042,3.982,4.1336,4.1149,4.1854,4.3339,4.3463,4.313,4.258,4.3351,4.3845,4.4065,0.0,0.0,5.1756,0.0,5.6818,5.8276,6.1532,6.1775,6.0236,5.9626,5.8621,5.751,5.764,5.6003,5.3616,5.2076,5.1268,0.0,0.0,0.0,0.0,0.0,0.0,0.0,0.0,0.0,4.57,0.0,0.0,0.0,4.893,4.9921,5.0986,5.3115,5.4289,5.5464,5.7116,5.904,5.9766,5.8068,6.3692,6.7948,6.7757,7.0246,7.2285,7.3152,7.4974,7.6534,7.7443,7.5938,7.556,7.6989,7.6693,7.6612,7.6784,7.5438,7.4553,7.4207,7.3591,7.3168,7.3014,7.4707,7.5592,7.5861,7.9285,8.1362,8.2401,8.3978,8.5209,8.6094,8.594,8.5978,8.6247,8.7825,8.8556,8.8863,9.0402,9.0094,8.8902,2.5216,2.6699,0.0,2.8353,3.0584,3.2583,3.3403,3.3697,3.4578,3.6795,3.7955,3.9129,0.0,0.0,0.0,0.0,0.0,0.0,4.1828,0.0,0.0,3.6658,3.7823,3.794,3.6776,3.9147,4.0488,4.0683,4.1896,4.2602,4.2789,4.3268,4.3441,4.3387,4.4195,4.4966,4.5736,0.0,5.0325,0.0,5.6712,5.8267,0.0,6.1826,6.223,6.1349,6.0542,6.0162,5.9795,0.0,5.7276,5.5992,0.0,5.2754,5.2098,0.0,0.0,0.0,0.0,0.0,0.0,0.0,4.904,0.0,0.0,0.0,4.6452,4.4672,0.0,4.4745,4.5773,0.0,0.0,4.6672,5.1171,5.3763,5.0765,5.4719,5.8712,6.0777,6.5016,6.8493,7.0359,6.9837,7.1174,7.5472,7.2032,7.1672,7.5984,7.6824,7.6509,7.5053,7.4822,7.3976,7.2514,7.2399,7.1975,7.1206,7.2937,7.4168,7.4976,7.84,8.0823,8.2362,8.3324,8.4632,8.6055,8.5324,8.5478,8.6209,8.7171,8.8017,8.8786,8.971,8.994,8.9671,2.7343,2.8478,0.0,0.0,3.237,3.3733,3.5055,3.7221,3.8762,3.8888,4.0818,0.0,0.0,0.0,0.0,0.0,0.0,4.1102,0.0,0.0,0.0,0.0,0.0,0.0,4.006,4.0524,4.095,4.1294,4.1899,4.2362,4.2693,4.325,4.324,4.2873,4.4635,0.0,4.6709,0.0,5.1389,0.0,0.0,0.0,0.0,6.2622,6.2732,6.1484,6.0676,6.0419,6.0138,0.0,5.7038,0.0,0.0,0.0,0.0,0.0,0.0,0.0,0.0,0.0,0.0,0.0,0.0,0.0,4.5736,0.0,4.4856,0.0,0.0,0.0,0.0,0.0,0.0,0.0,4.8218,4.97,4.7543,5.0873,5.4391,5.6855,5.9478,6.2729,6.6874,6.6565,6.7994,7.2587,6.9509,6.9379,7.4025,7.4788,7.4976,7.4707,7.3745,7.2899,7.2206,7.1706,7.1245,7.0937,7.2668,7.3668,7.4091,7.7015,7.9246,8.09,8.1785,8.3093,8.4632,8.4286,8.4632,8.544,8.5824,8.6478,8.7363,8.8709,8.921,8.9171,2.9201,0.0,0.0,0.0,0.0,3.4906,3.6692,0.0,0.0,0.0,0.0,0.0,4.5278,4.4818,0.0,0.0,4.5522,4.4005,0.0,0.0,4.1271,0.0,0.0,0.0,0.0,0.0,4.1093,4.1538,4.1725,4.2103,4.2693,4.325,4.3314,4.3057,4.5259,4.7058,4.8544,0.0,5.3576,5.7322,5.7886,5.9024,6.0639,6.2658,6.2658,6.1484,6.0676,6.0334,6.0018,5.8203,5.6935,0.0,5.5158,0.0,0.0,0.0,0.0,0.0,4.8925,0.0,0.0,0.0,0.0,0.0,0.0,0.0,0.0,0.0,0.0,0.0,0.0,0.0,0.0,0.0,0.0,4.6282,4.5095,4.7436,5.0128,5.2317,5.4598,5.7756,6.2284,6.1616,6.3163,6.8546,6.549,6.596,7.1842,7.2709,7.3298,7.3904,7.2981,7.2265,7.1804,7.1192,7.0986,7.1189,7.2755,7.363,7.3899,7.6245,7.8207,7.9862,8.0477,8.1823,8.3593,8.3593,8.4093,8.4939,8.5132,8.5593,8.6324,8.8055,8.8556,8.8363,3.0059,3.0381,0.0,0.0,0.0,0.0,0.0,0.0,0.0,0.0,0.0,0.0,0.0,0.0,0.0,0.0,0.0,4.9591,4.9703,0.0,4.3372,0.0,0.0,4.1135,0.0,0.0,0.0,4.0909,4.1495,4.2103,4.2693,4.325,4.3901,4.4691,4.6342,4.8857,5.1977,5.4384,5.7703,6.141,6.1447,6.1043,6.0493,0.0,6.163,6.1484,6.0676,0.0,0.0,5.813,5.7546,0.0,0.0,0.0,0.0,0.0,0.0,0.0,0.0,0.0,0.0,4.9421,0.0,0.0,0.0,0.0,4.7498,0.0,0.0,0.0,0.0,0.0,0.0,0.0,0.0,0.0,0.0,4.3204,4.4378,4.6012,5.0749,5.4574,5.632,5.3665,5.508,6.2937,5.8899,6.0198,6.9784,7.1209,7.1832,7.1973,7.2778,7.2395,7.0761,7.0867,7.1252,7.1858,7.2981,7.3899,7.4707,7.6476,7.8207,7.9823,7.9823,8.1285,8.3593,8.3593,8.4093,8.4978,8.5747,8.6094,8.6324,8.8055,8.8171,8.7555,0.0,0.0,0.0,0.0,0.0,0.0,0.0,4.1882,0.0,0.0,0.0,0.0,0.0,5.4591,5.5007,0.0,0.0,5.2575,5.1144,4.8714,0.0,0.0,0.0,4.3692,0.0,0.0,0.0,0.0,4.2083,4.2518,4.2693,4.325,4.3938,4.4764,4.6379,4.9204,0.0,0.0,0.0,0.0,0.0,6.0518,6.2354,0.0,6.0553,6.0564,6.0632,6.0612,0.0,5.9066,5.7833,5.6745,5.6378,5.5242,5.4026,5.4129,5.4568,0.0,0.0,0.0,5.6708,5.1956,0.0,0.0,0.0,0.0,0.0,0.0,0.0,0.0,0.0,0.0,0.0,0.0,0.0,0.0,0.0,4.3331,4.3681,4.4232,4.8012,5.0785,5.1342,5.1342,5.3441,5.8502,5.7678,5.9684,6.588,6.8186,6.9717,7.0574,7.0861,7.0854,7.0499,7.0562,7.0677,7.092,7.1864,7.3045,7.4385,7.5126,7.6568,7.856,7.8678,7.9467,8.0723,8.1457,8.2583,8.3867,8.4291,8.5132,8.617,8.6748,8.7171,8.744,3.3348,0.0,0.0,0.0,0.0,0.0,0.0,0.0,0.0,0.0,5.2601,0.0,5.9612,0.0,5.9322,0.0,5.8319,5.5801,5.2904,5.1746,0.0,4.921,4.7916,0.0,0.0,0.0,0.0,0.0,0.0,4.3476,4.3413,4.3467,4.4232,4.5608,4.6636,4.9534,5.3775,5.5647,5.7997,0.0,0.0,5.9481,0.0,0.0,5.9525,6.085,0.0,6.072,6.0467,5.9303,5.8115,5.7145,5.7299,5.6443,5.5324,5.5295,5.5998,5.6635,5.5809,5.7304,0.0,5.4231,5.4069,0.0,4.9114,0.0,0.0,0.0,0.0,0.0,0.0,0.0,0.0,0.0,0.0,0.0,0.0,4.3515,4.3515,4.3515,4.5562,4.7179,4.7771,4.8252,5.0119,5.3944,5.4932,5.7285,6.1674,6.531,6.7883,6.934,7.0363,7.0966,7.1197,7.1248,7.1417,7.1655,7.2296,7.3284,7.4622,7.4757,7.5965,7.7908,7.8032,7.8703,7.9722,8.08,8.2075,8.3358,8.3874,8.4901,8.6132,8.644,8.6901,8.7363,0.0,0.0,0.0,0.0,3.9402,0.0,0.0,0.0,5.0345,0.0,5.5904,5.9318,6.1814,6.2695,6.3163,6.342,6.1915,5.9315,5.534,5.5487,0.0,0.0,5.1447,5.0605,4.9099,0.0,0.0,0.0,0.0,4.4941,4.4654,4.3901,4.4819,4.7039,4.7076,4.9754,5.4363,5.6748,5.9648,6.2413,6.0028,5.8066,5.6527,5.6199,5.8631,6.2136,6.1081,6.0521,6.0112,5.8832,5.8394,5.8322,5.8394,5.8773,5.8967,5.7996,5.937,6.0393,5.6791,5.7334,5.8422,5.6263,5.5757,0.0,0.0,0.0,5.3151,0.0,0.0,0.0,0.0,0.0,0.0,0.0,0.0,0.0,0.0,0.0,4.3515,4.3515,4.3515,4.4102,4.559,4.4452,4.5328,4.9546,5.0676,5.3088,5.7528,6.2632,6.6311,6.8224,7.0991,7.249,7.2584,7.2764,7.3202,7.3839,7.402,7.4549,7.5368,7.533,7.6247,7.7871,7.7871,7.8845,8.0487,8.151,8.2479,8.3379,8.445,8.5363,8.6209,8.6978,8.7248,8.7094,3.754,3.9498,4.1355,0.0,4.2292,4.2947,0.0,0.0,0.0,0.0,6.163,6.4824,6.8421,6.7944,6.712,6.6582,6.4639,0.0,0.0,0.0,0.0,5.7117,5.5541,5.4107,5.2977,5.0669,0.0,4.6767,0.0,0.0,4.4691,4.4488,4.5039,4.625,4.6819,4.88,5.183,5.3665,5.6466,5.9627,5.7837,5.7802,5.8663,0.0,5.8493,5.9953,5.9434,5.9194,5.9066,5.8757,5.799,5.7421,5.861,5.8968,5.8969,5.9285,5.9956,6.0396,5.9441,6.0004,6.031,5.7997,5.785,5.7483,0.0,0.0,0.0,0.0,0.0,0.0,0.0,0.0,0.0,0.0,0.0,0.0,0.0,0.0,0.0,4.3515,4.3515,4.3441,4.324,4.4452,4.5993,4.7721,4.9727,5.2712,5.6851,6.0063,6.3229,6.6373,6.9199,7.1121,7.1975,7.2375,7.2605,7.2794,7.2832,7.3611,7.5017,7.4505,7.5475,7.7524,7.7645,7.8196,7.9198,8.0411,8.1746,8.3122,8.3709,8.4824,8.6055,8.567,8.5132,8.4632,3.9522,0.0,0.0,4.6507,0.0,0.0,5.0068,5.1793,0.0,6.0823,6.4053,0.0,6.9449,6.9853,6.9668,6.8901,6.6879,0.0,6.3321,0.0,0.0,6.0394,5.9087,5.7585,5.5847,5.3003,0.0,4.7788,0.0,0.0,4.4691,4.4691,4.5333,4.6434,4.6892,4.8654,5.1499,5.4012,5.6314,5.8117,5.7146,5.7202,0.0,5.7126,5.7532,5.849,5.8295,5.8452,5.8667,5.845,5.8123,5.7963,5.9033,5.9595,5.9953,6.0391,6.0932,6.13,6.0603,6.1006,6.119,5.9465,5.9391,5.8964,5.6124,5.6161,5.6014,0.0,5.2344,5.1463,0.0,0.0,0.0,0.0,0.0,0.0,0.0,0.0,0.0,0.0,4.3515,4.3167,4.2396,4.3864,4.5333,4.6489,4.8177,5.0178,5.2433,5.7037,6.0868,6.3613,6.7141,7.0061,7.2347,7.2222,7.2614,7.3492,7.3492,7.3985,7.4895,7.4863,7.5812,7.7396,7.7862,7.8449,7.9258,8.0105,8.1251,8.255,8.3692,8.4286,8.4478,8.4786,8.4593,8.417,4.1389,0.0,0.0,0.0,0.0,0.0,0.0,5.6528,0.0,6.2365,0.0,6.7871,6.8568,7.033,7.1165,7.0484,0.0,6.6624,6.4968,6.5402,6.4722,6.2485,6.2053,6.0647,5.8037,5.4958,0.0,0.0,0.0,0.0,4.4856,4.4856,4.5608,4.6966,4.7149,4.8911,5.1841,5.5231,5.6757,5.6927,5.6949,5.6443,5.561,5.5799,5.6528,5.7481,5.7553,5.8024,5.8517,5.8222,5.8385,5.887,5.9545,6.0316,6.0996,6.1182,6.186,6.2181,6.0676,6.075,6.1117,6.0419,6.0309,5.9832,5.7629,5.7116,5.6492,5.4268,5.2637,5.1499,0.0,0.0,0.0,0.0,0.0,0.0,0.0,0.0,0.0,0.0,0.0,0.0,4.2543,4.3094,4.4121,4.5626,4.6269,4.6966,4.77,5.4203,5.8943,6.1248,6.5523,6.9424,7.2808,7.2488,7.3074,7.4682,7.4836,7.4895,7.4932,7.5728,7.6524,7.7282,7.8078,7.8971,7.9794,8.0163,8.0964,8.2165,8.4131,8.3978,8.2824,8.4356,8.4873,8.468,4.3791,0.0,0.0,0.0,0.0,5.8657,6.1887,6.42,6.6549,6.9265,7.1835,7.3487,7.3634,7.2826,7.1961,7.1186,6.9331,0.0,0.0,0.0,0.0,6.4939,6.4,6.2386,5.9957,5.6149,5.3326,0.0,0.0,0.0,4.57,4.57,4.5847,4.6177,4.7498,4.8703,4.9763,5.1107,0.0,5.3458,5.5202,5.577,5.5718,5.6832,5.6973,5.6704,5.7374,5.7667,5.7846,5.8402,5.7795,5.7297,5.9781,6.0247,6.0088,6.1213,6.1178,6.0603,5.9661,5.9515,5.9588,5.9441,5.9905,6.0126,5.9038,5.8781,5.845,5.7373,5.6418,5.5133,5.3151,0.0,0.0,0.0,0.0,0.0,0.0,0.0,0.0,0.0,0.0,4.4892,4.3441,4.3441,4.3901,4.4856,4.4415,4.6177,5.0875,5.3031,5.6866,6.2798,6.6679,6.9588,0.0,0.0,7.4065,7.3436,7.443,7.4895,7.4932,7.5728,7.6183,7.6373,7.7244,7.8183,7.9089,7.9343,8.0935,8.3358,8.4445,8.4709,8.4494,8.4903,8.4628,8.4049,0.0,0.0,0.0,0.0,0.0,0.0,0.0,7.0587,7.2202,7.0844,7.1688,7.2239,7.1835,7.2606,7.2731,7.175,7.0177,6.9206,6.9034,6.7502,6.6352,6.5783,6.4444,0.0,6.0629,5.666,5.3761,5.2,0.0,0.0,4.5883,4.5883,4.6104,4.6599,4.8536,4.9987,5.1136,0.0,0.0,5.4769,5.564,5.6,5.6107,5.6723,5.674,5.6454,5.6847,5.6954,5.7025,5.7382,5.7275,5.7287,5.8835,5.9473,5.973,6.0564,6.0579,6.0236,5.9404,5.9184,5.9074,5.8694,5.8877,5.9061,5.8657,5.8584,5.8474,5.807,5.7373,5.6198,5.4179,5.0508,0.0,0.0,0.0,0.0,0.0,0.0,0.0,0.0,0.0,0.0,0.0,4.3725,4.3342,4.403,4.3718,4.5057,4.8636,5.1206,5.5037,6.043,0.0,0.0,7.0909,0.0,7.3251,7.3725,7.4502,7.4895,7.4932,7.5728,7.6107,7.6145,7.7141,7.8078,7.8959,7.9702,8.0941,8.2439,8.3708,8.3939,8.3725,8.5121,8.4894,8.3861,0.0,5.4378,0.0,0.0,6.3906,6.7467,7.0779,7.4705,7.5916,7.2129,7.1321,7.0881,7.0257,7.2129,7.3069,7.2181,7.0885,6.9998,6.9704,6.7698,6.6296,6.587,6.4393,6.2656,6.0673,5.696,5.4083,0.0,0.0,0.0,0.0,4.6177,4.6654,4.766,0.0,0.0,0.0,0.0,5.5179,5.6455,5.642,5.6383,5.6383,5.6383,5.6383,5.6383,5.6383,5.6383,5.6383,5.6383,5.6811,5.7438,5.8062,5.8762,5.9414,5.9659,5.9932,5.9979,5.9148,5.8927,5.8804,5.8143,5.7997,5.7997,5.7997,5.7997,5.7997,5.7997,5.7483,5.6638,5.517,5.2674,0.0,0.0,0.0,0.0,0.0,0.0,0.0,0.0,0.0,0.0,4.6397,4.4253,4.3122,4.3779,4.3833,4.4583,4.6324,4.9811,0.0,0.0,0.0,6.568,6.9371,0.0,7.2525,7.3928,7.4406,7.467,7.4792,7.5624,7.5889,7.5776,7.6936,7.7836,7.8599,8.0033,8.0888,8.1516,8.3016,8.3285,8.3093,8.535,8.5298,8.4068,0.0,0.0,0.0,0.0,0.0,7.0036,7.1138,7.4705,7.7127,7.6686,7.5359,7.4441,7.4368,7.3303,7.254,7.2438,7.0999,7.011,7.0082,6.7807,6.6156,6.5396,6.4207,6.2506,6.0147,5.7313,5.5208,0.0,0.0,4.7507,0.0,0.0,0.0,0.0,0.0,0.0,0.0,5.3731,5.4763,5.541,5.6097,5.6383,5.6383,5.6383,5.6383,5.6383,5.6383,5.6383,5.6383,5.6383,5.6454,5.6795,5.8528,5.8798,5.858,5.8858,5.9103,5.9148,5.8327,5.8107,5.8107,5.8033,5.7997,5.7997,5.7997,5.7997,5.7997,5.7997,5.7923,5.7629,5.6748,5.5721,5.462,0.0,0.0,0.0,0.0,0.0,0.0,0.0,0.0,0.0,4.8086,4.526,4.3834,4.4874,4.4943,4.585,0.0,0.0,0.0,5.6162,6.0944,6.3998,6.5147,7.0696,7.3204,7.2691,7.3464,7.3991,7.4387,7.5201,7.5163,7.4545,7.5944,7.6786,7.7325,7.9153,8.0808,8.2285,8.3208,8.4016,8.4818,8.596,8.5791,8.488,0.0,0.0,0.0,0.0,0.0,0.0,0.0,7.6246,7.7273,7.7273,7.6723,7.5953,7.5028,7.4331,7.356,7.2569,7.1027,7.011,7.011,6.7393,6.5632,6.5301,6.3914,6.2446,6.1006,5.8494,5.646,0.0,0.0,0.0,0.0,0.0,0.0,0.0,0.0,5.3616,5.422,5.5203,5.6027,5.6633,5.6454,5.6383,5.6383,5.6383,5.6383,5.6383,5.6383,5.6383,5.6383,5.6383,5.6383,5.6517,5.727,5.7585,5.7721,5.7822,5.8142,5.84,5.8107,5.7997,5.7997,5.7997,5.7997,5.7997,5.7997,5.7997,5.8143,5.8621,5.9098,5.9501,5.9648,5.785,5.6748,5.8033,0.0,0.0,0.0,0.0,0.0,0.0,0.0,0.0,0.0,4.4771,4.3346,0.0,0.0,0.0,0.0,0.0,0.0,5.4264,0.0,6.4672,6.5041,7.0546,7.3175,7.2867,7.3454,7.38,7.3944,7.4515,7.4833,7.5018,7.6103,7.7096,7.8016,7.9254,8.0516,8.1708,8.3054,8.372,8.4097,8.5522,8.5819,8.5421,6.5007,0.0,6.6512,0.0,7.1615,7.2459,7.665,7.7273,7.7273,7.7273,7.7273,7.6686,7.5102,7.4698,7.4001,7.2606,7.1248,7.0367,7.011,6.754,6.5778,6.5338,6.3943,0.0,6.163,5.9685,5.7923,5.633,5.2989,0.0,0.0,0.0,0.0,0.0,5.4453,5.5584,5.5874,5.65,5.6918,5.7204,5.6633,5.6383,5.6383,5.6383,5.6383,5.6383,5.6383,5.6383,5.6383,5.6383,5.6383,5.6383,5.6383,5.6786,5.7188,5.7188,5.7559,5.7997,5.7997,5.7997,5.7997,5.7997,5.818,5.8364,5.8364,5.8547,5.8914,5.9758,6.0382,6.1006,6.1814,6.0089,5.8988,6.0309,0.0,0.0,0.0,0.0,0.0,0.0,5.031,4.8696,4.9001,4.5381,0.0,0.0,0.0,0.0,0.0,0.0,0.0,0.0,0.0,0.0,6.5301,7.0374,7.299,7.3124,7.3272,7.3427,7.3553,7.3944,7.4577,7.5462,7.6303,7.7237,7.8207,7.9323,8.0323,8.1246,8.2622,8.3214,8.3476,8.4822,8.5394,8.5326,6.7173,6.8935,7.1027,7.4294,7.5506,7.6313,7.7163,7.7273,7.7273,7.7273,7.7273,7.6686,7.5102,7.4184,7.3377,7.2569,7.1762,7.0954,7.0146,6.8568,6.6953,0.0,0.0,6.3282,6.163,6.0786,5.9575,5.796,0.0,0.0,5.1602,0.0,5.3087,5.4486,5.6795,5.7307,5.6418,5.7267,5.7132,5.6418,5.6383,5.6383,5.6383,5.6383,5.6383,5.6383,5.6383,5.6383,5.6383,5.6383,5.6383,5.6383,5.6383,5.6786,5.7188,5.7188,5.7559,5.7997,5.7997,5.7997,5.7997,5.7997,5.8621,5.9184,5.9184,5.9795,6.0603,6.141,6.1557,6.1814,6.2658,6.2743,6.1704,5.8547,0.0,0.0,0.0,0.0,0.0,5.2307,4.9811,4.8947,5.0618,4.7792,0.0,0.0,0.0,0.0,0.0,0.0,0.0,5.5486,6.1117,0.0,6.5301,7.0073,7.2723,7.3098,7.2686,7.2714,7.3124,7.3528,7.4325,7.5462,7.6303,7.693,7.7438,7.9131,8.0323,8.1154,8.1798,8.2535,8.3361,8.3984,8.4385,8.4491,6.9889,7.1431,7.3046,7.4625,7.5579,7.6387,7.7163,7.7273,7.7273,7.7273,7.7273,7.687,7.5836,7.4992,7.4184,0.0,7.1578,7.0367,0.0,6.8091,6.6402,6.5375,6.453,6.3576,6.2438,6.163,6.0713,5.9648,0.0,0.0,0.0,5.5019,5.5799,5.6662,5.8458,5.9109,5.8774,5.8488,5.8203,5.7853,5.6811,5.6383,5.6383,5.6383,5.6383,5.6383,5.6383,5.6383,5.6383,5.6383,5.6383,5.6383,5.6383,5.6786,5.7188,5.7188,5.7559,5.8107,5.8694,5.8841,5.8904,5.9262,5.9542,5.9761,5.9761,6.0494,6.13,6.1557,6.1594,6.1667,6.1924,6.152,6.0676,5.9098,5.9245,0.0,5.7116,0.0,0.0,5.1463,4.8689,4.7514,4.8964,4.6844,0.0,0.0,0.0,0.0,0.0,0.0,0.0,0.0,6.1887,0.0,6.6109,7.0367,7.281,7.3496,7.281,7.2926,7.3701,7.3845,7.454,7.5649,7.653,7.7368,7.8207,7.9198,8.0109,8.0992,8.1709,8.2102,8.2414,8.3848,8.4365,8.4289,7.1138,7.2606,7.3964,7.4771,7.5579,7.6387,7.7163,7.7273,7.7273,7.7273,7.7273,7.709,7.6607,7.5836,0.0,7.378,7.2055,7.0881,7.0587,6.9155,6.7687,6.6256,6.5705,6.4897,6.3734,6.3246,0.0,6.13,5.903,5.755,5.6939,5.7272,5.7807,5.8524,5.9809,6.0201,5.988,5.903,5.8531,5.8203,5.6918,5.6383,5.6383,5.6383,5.6383,5.6383,5.6383,5.6383,5.6383,5.6383,5.6383,5.6383,5.6383,5.6707,5.7108,5.7397,5.8028,5.8641,5.8823,5.9115,5.9358,5.939,5.9848,6.042,6.0814,6.1506,6.2034,6.2034,6.2034,6.1961,6.1667,6.119,6.0493,5.9368,5.8951,5.8253,5.6859,0.0,5.2447,0.0,0.0,0.0,0.0,4.8307,4.8356,0.0,0.0,0.0,0.0,0.0,5.5904,5.7519,6.398,6.7687,6.8311,7.1101,7.2753,7.323,7.2888,7.3156,7.4009,7.4147,7.4725,7.5633,7.6514,7.7232,7.7867,7.8633,7.9267,7.9872,8.0302,8.0423,8.056,8.1992,8.2681,8.293,7.1211,7.2679,7.4001,7.4771,7.5616,7.646,7.7163,7.7273,7.7273,7.7273,7.7273,7.7273,7.7273,7.6607,7.5506,7.4001,0.0,0.0,7.1329,7.1183,7.011,6.7797,6.7677,6.688,6.5338,6.5264,6.4395,6.273,5.9983,5.8878,5.9211,5.8995,5.9244,6.0023,6.0772,6.0665,5.988,5.903,5.8274,5.7553,5.6704,5.6383,5.6383,5.6383,5.6383,5.6383,5.6383,5.6383,5.6383,5.6383,5.6383,5.6383,5.6383,5.6671,5.71,5.781,5.8753,5.9371,5.8772,5.9144,5.9516,5.8792,5.9733,6.1127,6.2146,6.2614,6.2853,6.2817,6.278,6.2548,6.1741,6.152,6.0933,5.9417,5.8354,5.6923,5.4627,5.2425,5.0679,0.0,0.0,0.0,5.0688,5.1573,5.2344,0.0,0.0,0.0,0.0,0.0,5.7373,6.278,6.6843,6.9669,7.1256,7.2055,7.2422,7.248,7.2871,7.3415,7.4056,7.4428,7.4883,7.5462,7.6303,7.6685,7.6761,7.7564,7.7976,7.8075,7.7826,7.79,7.819,7.8897,7.9848,8.0809,0.0,0.0,7.4698,7.4882,7.6093,7.7053,7.7273,7.7273,7.7273,7.7273,7.7273,7.7273,7.7273,7.6607,7.5946,7.5579,7.367,7.2165,7.1329,7.0146,6.8935,6.7724,6.71,6.6329,6.5338,6.4714,6.3664,6.2185,6.1507,6.0999,6.061,6.0552,6.0629,6.0808,6.1022,6.0665,5.988,5.903,5.8274,5.7553,5.6704,5.6383,5.6383,5.6383,5.6383,5.6383,5.6383,5.6383,5.6383,5.6383,5.6383,5.6383,5.6383,5.7424,5.8592,5.8372,5.8477,5.8953,6.0201,6.0534,6.0549,6.0719,6.106,6.1468,6.1987,6.2765,6.3283,6.2902,6.278,6.2548,6.1741,6.0603,5.9577,5.8982,5.6454,5.4301,5.3508,5.1542,5.009,0.0,4.9925,5.046,5.161,5.1867,5.2601,0.0,0.0,5.5772,5.8487,5.9428,6.1374,6.4604,6.743,6.9669,7.1256,7.1505,7.1747,7.2066,7.2775,7.3566,7.445,7.4573,7.4883,7.5462,7.6303,7.6685,7.6705,7.6769,7.6882,7.6985,7.6282,7.6522,7.738,7.8321,7.9652,8.1029,7.2275,7.3193,7.3927,7.4294,7.5395,7.6319,7.6717,7.7053,7.7273,7.7273,7.7273,7.7273,7.7273,7.6937,7.6497,7.613,7.4221,7.2863,7.2422,7.1248,7.0183,6.9376,6.8568,6.7707,6.6765,6.5923,6.464,6.2859,6.2498,6.1882,6.1093,6.1093,6.1093,6.1093,6.1093,6.0665,5.988,5.903,5.8274,5.7553,5.6704,5.6383,5.6383,5.6383,5.6383,5.6383,5.6383,5.6383,5.6383,5.6383,5.6383,5.6482,5.6975,5.7855,5.8736,5.9319,5.9644,5.9962,6.0665,6.0873,6.1091,6.1709,6.2234,6.2688,6.3036,6.3639,6.3982,6.3309,6.3152,6.2651,6.0989,5.9816,5.8656,5.7442,5.4564,5.2279,5.1722,4.977,4.901,5.0715,5.1246,5.2331,5.4524,5.539,5.6051,5.6565,5.7923,0.0,6.0762,6.3466,6.5375,6.6366,6.8752,7.044,7.1293,7.0954,7.0956,7.1309,7.1935,7.2851,7.401,7.4312,7.4752,7.5442,7.6008,7.6147,7.6006,7.5968,7.5794,7.5539,7.5424,7.5583,7.5923,7.6878,7.8061,7.9246,7.2349,7.2606,7.2936,7.3744,7.4551,7.5359,7.6166,7.6864,7.7273,7.7273,7.7273,7.7273,7.7273,7.7273,7.7017,7.635,7.4918,7.3964,7.3707,7.2826,7.2018,7.1329,7.0347,6.9392,6.8406,6.7437,6.5887,6.3716,6.3033,6.2169,6.1093,6.1093,6.1093,6.1093,6.1093,6.0665,5.988,5.903,5.8274,5.7553,5.6704,5.6383,5.6383,5.6383,5.6383,5.6383,5.6383,5.6383,5.6418,5.6525,5.6561,5.6759,5.7792,5.8224,5.8664,6.0268,6.1071,6.1343,6.0732,6.0898,6.145,6.2128,6.2982,6.3788,6.4217,6.45,6.4448,6.3665,6.3656,6.2893,6.0204,5.924,5.806,5.5508,5.2598,5.0433,4.9629,0.0,4.8378,5.1885,5.3085,5.4891,5.806,5.9722,6.0456,6.0138,6.3246,6.4787,6.3943,6.71,6.8715,6.8238,7.022,7.1219,7.1109,7.033,7.0099,7.0534,7.1106,7.2087,7.335,7.401,7.4684,7.5389,7.5544,7.5459,7.5227,7.5183,7.4795,7.424,7.4625,7.4614,7.4456,7.5063,7.6038,7.7038,7.2349,7.3046,7.378,7.4588,7.5395,7.6203,7.698,7.72,7.7273,7.7273,7.7273,7.7273,7.7273,7.7273,7.7237,7.7127,7.6276,7.5139,7.378,7.2312,7.1431,7.1293,6.9628,6.858,6.8406,6.6663,6.4824,6.2889,6.2745,6.2169,6.1093,6.1093,6.1093,6.1093,6.1093,6.0665,5.988,5.903,5.8274,5.7553,5.6704,5.6383,5.6383,5.6383,5.6383,5.6383,5.6383,5.6383,5.649,5.7168,5.741,5.7553,5.8366,5.9279,6.0076,6.0384,6.0968,6.1487,6.1343,6.1686,6.2128,6.2271,6.2438,6.2779,6.3758,6.4014,6.3877,6.3309,6.3764,6.3398,6.0552,5.9406,5.7715,5.4103,5.067,4.8277,4.7864,0.0,5.0297,5.2978,5.7133,5.9857,6.0028,6.086,6.2218,6.4237,6.431,6.5668,6.8788,6.8935,6.9486,7.0697,7.1101,7.0991,7.0293,6.9486,6.9447,7.0121,7.1587,7.2756,7.3566,7.4424,7.4942,7.5209,7.5246,7.532,7.5295,7.4482,7.4175,7.407,7.2577,7.2935,7.4176,7.3766,7.5056,7.7038,7.2973,7.3083,7.334,7.4294,7.5028,7.5579,7.5983,7.6723,7.7273,7.7273,7.7273,7.7273,7.7273,7.7273,7.7273,7.7273,7.657,7.5763,7.5028,7.3487,7.2422,7.1982,7.0522,6.9143,6.7879,6.6427,6.4818,6.3084,6.3084,6.2385,6.1093,6.1093,6.1093,6.1093,6.1093,6.0665,5.988,5.903,5.8274,5.7553,5.6704,5.6383,5.6454,5.6882,5.7025,5.7025,5.7025,5.7311,5.7632,5.7596,5.7846,5.8374,5.933,5.9973,6.048,6.0875,6.1235,6.1494,6.1321,6.1783,6.2271,6.2271,6.2592,6.3183,6.4274,6.4219,6.3847,6.3567,6.3278,6.2367,5.9989,5.8517,5.6654,5.3639,5.0732,0.0,4.9792,5.0356,5.2232,5.6366,5.9414,6.1609,6.2662,6.3658,6.4897,6.6476,6.6659,6.7687,6.9963,6.9603,6.9685,7.0624,7.066,7.0477,7.011,6.8862,6.8624,6.9355,7.014,7.1103,7.2279,7.3269,7.3992,7.4543,7.5054,7.5281,7.5263,7.488,7.4442,7.4005,7.3609,7.3704,7.4061,7.4226,7.5094,7.6219,7.3303,7.2936,7.2899,7.4074,7.4625,7.5028,7.5402,7.6503,7.7273,7.7273,7.7273,7.7273,7.7273,7.7273,7.7273,7.7273,7.6662,7.6222,7.613,7.4622,7.345,7.2826,7.1267,6.9346,6.7079,6.6217,6.5019,6.3377,6.3377,6.2592,6.1093,6.1093,6.1093,6.1093,6.1093,6.0772,6.013,5.9316,5.8667,5.806,5.7275,5.6918,5.6989,5.7632,5.7846,5.7846,5.7846,5.8238,5.8638,5.8274,5.8524,5.9159,6.0239,6.0575,6.0719,6.1444,6.1803,6.1817,6.126,6.1664,6.2271,6.2271,6.2699,6.3433,6.4464,6.4238,6.3807,6.3807,6.302,6.1703,5.9597,5.8029,5.6094,5.3359,0.0,5.0995,5.2428,5.2788,5.4768,5.9837,6.1525,6.3079,6.4994,6.616,6.7173,6.8164,6.8623,6.9206,7.0039,6.9566,6.9413,6.9705,6.9788,6.9816,6.9816,6.8385,6.8044,6.8656,6.8935,6.9766,7.1007,7.213,7.3097,7.3934,7.4727,7.5033,7.4979,7.5012,7.4481,7.3649,7.4087,7.4106,7.3953,7.4504,7.503,7.5556,7.2569,7.2532,7.301,7.4588,7.4882,7.5402,7.6907,7.72,7.7273,7.7273,7.7273,7.7273,7.7273,7.7273,7.7273,7.7273,7.6956,7.6559,7.6136,7.4701,7.3801,7.3604,7.087,6.8244,6.5975,6.5839,6.5019,6.3377,6.3377,6.2592,6.1093,6.1093,6.1093,6.1093,6.1093,6.1058,6.095,6.0165,5.9809,5.9666,5.8852,5.8531,5.8531,5.8602,5.8602,5.8602,5.8602,5.8638,5.8816,5.9523,5.9773,5.9951,6.0802,6.1051,6.1194,6.201,6.2724,6.2944,6.1486,6.1664,6.2271,6.2271,6.2342,6.2587,6.3336,6.3479,6.3438,6.3438,6.357,6.2802,6.0063,5.8976,5.7158,5.3007,0.0,0.0,5.4338,5.5996,5.843,6.2113,6.4363,6.5825,6.6313,6.7136,6.8238,6.9816,6.9163,6.9064,6.9953,6.8926,6.8363,6.8515,6.8834,6.9009,6.9009,6.8128,6.7889,6.8247,6.9378,7.0159,7.068,7.1877,7.2946,7.3895,7.399,7.4119,7.4261,7.4101,7.3515,7.2697,7.1788,7.2434,7.3838,7.3254,7.4188,7.574,7.3377,7.2973,7.334,7.5916,7.6393,7.6576,7.72,7.7273,7.7273,7.7273,7.7273,7.7273,7.7273,7.7273,7.7273,7.7273,7.6993,7.6688,7.6554,7.5342,7.3631,7.1371,6.9746,6.8139,6.6553,6.6053,6.5268,6.4162,6.4162,6.3591,6.2521,6.2057,6.1843,6.1807,6.1307,6.1093,6.1058,6.0237,5.9916,5.9844,5.8995,5.8709,5.8745,5.9244,5.9423,5.9423,5.9423,5.9773,6.0165,5.9987,6.0237,6.0701,6.0986,6.1093,6.1165,6.145,6.2092,6.2592,6.1985,6.2378,6.2735,6.1771,6.1914,6.2485,6.3234,6.2773,6.2446,6.3438,6.2781,6.164,6.06,5.959,5.8203,5.609,0.0,5.67,5.7827,5.918,6.1083,6.3889,6.5117,6.5908,6.6366,6.6801,6.7534,6.8655,6.8433,6.8578,6.9472,6.8742,6.7787,6.6634,6.7588,6.8385,6.8898,6.8091,6.7889,6.8198,6.8907,6.9424,6.9846,7.1043,7.1807,7.2225,7.3269,7.3763,7.384,7.3763,7.3535,7.3155,7.2339,7.2471,7.3058,7.2949,7.3423,7.419,7.345,7.3413,7.4111,7.6833,7.7273,7.6943,7.5983,7.665,7.7163,7.6833,7.709,7.7273,7.7273,7.7273,7.7169,7.682,7.6469,7.6276,7.6276,7.5439,7.3513,7.0329,6.9433,6.8407,6.7049,6.6196,6.5411,6.4626,6.4626,6.4198,6.3377,6.2877,6.2521,6.2271,6.17,6.1343,6.1058,6.0522,6.0272,6.0237,5.9701,5.9423,5.9494,6.0094,6.0272,6.0272,6.0272,6.0629,6.1022,6.0451,6.0629,6.1093,6.1093,6.1272,6.1557,6.2057,6.2592,6.299,6.2835,6.3306,6.3484,6.1955,6.1832,6.2269,6.2733,6.237,6.218,6.3302,6.2508,6.1549,6.1309,6.0421,5.9471,5.8693,5.9081,5.9788,6.0911,6.2032,6.3415,6.5376,6.58,6.6076,6.638,6.6566,6.704,6.7836,6.7631,6.7662,6.8211,6.7855,6.6983,6.5555,6.6912,6.7834,6.8164,6.7834,6.781,6.8058,6.8418,6.8702,6.8848,6.9922,7.0523,7.0866,7.2364,7.3088,7.3227,7.3472,7.3303,7.2792,7.2376,7.2276,7.2348,7.252,7.2892,7.333,7.2496,7.378,7.5395,7.698,7.7273,7.6209,7.3046,7.5249,7.6907,7.5842,7.6613,7.7273,7.731,7.731,7.682,7.5703,7.5277,7.508,7.508,7.4781,7.3532,7.1123,7.0224,6.8913,6.7049,6.6232,6.5411,6.4626,6.4626,6.4198,6.3413,6.3413,6.302,6.2307,6.2337,6.1843,6.1093,6.1093,6.1093,6.1093,6.1093,6.1093,6.1093,6.1093,6.1093,6.1093,6.1093,6.1093,6.1093,6.1093,6.1093,6.1093,6.1093,6.1664,6.2592,6.4162,6.4626,6.4464,6.3948,6.4346,6.4522,6.2972,6.2152,6.171,6.171,6.2336,6.2892,6.2892,6.3054,6.2959,6.2238,6.1684,6.1061,6.025,6.1076,6.2194,6.3267,6.4357,6.5491,6.6582,6.6684,6.6684,6.6684,6.6684,6.701,6.78,6.7032,6.6343,6.6107,6.596,6.5802,6.549,6.6912,6.7283,6.6512,6.7283,6.7687,6.7714,6.8033,6.8047,6.7815,6.849,6.9251,7.0136,7.1304,7.2033,7.2451,7.3265,7.262,7.1143,7.133,7.1527,7.1713,7.1835,7.2577,7.3476,7.2496,7.2899,7.3377,7.3854,7.5769,7.698,7.5989,7.5696,7.5879,7.6723,7.709,7.7212,7.6961,7.6929,7.6692,7.6148,7.5272,7.4644,7.4366,7.4762,7.419,7.233,7.1006,6.9258,6.7053,6.6767,6.6232,6.5447,6.5447,6.534,6.5054,6.4519,6.4126,6.3877,6.277,6.2164,6.1914,6.1343,6.1093,6.1165,6.17,6.1914,6.1914,6.1914,6.1914,6.1843,6.1307,6.1093,6.1093,6.1093,6.1093,6.12,6.1771,6.2449,6.3163,6.3627,6.4162,6.4464,6.3948,6.4075,6.3974,6.2367,6.2265,6.2544,6.2544,6.2435,6.263,6.3664,6.3213,6.2722,6.3028,6.2532,6.2144,6.2448,6.2628,6.3157,6.4212,6.46,6.4893,6.5204,6.524,6.5141,6.4908,6.4875,6.4979,6.5226,6.5293,6.5329,6.5261,6.6025,6.5737,6.416,6.5906,6.6476,6.5668,6.7026,6.7606,6.735,6.7747,6.7763,6.7486,6.8416,6.9005,6.9372,7.135,7.2276,7.2413,7.2658,7.2528,7.2053,7.1069,7.0834,7.1022,7.1299,7.1621,7.1902,7.2496,7.2496,7.2496,7.2496,7.4661,7.6283,7.6063,7.5916,7.6063,7.6754,7.709,7.715,7.6834,7.6801,7.6461,7.5564,7.4362,7.3511,7.3262,7.4154,7.4011,7.2405,7.1478,6.9872,6.7481,6.7124,6.6589,6.5804,6.5804,6.5804,6.5804,6.5304,6.4912,6.4555,6.327,6.2465,6.196,6.1432,6.095,6.0583,6.1903,6.2067,6.1569,6.2424,6.2342,6.1843,6.195,6.1628,6.12,6.1807,6.2021,6.2128,6.2949,6.3306,6.352,6.4162,6.4326,6.4215,6.3966,6.3833,6.3472,6.2249,6.235,6.2731,6.2731,6.2675,6.2821,6.3401,6.3401,6.3226,6.3091,6.2956,6.299,6.3429,6.3567,6.3858,6.4496,6.4736,6.4708,6.4463,6.4428,6.4393,6.4428,6.4428,6.4428,6.4428,6.4704,6.4875,6.4875,6.6043,6.5807,6.3896,6.5542,6.5962,6.4861,6.6109,6.6892,6.721,6.7451,6.7332,6.6967,6.7973,6.8535,6.872,7.0822,7.1883,7.2147,7.249,7.2469,7.2175,7.1331,7.0846,7.0729,7.1093,7.1213,7.1236,7.2606,7.2569,7.2496,7.2496,7.378,7.4698,7.4258,7.5983,7.7017,7.6313,7.676,7.7045,7.6801,7.6664,7.6007,7.4503,7.3155,7.2335,7.2264,7.3369,7.3333,7.187,7.1727,7.0585,6.8266,6.7481,6.6696,6.5911,6.5839,6.5804,6.5804,6.5804,6.5411,6.4697,6.3774,6.2675,6.1594,6.1354,6.0571,5.9687,6.1722,6.1671,6.0603,6.2631,6.2562,6.1486,6.2877,6.2455,6.1462,6.2852,6.3418,6.3627,6.4376,6.4162,6.3877,6.5375,6.4882,6.3928,6.4078,6.3643,6.3049,6.2537,6.2448,6.2482,6.2415,6.2922,6.3226,6.2618,6.3497,6.4005,6.2719,6.3057,6.3531,6.3599,6.404,6.432,6.432,6.4781,6.4837,6.4108,6.4075,6.4288,6.4773,6.4736,6.4735,6.4803,6.4803,6.4803,6.4836,6.6038,6.596,6.4339,6.5642,6.5632,6.4127,6.4824,6.584,6.7101,6.7073,6.6823,6.6421,6.7314,6.785,6.8203,6.9867,7.0952,7.151,7.2274,7.2121,7.1522,7.1528,7.1183,7.0657,7.0886,7.1081,7.1242,7.3303,7.2936,7.2496,7.2496,7.3487,7.4404,7.4698,7.6173,7.7237,7.7053,7.6428,7.6077,7.637,7.5489,7.4897,7.4977,7.4725,7.426,7.3619,7.3833,7.3583,7.2584,7.2013,7.0871,6.9087,6.8266,6.7481,6.6731,6.6125,6.5804,6.5804,6.5804,6.5697,6.5451,6.3676,6.2676,6.2335,6.0646,5.9755,5.9621,6.1322,6.1693,6.145,6.31,6.3389,6.2949,6.327,6.2915,6.2354,6.2673,6.346,6.4376,6.4555,6.4912,6.534,6.5697,6.5237,6.4597,6.4218,6.3643,6.3049,6.2537,6.2821,6.3125,6.2516,6.2516,6.2753,6.3193,6.3057,6.2956,6.3226,6.3396,6.37,6.4275,6.4464,6.4544,6.4544,6.4512,6.4246,6.3489,6.3823,6.4146,6.4252,6.3694,6.3518,6.3994,6.4062,6.4127,6.435,6.5838,6.5865,6.4022,6.5004,6.5081,6.409,6.4273,6.4998,6.6234,6.5973,6.63,6.7101,6.6912,6.728,6.8002,6.8887,6.9459,6.9677,6.9868,6.991,6.9827,6.9183,6.9396,7.0011,6.9515,7.0243,7.142,7.3046,7.2789,7.2496,7.2496,7.3597,7.4588,7.4882,7.6246,7.7273,7.7273,7.6454,7.599,7.6406,7.5342,7.4786,7.5191,7.451,7.3761,7.3119,7.2977,7.2548,7.1727,7.1335,7.055,6.9337,6.8516,6.7731,6.6981,6.6196,6.5804,6.5804,6.5411,6.5233,6.513,6.3441,6.2486,6.2185,6.119,6.0185,5.9389,6.1221,6.1362,6.0779,6.2974,6.3399,6.302,6.4126,6.4202,6.3573,6.2987,6.3641,6.4741,6.4741,6.5222,6.574,6.5477,6.4977,6.4393,6.3825,6.3271,6.2774,6.2459,6.2685,6.2854,6.2482,6.2922,6.3362,6.3057,6.3226,6.3463,6.3497,6.3802,6.4275,6.4986,6.4816,6.4701,6.4983,6.4615,6.4133,6.3673,6.3931,6.4217,6.4463,6.3798,6.3445,6.3782,6.3559,6.3474,6.363,6.5009,6.5154,6.38,6.4417,6.4347,6.3503,6.3665,6.4291,6.5316,6.5357,6.5642,6.6116,6.6468,6.6957,6.7562,6.8275,6.8757,6.895,6.895,6.9027,6.9063,6.8672,6.8828,6.9342,6.9034,6.9643,7.0557,7.2496,7.2496,7.2496,7.2496,7.3744,7.4771,7.4698,7.6093,7.7053,7.7017,7.6362,7.6031,7.6254,7.5545,7.5099,7.5192,7.3726,7.2585,7.2121,7.1835,7.1406,7.0728,7.0585,7.0122,6.9303,6.8516,6.7731,6.6981,6.6196,6.5804,6.5768,6.4983,6.4527,6.4397,6.3067,6.2187,6.1675,6.1727,6.0768,5.934,6.122,6.1115,6.0175,6.2845,6.3371,6.2949,6.5054,6.5412,6.4701,6.338,6.3764,6.4774,6.4914,6.5218,6.5447,6.5051,6.4463,6.3859,6.3348,6.2817,6.2381,6.2381,6.2482,6.255,6.2415,6.3328,6.3869,6.2651,6.3362,6.4038,6.3429,6.3903,6.4613,6.5222,6.5,6.4909,6.525,6.4897,6.4507,6.4286,6.4323,6.4567,6.5011,6.4266,6.3771,6.3801,6.3279,6.2999,6.3092,6.4186,6.4439,6.3726,6.3962,6.3686,6.278,6.3194,6.3739,6.4452,6.4927,6.5164,6.5211,6.6036,6.6636,6.7136,6.7651,6.805,6.8374,6.8374,6.8383,6.8372,6.8449,6.8535,6.8691,6.9039,6.9178,6.9262,7.2496,7.2496,7.2496,7.2496,7.345,7.4147,7.3891,7.5212,7.6203,7.5953,7.5513,7.5197,7.5146,7.5177,7.5189,7.5191,7.3761,7.262,7.2121,7.1835,7.1656,7.1549,7.0871,7.0122,6.9303,6.8516,6.7731,6.6981,6.6196,6.5804,6.5768,6.4983,6.4369,6.3842,6.2502,6.1641,6.1076,6.0557,6.0224,6.0047,6.1003,6.1442,6.1674,6.338,6.4138,6.4448,6.5447,6.5412,6.4739,6.3541,6.3647,6.4322,6.4948,6.4776,6.4463,6.4984,6.4308,6.3311,6.3237,6.2817,6.2381,6.2381,6.2888,6.3193,6.255,6.255,6.2618,6.2415,6.255,6.2651,6.255,6.3159,6.37,6.3802,6.4682,6.5143,6.4568,6.5258,6.5618,6.4878,6.5245,6.5575,6.564,6.4353,6.3555,6.3866,6.3167,6.2962,6.3466,6.4321,6.4546,6.4039,6.409,6.3686,6.278,6.3194,6.3534,6.3736,6.4397,6.5405,6.6759,6.5928,6.6111,6.7051,6.6422,6.6323,6.6648,6.6648,6.6653,6.6641,6.6656,6.7223,6.8125,6.9025,6.8911,6.8305,7.2496,7.2496,7.2496,7.2496,7.3266,7.3854,7.3707,7.4698,7.5506,7.5682,7.5001,7.4973,7.6126,7.4066,7.2583,7.2583,7.1942,7.1622,7.1871,7.1371,7.1014,7.1014,7.0693,6.9907,6.8658,6.8266,6.7517,6.6339,6.5982,6.5804,6.5804,6.466,6.3798,6.3146,6.2336,6.1597,6.0966,6.1261,6.1163,6.0791,6.1163,6.1505,6.1918,6.3032,6.3964,6.4634,6.5128,6.4944,6.4323,6.3496,6.3624,6.4191,6.4088,6.4343,6.463,6.4198,6.3664,6.3124,6.2817,6.2581,6.2381,6.2381,6.2651,6.2787,6.2448,6.2381,6.2381,6.2381,6.2381,6.2516,6.2956,6.3294,6.3752,6.4517,6.4757,6.4935,6.5258,6.5374,6.5433,6.5415,6.564,6.5689,6.5448,6.4368,6.3627,6.3452,6.2891,6.264,6.2917,6.3403,6.3595,6.3392,6.3392,6.3309,6.3123,6.3519,6.3819,6.4156,6.463,6.5224,6.5874,6.5721,6.6197,6.7161,6.6506,6.66,6.721,6.6743,6.6585,6.6574,6.6594,6.6886,6.7397,6.7789,6.7723,6.7459]}]]